<?xml version='1.0' encoding='UTF-8'?><gpx version="1.1" creator="JPX - https://github.com/jenetics/jpx" xmlns="http://www.topografix.com/GPX/1/1"><trk><trkseg><trkpt lat="46.2421595" lon="8.3129091"><ele>837.0</ele><time>2026-05-03T08:21:50.733Z</time></trkpt><trkpt lat="46.2421525" lon="8.3128099"><ele>837.0</ele><time>2026-05-03T08:21:52.732Z</time></trkpt><trkpt lat="46.2420721" lon="8.312859"><ele>837.0</ele><time>2026-05-03T08:22:36.16Z</time></trkpt><trkpt lat="46.2420397" lon="8.3129793"><ele>837.0</ele><time>2026-05-03T08:22:38.179Z</time></trkpt><trkpt lat="46.2419705" lon="8.3130292"><ele>837.0</ele><time>2026-05-03T08:22:40.177Z</time></trkpt><trkpt lat="46.2418923" lon="8.31306"><ele>837.0</ele><time>2026-05-03T08:22:43.168Z</time></trkpt><trkpt lat="46.2418066" lon="8.3131191"><ele>834.6666666666666</ele><time>2026-05-03T08:22:45.201Z</time></trkpt><trkpt lat="46.2417184" lon="8.3131775"><ele>832.3333333333333</ele><time>2026-05-03T08:22:47.181Z</time></trkpt><trkpt lat="46.2416584" lon="8.3132651"><ele>830.0</ele><time>2026-05-03T08:22:49.168Z</time></trkpt><trkpt lat="46.2415993" lon="8.3133293"><ele>827.6666666666666</ele><time>2026-05-03T08:22:51.162Z</time></trkpt><trkpt lat="46.2415028" lon="8.3133999"><ele>825.3333333333333</ele><time>2026-05-03T08:22:54.157Z</time></trkpt><trkpt lat="46.2414332" lon="8.3134644"><ele>823.0</ele><time>2026-05-03T08:22:56.143Z</time></trkpt><trkpt lat="46.2413674" lon="8.313448"><ele>822.4999999999999</ele><time>2026-05-03T08:23:00.145Z</time></trkpt><trkpt lat="46.2413468" lon="8.3133442"><ele>822.0</ele><time>2026-05-03T08:23:03.153Z</time></trkpt><trkpt lat="46.2413178" lon="8.3132187"><ele>821.5</ele><time>2026-05-03T08:23:05.165Z</time></trkpt><trkpt lat="46.2412638" lon="8.3131562"><ele>821.0</ele><time>2026-05-03T08:23:07.164Z</time></trkpt><trkpt lat="46.241209" lon="8.3130797"><ele>820.4999999999999</ele><time>2026-05-03T08:23:09.166Z</time></trkpt><trkpt lat="46.2411599" lon="8.313002"><ele>820.0</ele><time>2026-05-03T08:23:11.169Z</time></trkpt><trkpt lat="46.2411013" lon="8.3129375"><ele>820.4999999999999</ele><time>2026-05-03T08:23:13.162Z</time></trkpt><trkpt lat="46.2410265" lon="8.3129118"><ele>821.0</ele><time>2026-05-03T08:23:15.18Z</time></trkpt><trkpt lat="46.2409533" lon="8.3129178"><ele>821.5</ele><time>2026-05-03T08:23:17.161Z</time></trkpt><trkpt lat="46.2408667" lon="8.3129283"><ele>822.0</ele><time>2026-05-03T08:23:19.16Z</time></trkpt><trkpt lat="46.2407795" lon="8.3129709"><ele>822.4999999999999</ele><time>2026-05-03T08:23:21.158Z</time></trkpt><trkpt lat="46.2406979" lon="8.3130279"><ele>823.0</ele><time>2026-05-03T08:23:23.168Z</time></trkpt><trkpt lat="46.2406117" lon="8.3130898"><ele>822.9999999999999</ele><time>2026-05-03T08:23:25.155Z</time></trkpt><trkpt lat="46.2405325" lon="8.3131393"><ele>823.0</ele><time>2026-05-03T08:23:27.164Z</time></trkpt><trkpt lat="46.2404551" lon="8.3131369"><ele>823.0</ele><time>2026-05-03T08:23:30.163Z</time></trkpt><trkpt lat="46.2403998" lon="8.3130839"><ele>823.0</ele><time>2026-05-03T08:24:22.171Z</time></trkpt><trkpt lat="46.2403156" lon="8.3131015"><ele>822.9999999999999</ele><time>2026-05-03T08:24:25.164Z</time></trkpt><trkpt lat="46.2402363" lon="8.3131263"><ele>823.0</ele><time>2026-05-03T08:24:27.167Z</time></trkpt><trkpt lat="46.2401634" lon="8.3131533"><ele>822.9999999999999</ele><time>2026-05-03T08:24:29.162Z</time></trkpt><trkpt lat="46.2400823" lon="8.3131546"><ele>823.0</ele><time>2026-05-03T08:24:31.158Z</time></trkpt><trkpt lat="46.2399955" lon="8.3131317"><ele>823.0</ele><time>2026-05-03T08:24:34.169Z</time></trkpt><trkpt lat="46.2399339" lon="8.3130971"><ele>823.0</ele><time>2026-05-03T08:24:36.177Z</time></trkpt><trkpt lat="46.2398598" lon="8.3130578"><ele>822.9999999999999</ele><time>2026-05-03T08:24:39.169Z</time></trkpt><trkpt lat="46.2397834" lon="8.3130063"><ele>823.0</ele><time>2026-05-03T08:24:42.158Z</time></trkpt><trkpt lat="46.2397024" lon="8.3129466"><ele>824.8571428571429</ele><time>2026-05-03T08:24:45.17Z</time></trkpt><trkpt lat="46.2396335" lon="8.3129297"><ele>826.7142857142858</ele><time>2026-05-03T08:24:47.166Z</time></trkpt><trkpt lat="46.2395518" lon="8.3128652"><ele>828.5714285714286</ele><time>2026-05-03T08:24:51.165Z</time></trkpt><trkpt lat="46.2394869" lon="8.3128142"><ele>830.4285714285714</ele><time>2026-05-03T08:24:54.169Z</time></trkpt><trkpt lat="46.2394283" lon="8.3127782"><ele>832.2857142857142</ele><time>2026-05-03T08:24:56.159Z</time></trkpt><trkpt lat="46.2393668" lon="8.3127262"><ele>834.1428571428571</ele><time>2026-05-03T08:24:58.157Z</time></trkpt><trkpt lat="46.2393011" lon="8.3126845"><ele>836.0</ele><time>2026-05-03T08:25:00.16Z</time></trkpt><trkpt lat="46.2392097" lon="8.3126843"><ele>836.0</ele><time>2026-05-03T08:25:03.17Z</time></trkpt><trkpt lat="46.239136" lon="8.3126786"><ele>836.0</ele><time>2026-05-03T08:25:05.172Z</time></trkpt><trkpt lat="46.2390742" lon="8.3126507"><ele>836.0</ele><time>2026-05-03T08:25:07.168Z</time></trkpt><trkpt lat="46.2389999" lon="8.3126395"><ele>836.0</ele><time>2026-05-03T08:25:09.17Z</time></trkpt><trkpt lat="46.2389048" lon="8.3126318"><ele>836.0</ele><time>2026-05-03T08:25:12.172Z</time></trkpt><trkpt lat="46.23884" lon="8.3126182"><ele>836.0</ele><time>2026-05-03T08:25:14.174Z</time></trkpt><trkpt lat="46.2387745" lon="8.3126018"><ele>836.0</ele><time>2026-05-03T08:25:16.171Z</time></trkpt><trkpt lat="46.2386871" lon="8.3125714"><ele>837.8</ele><time>2026-05-03T08:25:19.173Z</time></trkpt><trkpt lat="46.2386021" lon="8.3125557"><ele>839.5999999999999</ele><time>2026-05-03T08:25:22.181Z</time></trkpt><trkpt lat="46.238508" lon="8.3125342"><ele>841.4</ele><time>2026-05-03T08:25:25.169Z</time></trkpt><trkpt lat="46.2384213" lon="8.3125596"><ele>843.2</ele><time>2026-05-03T08:25:28.165Z</time></trkpt><trkpt lat="46.2383329" lon="8.3125413"><ele>845.0</ele><time>2026-05-03T08:25:31.175Z</time></trkpt><trkpt lat="46.2382373" lon="8.3125307"><ele>845.0000000000001</ele><time>2026-05-03T08:25:34.169Z</time></trkpt><trkpt lat="46.2381573" lon="8.3125444"><ele>845.0</ele><time>2026-05-03T08:25:37.167Z</time></trkpt><trkpt lat="46.2380732" lon="8.3125888"><ele>845.0</ele><time>2026-05-03T08:25:40.166Z</time></trkpt><trkpt lat="46.2379859" lon="8.3126203"><ele>845.0</ele><time>2026-05-03T08:25:43.171Z</time></trkpt><trkpt lat="46.2379206" lon="8.3126117"><ele>845.0000000000001</ele><time>2026-05-03T08:25:45.19Z</time></trkpt><trkpt lat="46.2378267" lon="8.3126329"><ele>845.0</ele><time>2026-05-03T08:25:48.172Z</time></trkpt><trkpt lat="46.2377718" lon="8.3126785"><ele>846.8333333333334</ele><time>2026-05-03T08:25:50.19Z</time></trkpt><trkpt lat="46.2376928" lon="8.3127315"><ele>848.6666666666667</ele><time>2026-05-03T08:25:53.166Z</time></trkpt><trkpt lat="46.2376193" lon="8.3127448"><ele>850.5</ele><time>2026-05-03T08:25:56.152Z</time></trkpt><trkpt lat="46.2375138" lon="8.3127642"><ele>852.3333333333333</ele><time>2026-05-03T08:25:59.155Z</time></trkpt><trkpt lat="46.2374487" lon="8.3128256"><ele>854.1666666666666</ele><time>2026-05-03T08:26:01.162Z</time></trkpt><trkpt lat="46.2373745" lon="8.3128244"><ele>856.0</ele><time>2026-05-03T08:26:04.165Z</time></trkpt><trkpt lat="46.2373612" lon="8.312713"><ele>855.9999999999999</ele><time>2026-05-03T08:26:08.18Z</time></trkpt><trkpt lat="46.2374401" lon="8.3126929"><ele>856.0</ele><time>2026-05-03T08:26:11.16Z</time></trkpt><trkpt lat="46.2375164" lon="8.3126979"><ele>856.0</ele><time>2026-05-03T08:26:13.172Z</time></trkpt><trkpt lat="46.2375936" lon="8.3127066"><ele>856.0</ele><time>2026-05-03T08:26:15.184Z</time></trkpt><trkpt lat="46.2376616" lon="8.3126944"><ele>855.9999999999999</ele><time>2026-05-03T08:26:17.183Z</time></trkpt><trkpt lat="46.2377276" lon="8.3126782"><ele>856.0</ele><time>2026-05-03T08:26:19.184Z</time></trkpt><trkpt lat="46.2378077" lon="8.3126591"><ele>855.9999999999999</ele><time>2026-05-03T08:26:22.178Z</time></trkpt><trkpt lat="46.2378833" lon="8.3126483"><ele>856.0</ele><time>2026-05-03T08:26:25.177Z</time></trkpt><trkpt lat="46.2379437" lon="8.3126161"><ele>856.0</ele><time>2026-05-03T08:26:27.177Z</time></trkpt><trkpt lat="46.2380176" lon="8.3125413"><ele>856.0</ele><time>2026-05-03T08:26:30.173Z</time></trkpt><trkpt lat="46.2380674" lon="8.312478"><ele>855.9999999999999</ele><time>2026-05-03T08:26:32.169Z</time></trkpt><trkpt lat="46.2381284" lon="8.3124039"><ele>856.0</ele><time>2026-05-03T08:26:34.166Z</time></trkpt><trkpt lat="46.238188" lon="8.3123421"><ele>857.1666666666666</ele><time>2026-05-03T08:26:36.175Z</time></trkpt><trkpt lat="46.2382427" lon="8.3122909"><ele>858.3333333333333</ele><time>2026-05-03T08:26:38.173Z</time></trkpt><trkpt lat="46.2382997" lon="8.3122299"><ele>859.5</ele><time>2026-05-03T08:26:40.172Z</time></trkpt><trkpt lat="46.2383732" lon="8.3121721"><ele>860.6666666666667</ele><time>2026-05-03T08:26:43.177Z</time></trkpt><trkpt lat="46.238444" lon="8.3121178"><ele>861.8333333333334</ele><time>2026-05-03T08:26:46.172Z</time></trkpt><trkpt lat="46.2385285" lon="8.3120573"><ele>863.0</ele><time>2026-05-03T08:26:49.173Z</time></trkpt><trkpt lat="46.2385959" lon="8.3119737"><ele>863.0000000000001</ele><time>2026-05-03T08:26:52.192Z</time></trkpt><trkpt lat="46.2386481" lon="8.3119207"><ele>863.0</ele><time>2026-05-03T08:26:54.179Z</time></trkpt><trkpt lat="46.2387004" lon="8.3118683"><ele>863.0</ele><time>2026-05-03T08:26:56.172Z</time></trkpt><trkpt lat="46.2387628" lon="8.311817"><ele>863.0</ele><time>2026-05-03T08:26:58.177Z</time></trkpt><trkpt lat="46.2388234" lon="8.3117771"><ele>863.0</ele><time>2026-05-03T08:27:00.182Z</time></trkpt><trkpt lat="46.2388878" lon="8.3117563"><ele>863.0000000000001</ele><time>2026-05-03T08:27:02.18Z</time></trkpt><trkpt lat="46.2389768" lon="8.3117439"><ele>863.0</ele><time>2026-05-03T08:27:05.188Z</time></trkpt><trkpt lat="46.2390619" lon="8.311726"><ele>863.0000000000001</ele><time>2026-05-03T08:27:08.191Z</time></trkpt><trkpt lat="46.2391294" lon="8.3116381"><ele>863.0</ele><time>2026-05-03T08:27:11.174Z</time></trkpt><trkpt lat="46.2391259" lon="8.3115351"><ele>863.0</ele><time>2026-05-03T08:27:13.17Z</time></trkpt><trkpt lat="46.2391016" lon="8.3114314"><ele>863.0</ele><time>2026-05-03T08:27:15.193Z</time></trkpt><trkpt lat="46.2390263" lon="8.3113887"><ele>863.0000000000001</ele><time>2026-05-03T08:27:18.171Z</time></trkpt><trkpt lat="46.2389264" lon="8.3114177"><ele>863.0</ele><time>2026-05-03T08:27:20.177Z</time></trkpt><trkpt lat="46.2388367" lon="8.3114397"><ele>863.0000000000001</ele><time>2026-05-03T08:27:22.173Z</time></trkpt><trkpt lat="46.2387501" lon="8.3114684"><ele>863.0</ele><time>2026-05-03T08:27:24.178Z</time></trkpt><trkpt lat="46.2386723" lon="8.3114779"><ele>863.0</ele><time>2026-05-03T08:27:26.176Z</time></trkpt><trkpt lat="46.2386008" lon="8.3114732"><ele>863.0</ele><time>2026-05-03T08:27:28.174Z</time></trkpt><trkpt lat="46.2385246" lon="8.3114793"><ele>863.0000000000001</ele><time>2026-05-03T08:27:30.178Z</time></trkpt><trkpt lat="46.2384609" lon="8.3114466"><ele>863.0</ele><time>2026-05-03T08:27:32.169Z</time></trkpt><trkpt lat="46.2383941" lon="8.311389"><ele>863.8333333333334</ele><time>2026-05-03T08:27:35.172Z</time></trkpt><trkpt lat="46.238324" lon="8.3113345"><ele>864.6666666666667</ele><time>2026-05-03T08:27:38.169Z</time></trkpt><trkpt lat="46.2382589" lon="8.3112569"><ele>865.5</ele><time>2026-05-03T08:27:41.166Z</time></trkpt><trkpt lat="46.2381982" lon="8.3111734"><ele>866.3333333333333</ele><time>2026-05-03T08:27:44.175Z</time></trkpt><trkpt lat="46.2381421" lon="8.3110917"><ele>867.1666666666666</ele><time>2026-05-03T08:27:47.169Z</time></trkpt><trkpt lat="46.2380953" lon="8.3109923"><ele>868.0</ele><time>2026-05-03T08:27:50.179Z</time></trkpt><trkpt lat="46.2380447" lon="8.3109075"><ele>868.4285714285714</ele><time>2026-05-03T08:27:53.182Z</time></trkpt><trkpt lat="46.2379798" lon="8.3108104"><ele>868.8571428571429</ele><time>2026-05-03T08:27:56.177Z</time></trkpt><trkpt lat="46.2379316" lon="8.310735"><ele>869.2857142857142</ele><time>2026-05-03T08:27:58.174Z</time></trkpt><trkpt lat="46.2378872" lon="8.3106553"><ele>869.7142857142858</ele><time>2026-05-03T08:28:00.175Z</time></trkpt><trkpt lat="46.2378428" lon="8.3105798"><ele>870.1428571428571</ele><time>2026-05-03T08:28:02.182Z</time></trkpt><trkpt lat="46.2378015" lon="8.3104964"><ele>870.5714285714286</ele><time>2026-05-03T08:28:04.175Z</time></trkpt><trkpt lat="46.2377624" lon="8.3104172"><ele>871.0</ele><time>2026-05-03T08:28:06.176Z</time></trkpt><trkpt lat="46.2377163" lon="8.3103342"><ele>871.3333333333333</ele><time>2026-05-03T08:28:08.176Z</time></trkpt><trkpt lat="46.2376565" lon="8.3102664"><ele>871.6666666666666</ele><time>2026-05-03T08:28:10.172Z</time></trkpt><trkpt lat="46.2376029" lon="8.310187"><ele>872.0</ele><time>2026-05-03T08:28:12.173Z</time></trkpt><trkpt lat="46.2375653" lon="8.3100842"><ele>872.3333333333333</ele><time>2026-05-03T08:28:14.168Z</time></trkpt><trkpt lat="46.2375061" lon="8.3099877"><ele>872.6666666666666</ele><time>2026-05-03T08:28:16.176Z</time></trkpt><trkpt lat="46.2374432" lon="8.3099009"><ele>873.0</ele><time>2026-05-03T08:28:18.17Z</time></trkpt><trkpt lat="46.237365" lon="8.3098242"><ele>870.5999999999999</ele><time>2026-05-03T08:28:20.175Z</time></trkpt><trkpt lat="46.2372753" lon="8.309767"><ele>868.1999999999999</ele><time>2026-05-03T08:28:22.178Z</time></trkpt><trkpt lat="46.2371736" lon="8.3097534"><ele>865.8</ele><time>2026-05-03T08:28:24.178Z</time></trkpt><trkpt lat="46.2370686" lon="8.309764"><ele>863.4</ele><time>2026-05-03T08:28:26.171Z</time></trkpt><trkpt lat="46.2369757" lon="8.3097943"><ele>861.0</ele><time>2026-05-03T08:28:28.171Z</time></trkpt><trkpt lat="46.2368821" lon="8.3098319"><ele>861.0</ele><time>2026-05-03T08:28:30.165Z</time></trkpt><trkpt lat="46.2368012" lon="8.30982"><ele>861.0</ele><time>2026-05-03T08:28:32.171Z</time></trkpt><trkpt lat="46.2367373" lon="8.3097583"><ele>861.0</ele><time>2026-05-03T08:28:34.174Z</time></trkpt><trkpt lat="46.2366817" lon="8.309665"><ele>861.0</ele><time>2026-05-03T08:28:36.17Z</time></trkpt><trkpt lat="46.2366434" lon="8.3095411"><ele>861.0</ele><time>2026-05-03T08:28:38.182Z</time></trkpt><trkpt lat="46.2366148" lon="8.3094091"><ele>861.0</ele><time>2026-05-03T08:28:40.173Z</time></trkpt><trkpt lat="46.2365687" lon="8.3092851"><ele>862.0</ele><time>2026-05-03T08:28:42.168Z</time></trkpt><trkpt lat="46.2365429" lon="8.3091526"><ele>862.9999999999999</ele><time>2026-05-03T08:28:44.163Z</time></trkpt><trkpt lat="46.2365631" lon="8.309004"><ele>863.9999999999999</ele><time>2026-05-03T08:28:46.168Z</time></trkpt><trkpt lat="46.2366049" lon="8.3088483"><ele>865.0</ele><time>2026-05-03T08:28:48.167Z</time></trkpt><trkpt lat="46.2366577" lon="8.3086977"><ele>866.0</ele><time>2026-05-03T08:28:50.177Z</time></trkpt><trkpt lat="46.2367146" lon="8.308553"><ele>866.0</ele><time>2026-05-03T08:28:52.168Z</time></trkpt><trkpt lat="46.2367458" lon="8.3084222"><ele>865.9999999999999</ele><time>2026-05-03T08:28:54.167Z</time></trkpt><trkpt lat="46.2367747" lon="8.3083041"><ele>865.9999999999999</ele><time>2026-05-03T08:28:56.179Z</time></trkpt><trkpt lat="46.2367946" lon="8.3081767"><ele>866.0</ele><time>2026-05-03T08:28:58.156Z</time></trkpt><trkpt lat="46.2368088" lon="8.3080369"><ele>866.0</ele><time>2026-05-03T08:29:00.155Z</time></trkpt><trkpt lat="46.2368358" lon="8.3078985"><ele>866.0</ele><time>2026-05-03T08:29:02.161Z</time></trkpt><trkpt lat="46.2368704" lon="8.3077606"><ele>865.9999999999999</ele><time>2026-05-03T08:29:04.161Z</time></trkpt><trkpt lat="46.2368859" lon="8.3076313"><ele>865.9999999999999</ele><time>2026-05-03T08:29:06.156Z</time></trkpt><trkpt lat="46.2369305" lon="8.3074694"><ele>866.0</ele><time>2026-05-03T08:29:08.155Z</time></trkpt><trkpt lat="46.2370237" lon="8.3073521"><ele>866.0</ele><time>2026-05-03T08:29:10.153Z</time></trkpt><trkpt lat="46.237075" lon="8.3072918"><ele>868.1999999999999</ele><time>2026-05-03T08:29:11.151Z</time></trkpt><trkpt lat="46.2371307" lon="8.3072405"><ele>870.3999999999999</ele><time>2026-05-03T08:29:12.148Z</time></trkpt><trkpt lat="46.2372244" lon="8.3071324"><ele>872.6</ele><time>2026-05-03T08:29:14.149Z</time></trkpt><trkpt lat="46.2373052" lon="8.307026"><ele>874.8</ele><time>2026-05-03T08:29:16.15Z</time></trkpt><trkpt lat="46.2373517" lon="8.306929"><ele>877.0</ele><time>2026-05-03T08:29:18.147Z</time></trkpt><trkpt lat="46.2373828" lon="8.306816"><ele>877.0</ele><time>2026-05-03T08:29:20.148Z</time></trkpt><trkpt lat="46.2373261" lon="8.3067366"><ele>877.0</ele><time>2026-05-03T08:29:23.142Z</time></trkpt><trkpt lat="46.2372507" lon="8.3067635"><ele>877.0</ele><time>2026-05-03T08:29:24.145Z</time></trkpt><trkpt lat="46.2371576" lon="8.3067921"><ele>877.0</ele><time>2026-05-03T08:29:25.147Z</time></trkpt><trkpt lat="46.2370616" lon="8.3068038"><ele>877.0</ele><time>2026-05-03T08:29:26.148Z</time></trkpt><trkpt lat="46.236958" lon="8.3067874"><ele>876.9999999999999</ele><time>2026-05-03T08:29:27.159Z</time></trkpt><trkpt lat="46.2368538" lon="8.306794"><ele>877.0</ele><time>2026-05-03T08:29:28.143Z</time></trkpt><trkpt lat="46.2367668" lon="8.3067664"><ele>877.0</ele><time>2026-05-03T08:29:29.147Z</time></trkpt><trkpt lat="46.2367014" lon="8.30672"><ele>877.0</ele><time>2026-05-03T08:29:30.152Z</time></trkpt><trkpt lat="46.2366433" lon="8.3066843"><ele>876.9999999999999</ele><time>2026-05-03T08:29:31.151Z</time></trkpt><trkpt lat="46.2365783" lon="8.306634"><ele>877.0</ele><time>2026-05-03T08:29:32.154Z</time></trkpt><trkpt lat="46.2364741" lon="8.3065536"><ele>876.2</ele><time>2026-05-03T08:29:34.153Z</time></trkpt><trkpt lat="46.2363699" lon="8.306495"><ele>875.4000000000001</ele><time>2026-05-03T08:29:36.161Z</time></trkpt><trkpt lat="46.2362589" lon="8.3064513"><ele>874.5999999999999</ele><time>2026-05-03T08:29:38.163Z</time></trkpt><trkpt lat="46.236179" lon="8.3063625"><ele>873.8</ele><time>2026-05-03T08:29:40.161Z</time></trkpt><trkpt lat="46.2361107" lon="8.3062648"><ele>873.0</ele><time>2026-05-03T08:29:42.162Z</time></trkpt><trkpt lat="46.2360696" lon="8.3061375"><ele>873.0</ele><time>2026-05-03T08:29:44.162Z</time></trkpt><trkpt lat="46.2360305" lon="8.3060072"><ele>873.0</ele><time>2026-05-03T08:29:46.155Z</time></trkpt><trkpt lat="46.235972" lon="8.3058973"><ele>873.0</ele><time>2026-05-03T08:29:48.157Z</time></trkpt><trkpt lat="46.2358896" lon="8.3058091"><ele>873.0</ele><time>2026-05-03T08:29:50.163Z</time></trkpt><trkpt lat="46.2357976" lon="8.3057401"><ele>873.0</ele><time>2026-05-03T08:29:52.164Z</time></trkpt><trkpt lat="46.2357166" lon="8.30564"><ele>871.0</ele><time>2026-05-03T08:29:54.166Z</time></trkpt><trkpt lat="46.2356218" lon="8.3055825"><ele>869.0</ele><time>2026-05-03T08:29:56.166Z</time></trkpt><trkpt lat="46.2355532" lon="8.3054512"><ele>867.0</ele><time>2026-05-03T08:29:58.208Z</time></trkpt><trkpt lat="46.235498" lon="8.3052958"><ele>865.0</ele><time>2026-05-03T08:30:00.165Z</time></trkpt><trkpt lat="46.2354397" lon="8.3051554"><ele>865.0</ele><time>2026-05-03T08:30:02.16Z</time></trkpt><trkpt lat="46.2353664" lon="8.3050285"><ele>865.0</ele><time>2026-05-03T08:30:04.163Z</time></trkpt><trkpt lat="46.235289" lon="8.3048858"><ele>865.0</ele><time>2026-05-03T08:30:06.155Z</time></trkpt><trkpt lat="46.2352034" lon="8.3047463"><ele>865.0</ele><time>2026-05-03T08:30:08.162Z</time></trkpt><trkpt lat="46.2351598" lon="8.3046667"><ele>865.0</ele><time>2026-05-03T08:30:09.163Z</time></trkpt><trkpt lat="46.2350957" lon="8.3045376"><ele>868.6</ele><time>2026-05-03T08:30:11.169Z</time></trkpt><trkpt lat="46.2350325" lon="8.3044111"><ele>872.2</ele><time>2026-05-03T08:30:13.164Z</time></trkpt><trkpt lat="46.2349733" lon="8.3042877"><ele>875.8</ele><time>2026-05-03T08:30:15.184Z</time></trkpt><trkpt lat="46.2349076" lon="8.3041582"><ele>879.4</ele><time>2026-05-03T08:30:17.149Z</time></trkpt><trkpt lat="46.2348371" lon="8.304035"><ele>883.0</ele><time>2026-05-03T08:30:19.15Z</time></trkpt><trkpt lat="46.2347875" lon="8.3039201"><ele>884.8</ele><time>2026-05-03T08:30:21.15Z</time></trkpt><trkpt lat="46.2347463" lon="8.3037491"><ele>886.5999999999999</ele><time>2026-05-03T08:30:23.144Z</time></trkpt><trkpt lat="46.2347061" lon="8.303616"><ele>888.4000000000001</ele><time>2026-05-03T08:30:25.149Z</time></trkpt><trkpt lat="46.2346507" lon="8.3034674"><ele>890.2</ele><time>2026-05-03T08:30:27.145Z</time></trkpt><trkpt lat="46.2346295" lon="8.3033608"><ele>892.0</ele><time>2026-05-03T08:30:29.147Z</time></trkpt><trkpt lat="46.234651" lon="8.3032343"><ele>891.9999999999999</ele><time>2026-05-03T08:30:31.133Z</time></trkpt><trkpt lat="46.2345991" lon="8.3031473"><ele>892.0</ele><time>2026-05-03T08:30:33.136Z</time></trkpt><trkpt lat="46.2345312" lon="8.3030493"><ele>892.0</ele><time>2026-05-03T08:30:35.133Z</time></trkpt><trkpt lat="46.2344194" lon="8.3030576"><ele>892.0</ele><time>2026-05-03T08:30:37.139Z</time></trkpt><trkpt lat="46.2343352" lon="8.3029919"><ele>891.9999999999999</ele><time>2026-05-03T08:30:39.139Z</time></trkpt><trkpt lat="46.2342814" lon="8.3029407"><ele>892.0</ele><time>2026-05-03T08:30:40.131Z</time></trkpt><trkpt lat="46.2342605" lon="8.3027972"><ele>891.9999999999999</ele><time>2026-05-03T08:30:41.138Z</time></trkpt><trkpt lat="46.2342679" lon="8.3027066"><ele>892.0</ele><time>2026-05-03T08:30:42.125Z</time></trkpt><trkpt lat="46.2342509" lon="8.3025915"><ele>892.0</ele><time>2026-05-03T08:30:44.127Z</time></trkpt><trkpt lat="46.2342016" lon="8.3027275"><ele>892.0</ele><time>2026-05-03T08:30:47.138Z</time></trkpt><trkpt lat="46.2341875" lon="8.3028249"><ele>891.9999999999999</ele><time>2026-05-03T08:30:48.141Z</time></trkpt><trkpt lat="46.2341925" lon="8.3029342"><ele>892.0</ele><time>2026-05-03T08:30:49.144Z</time></trkpt><trkpt lat="46.2343094" lon="8.3030998"><ele>892.0</ele><time>2026-05-03T08:30:50.147Z</time></trkpt><trkpt lat="46.2344156" lon="8.3032361"><ele>892.0</ele><time>2026-05-03T08:30:51.146Z</time></trkpt><trkpt lat="46.2344955" lon="8.3034068"><ele>892.0</ele><time>2026-05-03T08:30:53.146Z</time></trkpt><trkpt lat="46.234503" lon="8.303498"><ele>892.0</ele><time>2026-05-03T08:30:54.149Z</time></trkpt><trkpt lat="46.2344727" lon="8.3035793"><ele>892.0</ele><time>2026-05-03T08:30:55.142Z</time></trkpt><trkpt lat="46.2344159" lon="8.3037364"><ele>892.0</ele><time>2026-05-03T08:30:57.14Z</time></trkpt><trkpt lat="46.2343681" lon="8.3039082"><ele>892.0</ele><time>2026-05-03T08:30:59.163Z</time></trkpt><trkpt lat="46.2343304" lon="8.304006"><ele>892.0</ele><time>2026-05-03T08:31:00.14Z</time></trkpt><trkpt lat="46.2342743" lon="8.3041096"><ele>892.0</ele><time>2026-05-03T08:31:01.144Z</time></trkpt><trkpt lat="46.2342448" lon="8.3042139"><ele>892.0</ele><time>2026-05-03T08:31:02.143Z</time></trkpt><trkpt lat="46.2342054" lon="8.3043448"><ele>890.6666666666666</ele><time>2026-05-03T08:31:03.144Z</time></trkpt><trkpt lat="46.2341992" lon="8.3044513"><ele>889.3333333333333</ele><time>2026-05-03T08:31:04.141Z</time></trkpt><trkpt lat="46.2341659" lon="8.3045555"><ele>888.0</ele><time>2026-05-03T08:31:05.143Z</time></trkpt><trkpt lat="46.234132" lon="8.3046722"><ele>886.6666666666667</ele><time>2026-05-03T08:31:06.144Z</time></trkpt><trkpt lat="46.2340848" lon="8.3047712"><ele>885.3333333333334</ele><time>2026-05-03T08:31:07.139Z</time></trkpt><trkpt lat="46.2340406" lon="8.3048638"><ele>884.0</ele><time>2026-05-03T08:31:08.141Z</time></trkpt><trkpt lat="46.233972" lon="8.3049691"><ele>884.8333333333334</ele><time>2026-05-03T08:31:09.148Z</time></trkpt><trkpt lat="46.2339215" lon="8.3050778"><ele>885.6666666666667</ele><time>2026-05-03T08:31:10.148Z</time></trkpt><trkpt lat="46.2338834" lon="8.305183"><ele>886.5</ele><time>2026-05-03T08:31:11.155Z</time></trkpt><trkpt lat="46.2338509" lon="8.3052826"><ele>887.3333333333333</ele><time>2026-05-03T08:31:12.154Z</time></trkpt><trkpt lat="46.2338185" lon="8.3053615"><ele>888.1666666666666</ele><time>2026-05-03T08:31:13.164Z</time></trkpt><trkpt lat="46.2337512" lon="8.3054919"><ele>889.0</ele><time>2026-05-03T08:31:15.168Z</time></trkpt><trkpt lat="46.2336686" lon="8.3055921"><ele>889.0</ele><time>2026-05-03T08:31:17.166Z</time></trkpt><trkpt lat="46.233603" lon="8.3056804"><ele>889.0000000000001</ele><time>2026-05-03T08:31:19.163Z</time></trkpt><trkpt lat="46.233539" lon="8.3057597"><ele>889.0000000000001</ele><time>2026-05-03T08:31:21.165Z</time></trkpt><trkpt lat="46.2334814" lon="8.3058548"><ele>889.0</ele><time>2026-05-03T08:31:23.161Z</time></trkpt><trkpt lat="46.2334152" lon="8.3059527"><ele>889.0</ele><time>2026-05-03T08:31:25.166Z</time></trkpt><trkpt lat="46.2333444" lon="8.3060534"><ele>888.9999999999999</ele><time>2026-05-03T08:31:27.17Z</time></trkpt><trkpt lat="46.2332906" lon="8.3061541"><ele>889.0</ele><time>2026-05-03T08:31:29.165Z</time></trkpt><trkpt lat="46.2332305" lon="8.3062411"><ele>889.0</ele><time>2026-05-03T08:31:31.171Z</time></trkpt><trkpt lat="46.2331652" lon="8.3063221"><ele>889.0</ele><time>2026-05-03T08:31:33.17Z</time></trkpt><trkpt lat="46.2330986" lon="8.3063951"><ele>888.9999999999999</ele><time>2026-05-03T08:31:35.174Z</time></trkpt><trkpt lat="46.23305" lon="8.3064897"><ele>889.0</ele><time>2026-05-03T08:31:37.172Z</time></trkpt><trkpt lat="46.2330014" lon="8.3065872"><ele>889.1666666666666</ele><time>2026-05-03T08:31:39.179Z</time></trkpt><trkpt lat="46.2329512" lon="8.3066903"><ele>889.3333333333333</ele><time>2026-05-03T08:31:41.181Z</time></trkpt><trkpt lat="46.2328891" lon="8.3067934"><ele>889.5</ele><time>2026-05-03T08:31:43.178Z</time></trkpt><trkpt lat="46.2328344" lon="8.3068831"><ele>889.6666666666667</ele><time>2026-05-03T08:31:45.193Z</time></trkpt><trkpt lat="46.2327644" lon="8.3069712"><ele>889.8333333333334</ele><time>2026-05-03T08:31:47.185Z</time></trkpt><trkpt lat="46.2327021" lon="8.3070608"><ele>890.0</ele><time>2026-05-03T08:31:49.181Z</time></trkpt><trkpt lat="46.2326269" lon="8.3071258"><ele>890.0000000000001</ele><time>2026-05-03T08:31:51.18Z</time></trkpt><trkpt lat="46.2325451" lon="8.3071558"><ele>890.0</ele><time>2026-05-03T08:31:53.179Z</time></trkpt><trkpt lat="46.2324639" lon="8.3071765"><ele>890.0</ele><time>2026-05-03T08:31:55.186Z</time></trkpt><trkpt lat="46.2323794" lon="8.3071819"><ele>890.0</ele><time>2026-05-03T08:31:57.189Z</time></trkpt><trkpt lat="46.2322943" lon="8.3071749"><ele>890.0000000000001</ele><time>2026-05-03T08:31:59.186Z</time></trkpt><trkpt lat="46.2322074" lon="8.3071797"><ele>890.0</ele><time>2026-05-03T08:32:01.202Z</time></trkpt><trkpt lat="46.2321262" lon="8.3071948"><ele>890.5000000000001</ele><time>2026-05-03T08:32:03.189Z</time></trkpt><trkpt lat="46.2320489" lon="8.3072091"><ele>891.0</ele><time>2026-05-03T08:32:05.184Z</time></trkpt><trkpt lat="46.231964" lon="8.3072218"><ele>891.5</ele><time>2026-05-03T08:32:07.187Z</time></trkpt><trkpt lat="46.231889" lon="8.3072281"><ele>892.0</ele><time>2026-05-03T08:32:09.179Z</time></trkpt><trkpt lat="46.231817" lon="8.3072324"><ele>892.5000000000001</ele><time>2026-05-03T08:32:11.186Z</time></trkpt><trkpt lat="46.2317335" lon="8.3072475"><ele>893.0</ele><time>2026-05-03T08:32:13.182Z</time></trkpt><trkpt lat="46.2316534" lon="8.3072387"><ele>893.3333333333334</ele><time>2026-05-03T08:32:15.2Z</time></trkpt><trkpt lat="46.2315728" lon="8.3072555"><ele>893.6666666666667</ele><time>2026-05-03T08:32:17.192Z</time></trkpt><trkpt lat="46.2314941" lon="8.3072794"><ele>894.0</ele><time>2026-05-03T08:32:19.191Z</time></trkpt><trkpt lat="46.2314073" lon="8.3073309"><ele>894.3333333333333</ele><time>2026-05-03T08:32:21.182Z</time></trkpt><trkpt lat="46.2313167" lon="8.3073881"><ele>894.6666666666666</ele><time>2026-05-03T08:32:23.176Z</time></trkpt><trkpt lat="46.2312432" lon="8.3074657"><ele>895.0</ele><time>2026-05-03T08:32:25.175Z</time></trkpt><trkpt lat="46.2311716" lon="8.3075141"><ele>894.9999999999999</ele><time>2026-05-03T08:32:27.172Z</time></trkpt><trkpt lat="46.2310995" lon="8.3075764"><ele>895.0</ele><time>2026-05-03T08:32:29.179Z</time></trkpt><trkpt lat="46.2310321" lon="8.3076472"><ele>895.0</ele><time>2026-05-03T08:32:31.179Z</time></trkpt><trkpt lat="46.230966" lon="8.3077329"><ele>895.0</ele><time>2026-05-03T08:32:33.18Z</time></trkpt><trkpt lat="46.2309029" lon="8.3078049"><ele>894.9999999999999</ele><time>2026-05-03T08:32:35.182Z</time></trkpt><trkpt lat="46.2308331" lon="8.3078859"><ele>895.0</ele><time>2026-05-03T08:32:37.175Z</time></trkpt><trkpt lat="46.2307559" lon="8.3079437"><ele>894.9999999999999</ele><time>2026-05-03T08:32:39.175Z</time></trkpt><trkpt lat="46.2306662" lon="8.307968"><ele>895.0</ele><time>2026-05-03T08:32:41.187Z</time></trkpt><trkpt lat="46.2305794" lon="8.3079764"><ele>895.0</ele><time>2026-05-03T08:32:43.179Z</time></trkpt><trkpt lat="46.230499" lon="8.3079758"><ele>895.0</ele><time>2026-05-03T08:32:45.19Z</time></trkpt><trkpt lat="46.2304114" lon="8.307992"><ele>894.9999999999999</ele><time>2026-05-03T08:32:47.193Z</time></trkpt><trkpt lat="46.2303218" lon="8.3079869"><ele>895.0</ele><time>2026-05-03T08:32:49.183Z</time></trkpt><trkpt lat="46.2302381" lon="8.3079999"><ele>894.9999999999999</ele><time>2026-05-03T08:32:51.189Z</time></trkpt><trkpt lat="46.2301564" lon="8.3079877"><ele>895.0</ele><time>2026-05-03T08:32:53.18Z</time></trkpt><trkpt lat="46.2300776" lon="8.3079684"><ele>895.0</ele><time>2026-05-03T08:32:55.175Z</time></trkpt><trkpt lat="46.2300188" lon="8.3079272"><ele>895.0</ele><time>2026-05-03T08:32:57.188Z</time></trkpt><trkpt lat="46.2299353" lon="8.3078789"><ele>894.9999999999999</ele><time>2026-05-03T08:33:00.187Z</time></trkpt><trkpt lat="46.2298569" lon="8.3078183"><ele>895.0</ele><time>2026-05-03T08:33:03.2Z</time></trkpt><trkpt lat="46.2298066" lon="8.307746"><ele>894.9999999999999</ele><time>2026-05-03T08:33:06.18Z</time></trkpt><trkpt lat="46.229833" lon="8.3076381"><ele>895.0</ele><time>2026-05-03T08:33:11.177Z</time></trkpt><trkpt lat="46.2298889" lon="8.3075358"><ele>895.0</ele><time>2026-05-03T08:33:14.188Z</time></trkpt><trkpt lat="46.2299069" lon="8.3074014"><ele>895.0</ele><time>2026-05-03T08:33:17.189Z</time></trkpt><trkpt lat="46.229898" lon="8.3073011"><ele>894.9999999999999</ele><time>2026-05-03T08:33:19.184Z</time></trkpt><trkpt lat="46.2298682" lon="8.3072158"><ele>895.0</ele><time>2026-05-03T08:33:21.19Z</time></trkpt><trkpt lat="46.2298155" lon="8.307152"><ele>896.2857142857142</ele><time>2026-05-03T08:33:23.181Z</time></trkpt><trkpt lat="46.2297541" lon="8.3071101"><ele>897.5714285714287</ele><time>2026-05-03T08:33:25.179Z</time></trkpt><trkpt lat="46.229679" lon="8.3070818"><ele>898.8571428571429</ele><time>2026-05-03T08:33:27.19Z</time></trkpt><trkpt lat="46.2296057" lon="8.3070729"><ele>900.1428571428571</ele><time>2026-05-03T08:33:29.185Z</time></trkpt><trkpt lat="46.2295376" lon="8.3070692"><ele>901.4285714285713</ele><time>2026-05-03T08:33:31.182Z</time></trkpt><trkpt lat="46.2294742" lon="8.3070729"><ele>902.7142857142858</ele><time>2026-05-03T08:33:33.185Z</time></trkpt><trkpt lat="46.2294016" lon="8.3070799"><ele>904.0</ele><time>2026-05-03T08:33:35.19Z</time></trkpt><trkpt lat="46.2293287" lon="8.3071005"><ele>904.0</ele><time>2026-05-03T08:33:37.177Z</time></trkpt><trkpt lat="46.2292553" lon="8.3070889"><ele>904.0</ele><time>2026-05-03T08:33:40.189Z</time></trkpt><trkpt lat="46.2291932" lon="8.3070196"><ele>904.0</ele><time>2026-05-03T08:33:43.186Z</time></trkpt><trkpt lat="46.2291453" lon="8.3069449"><ele>904.0</ele><time>2026-05-03T08:33:46.186Z</time></trkpt><trkpt lat="46.2291071" lon="8.3068688"><ele>904.0</ele><time>2026-05-03T08:33:49.184Z</time></trkpt><trkpt lat="46.2290555" lon="8.3068118"><ele>904.0</ele><time>2026-05-03T08:33:52.185Z</time></trkpt><trkpt lat="46.2289982" lon="8.3067471"><ele>904.0</ele><time>2026-05-03T08:33:56.184Z</time></trkpt><trkpt lat="46.2289787" lon="8.3066577"><ele>904.0</ele><time>2026-05-03T08:34:01.183Z</time></trkpt><trkpt lat="46.2290396" lon="8.3066158"><ele>904.0</ele><time>2026-05-03T08:34:05.206Z</time></trkpt><trkpt lat="46.2291041" lon="8.3065816"><ele>904.0</ele><time>2026-05-03T08:34:09.185Z</time></trkpt><trkpt lat="46.2291818" lon="8.3065753"><ele>904.0</ele><time>2026-05-03T08:34:13.187Z</time></trkpt><trkpt lat="46.2292625" lon="8.3065804"><ele>904.0</ele><time>2026-05-03T08:34:17.185Z</time></trkpt><trkpt lat="46.2293378" lon="8.3065678"><ele>904.0</ele><time>2026-05-03T08:34:21.193Z</time></trkpt><trkpt lat="46.2294066" lon="8.3065306"><ele>904.0</ele><time>2026-05-03T08:34:24.186Z</time></trkpt><trkpt lat="46.2294762" lon="8.3065065"><ele>904.0</ele><time>2026-05-03T08:34:27.187Z</time></trkpt><trkpt lat="46.2295457" lon="8.3064577"><ele>904.0</ele><time>2026-05-03T08:34:30.19Z</time></trkpt><trkpt lat="46.2296134" lon="8.3064311"><ele>904.0</ele><time>2026-05-03T08:34:33.189Z</time></trkpt><trkpt lat="46.2296731" lon="8.3063991"><ele>904.0</ele><time>2026-05-03T08:34:36.233Z</time></trkpt><trkpt lat="46.2297392" lon="8.3063559"><ele>904.0</ele><time>2026-05-03T08:34:39.193Z</time></trkpt><trkpt lat="46.2297791" lon="8.3062809"><ele>904.0</ele><time>2026-05-03T08:34:42.19Z</time></trkpt><trkpt lat="46.2297971" lon="8.3061801"><ele>904.0</ele><time>2026-05-03T08:34:45.2Z</time></trkpt><trkpt lat="46.2297648" lon="8.3060541"><ele>905.7142857142858</ele><time>2026-05-03T08:34:48.193Z</time></trkpt><trkpt lat="46.2297245" lon="8.3059691"><ele>907.4285714285713</ele><time>2026-05-03T08:34:51.183Z</time></trkpt><trkpt lat="46.2296509" lon="8.3059436"><ele>909.1428571428571</ele><time>2026-05-03T08:34:54.182Z</time></trkpt><trkpt lat="46.2295761" lon="8.3058973"><ele>910.8571428571429</ele><time>2026-05-03T08:34:57.177Z</time></trkpt><trkpt lat="46.2295101" lon="8.3058654"><ele>912.5714285714287</ele><time>2026-05-03T08:35:01.191Z</time></trkpt><trkpt lat="46.2294536" lon="8.3058027"><ele>914.2857142857142</ele><time>2026-05-03T08:35:05.185Z</time></trkpt><trkpt lat="46.2294011" lon="8.3057343"><ele>916.0</ele><time>2026-05-03T08:35:09.185Z</time></trkpt><trkpt lat="46.2293592" lon="8.3056396"><ele>918.1666666666666</ele><time>2026-05-03T08:35:13.185Z</time></trkpt><trkpt lat="46.2293108" lon="8.3055552"><ele>920.3333333333333</ele><time>2026-05-03T08:35:17.191Z</time></trkpt><trkpt lat="46.2292514" lon="8.305472"><ele>922.5</ele><time>2026-05-03T08:35:21.186Z</time></trkpt><trkpt lat="46.229188" lon="8.3054275"><ele>924.6666666666667</ele><time>2026-05-03T08:35:24.18Z</time></trkpt><trkpt lat="46.2291159" lon="8.3054062"><ele>926.8333333333334</ele><time>2026-05-03T08:35:27.183Z</time></trkpt><trkpt lat="46.2290327" lon="8.3054054"><ele>929.0</ele><time>2026-05-03T08:35:30.187Z</time></trkpt><trkpt lat="46.2289609" lon="8.3054123"><ele>928.1428571428572</ele><time>2026-05-03T08:35:33.179Z</time></trkpt><trkpt lat="46.2289" lon="8.3054438"><ele>927.2857142857144</ele><time>2026-05-03T08:35:36.189Z</time></trkpt><trkpt lat="46.2288424" lon="8.3054962"><ele>926.4285714285714</ele><time>2026-05-03T08:35:39.192Z</time></trkpt><trkpt lat="46.2287847" lon="8.3055529"><ele>925.5714285714287</ele><time>2026-05-03T08:35:42.187Z</time></trkpt><trkpt lat="46.22873" lon="8.3056055"><ele>924.7142857142858</ele><time>2026-05-03T08:35:46.181Z</time></trkpt><trkpt lat="46.2286662" lon="8.305687"><ele>923.8571428571429</ele><time>2026-05-03T08:35:50.19Z</time></trkpt><trkpt lat="46.2286005" lon="8.3057389"><ele>923.0</ele><time>2026-05-03T08:35:54.191Z</time></trkpt><trkpt lat="46.228517" lon="8.3057568"><ele>923.0</ele><time>2026-05-03T08:35:58.19Z</time></trkpt><trkpt lat="46.228458" lon="8.3057145"><ele>923.0</ele><time>2026-05-03T08:36:02.194Z</time></trkpt><trkpt lat="46.2284014" lon="8.3056452"><ele>923.0</ele><time>2026-05-03T08:36:06.184Z</time></trkpt><trkpt lat="46.2283446" lon="8.3055794"><ele>923.0</ele><time>2026-05-03T08:36:10.188Z</time></trkpt><trkpt lat="46.2282923" lon="8.3055008"><ele>923.0</ele><time>2026-05-03T08:36:14.193Z</time></trkpt><trkpt lat="46.2282254" lon="8.3054336"><ele>923.0</ele><time>2026-05-03T08:36:18.186Z</time></trkpt><trkpt lat="46.2281677" lon="8.3053682"><ele>923.0</ele><time>2026-05-03T08:36:22.189Z</time></trkpt><trkpt lat="46.2281171" lon="8.3053004"><ele>924.5000000000001</ele><time>2026-05-03T08:36:26.193Z</time></trkpt><trkpt lat="46.2280642" lon="8.3052243"><ele>926.0</ele><time>2026-05-03T08:36:30.188Z</time></trkpt><trkpt lat="46.2280058" lon="8.3051429"><ele>927.5</ele><time>2026-05-03T08:36:34.186Z</time></trkpt><trkpt lat="46.2279484" lon="8.3050534"><ele>929.0</ele><time>2026-05-03T08:36:38.188Z</time></trkpt><trkpt lat="46.2279033" lon="8.3049561"><ele>930.5000000000001</ele><time>2026-05-03T08:36:42.181Z</time></trkpt><trkpt lat="46.227867" lon="8.304856"><ele>932.0</ele><time>2026-05-03T08:36:46.184Z</time></trkpt><trkpt lat="46.2278214" lon="8.3047582"><ele>934.6666666666667</ele><time>2026-05-03T08:36:50.183Z</time></trkpt><trkpt lat="46.2277824" lon="8.3046626"><ele>937.3333333333334</ele><time>2026-05-03T08:36:54.196Z</time></trkpt><trkpt lat="46.2277366" lon="8.3045642"><ele>940.0</ele><time>2026-05-03T08:36:58.183Z</time></trkpt><trkpt lat="46.2276956" lon="8.304495"><ele>942.6666666666667</ele><time>2026-05-03T08:37:01.184Z</time></trkpt><trkpt lat="46.2276407" lon="8.3044084"><ele>945.3333333333334</ele><time>2026-05-03T08:37:05.189Z</time></trkpt><trkpt lat="46.2275886" lon="8.3043243"><ele>948.0</ele><time>2026-05-03T08:37:09.181Z</time></trkpt><trkpt lat="46.2275322" lon="8.304248"><ele>947.9999999999999</ele><time>2026-05-03T08:37:13.178Z</time></trkpt><trkpt lat="46.2274877" lon="8.3041825"><ele>948.0</ele><time>2026-05-03T08:37:16.186Z</time></trkpt><trkpt lat="46.2274531" lon="8.3041014"><ele>947.9999999999999</ele><time>2026-05-03T08:37:19.182Z</time></trkpt><trkpt lat="46.2274094" lon="8.3040023"><ele>947.9999999999999</ele><time>2026-05-03T08:37:23.183Z</time></trkpt><trkpt lat="46.2273604" lon="8.3039193"><ele>948.0</ele><time>2026-05-03T08:37:27.182Z</time></trkpt><trkpt lat="46.2273135" lon="8.3038406"><ele>947.9999999999999</ele><time>2026-05-03T08:37:31.18Z</time></trkpt><trkpt lat="46.2272666" lon="8.3037598"><ele>947.9999999999999</ele><time>2026-05-03T08:37:36.173Z</time></trkpt><trkpt lat="46.2272027" lon="8.3036624"><ele>949.5714285714284</ele><time>2026-05-03T08:37:40.166Z</time></trkpt><trkpt lat="46.227133" lon="8.3035754"><ele>951.1428571428571</ele><time>2026-05-03T08:37:43.17Z</time></trkpt><trkpt lat="46.2270828" lon="8.3035164"><ele>952.7142857142857</ele><time>2026-05-03T08:37:47.17Z</time></trkpt><trkpt lat="46.2270094" lon="8.3034923"><ele>954.2857142857142</ele><time>2026-05-03T08:37:52.174Z</time></trkpt><trkpt lat="46.2269513" lon="8.3034418"><ele>955.8571428571429</ele><time>2026-05-03T08:37:55.169Z</time></trkpt><trkpt lat="46.226886" lon="8.3033885"><ele>957.4285714285714</ele><time>2026-05-03T08:37:58.17Z</time></trkpt><trkpt lat="46.2268335" lon="8.3033255"><ele>959.0</ele><time>2026-05-03T08:38:00.176Z</time></trkpt><trkpt lat="46.2267693" lon="8.3032583"><ele>959.0</ele><time>2026-05-03T08:38:03.181Z</time></trkpt><trkpt lat="46.2267278" lon="8.303163"><ele>959.0</ele><time>2026-05-03T08:38:07.179Z</time></trkpt><trkpt lat="46.2267811" lon="8.3031121"><ele>959.0</ele><time>2026-05-03T08:38:18.185Z</time></trkpt><trkpt lat="46.2268503" lon="8.3030794"><ele>959.0</ele><time>2026-05-03T08:38:22.175Z</time></trkpt><trkpt lat="46.2269084" lon="8.3031186"><ele>959.0</ele><time>2026-05-03T08:38:25.18Z</time></trkpt><trkpt lat="46.2269887" lon="8.3030802"><ele>959.0</ele><time>2026-05-03T08:39:28.172Z</time></trkpt><trkpt lat="46.2270582" lon="8.3030308"><ele>959.0</ele><time>2026-05-03T08:39:31.169Z</time></trkpt><trkpt lat="46.2271262" lon="8.3030247"><ele>960.8333333333334</ele><time>2026-05-03T08:39:35.179Z</time></trkpt><trkpt lat="46.2271921" lon="8.3030046"><ele>962.6666666666667</ele><time>2026-05-03T08:39:39.17Z</time></trkpt><trkpt lat="46.227266" lon="8.3030591"><ele>964.5</ele><time>2026-05-03T08:39:43.171Z</time></trkpt><trkpt lat="46.2273545" lon="8.3030588"><ele>966.3333333333333</ele><time>2026-05-03T08:39:46.167Z</time></trkpt><trkpt lat="46.2274366" lon="8.3030937"><ele>968.1666666666666</ele><time>2026-05-03T08:39:49.168Z</time></trkpt><trkpt lat="46.2275018" lon="8.303157"><ele>970.0</ele><time>2026-05-03T08:39:54.184Z</time></trkpt><trkpt lat="46.2275823" lon="8.3031555"><ele>969.9999999999999</ele><time>2026-05-03T08:39:57.169Z</time></trkpt><trkpt lat="46.2276609" lon="8.3031508"><ele>970.0</ele><time>2026-05-03T08:40:00.179Z</time></trkpt><trkpt lat="46.2277455" lon="8.3031997"><ele>970.0</ele><time>2026-05-03T08:40:04.183Z</time></trkpt><trkpt lat="46.2278293" lon="8.3032068"><ele>970.0</ele><time>2026-05-03T08:40:08.18Z</time></trkpt><trkpt lat="46.2279091" lon="8.3032016"><ele>969.9999999999999</ele><time>2026-05-03T08:40:11.179Z</time></trkpt><trkpt lat="46.227995" lon="8.3032145"><ele>970.0</ele><time>2026-05-03T08:40:14.186Z</time></trkpt><trkpt lat="46.2280695" lon="8.3031995"><ele>970.3333333333333</ele><time>2026-05-03T08:40:17.187Z</time></trkpt><trkpt lat="46.2281546" lon="8.3031662"><ele>970.6666666666666</ele><time>2026-05-03T08:40:20.19Z</time></trkpt><trkpt lat="46.2282375" lon="8.3031265"><ele>971.0</ele><time>2026-05-03T08:40:23.192Z</time></trkpt><trkpt lat="46.2283022" lon="8.3030477"><ele>971.3333333333333</ele><time>2026-05-03T08:40:26.197Z</time></trkpt><trkpt lat="46.2283494" lon="8.3029423"><ele>971.6666666666666</ele><time>2026-05-03T08:40:29.191Z</time></trkpt><trkpt lat="46.2283469" lon="8.3028425"><ele>972.0</ele><time>2026-05-03T08:40:32.167Z</time></trkpt><trkpt lat="46.2282845" lon="8.3027372"><ele>975.0</ele><time>2026-05-03T08:40:35.163Z</time></trkpt><trkpt lat="46.2281916" lon="8.3026657"><ele>978.0</ele><time>2026-05-03T08:40:37.168Z</time></trkpt><trkpt lat="46.2281231" lon="8.3026384"><ele>981.0</ele><time>2026-05-03T08:40:39.169Z</time></trkpt><trkpt lat="46.2280553" lon="8.3025712"><ele>984.0</ele><time>2026-05-03T08:40:43.17Z</time></trkpt><trkpt lat="46.2280172" lon="8.3024885"><ele>987.0</ele><time>2026-05-03T08:40:47.192Z</time></trkpt><trkpt lat="46.2280821" lon="8.3025385"><ele>990.0</ele><time>2026-05-03T08:40:57.183Z</time></trkpt><trkpt lat="46.2281481" lon="8.3025505"><ele>990.8333333333334</ele><time>2026-05-03T08:41:00.172Z</time></trkpt><trkpt lat="46.2282246" lon="8.3025831"><ele>991.6666666666667</ele><time>2026-05-03T08:41:04.177Z</time></trkpt><trkpt lat="46.228284" lon="8.3026204"><ele>992.5</ele><time>2026-05-03T08:41:07.175Z</time></trkpt><trkpt lat="46.2283554" lon="8.3026559"><ele>993.3333333333334</ele><time>2026-05-03T08:41:10.178Z</time></trkpt><trkpt lat="46.2284357" lon="8.3026418"><ele>994.1666666666667</ele><time>2026-05-03T08:41:13.183Z</time></trkpt><trkpt lat="46.2285136" lon="8.302633"><ele>995.0</ele><time>2026-05-03T08:41:17.178Z</time></trkpt><trkpt lat="46.2285856" lon="8.3026087"><ele>995.0</ele><time>2026-05-03T08:41:21.168Z</time></trkpt><trkpt lat="46.2286531" lon="8.3025781"><ele>995.0</ele><time>2026-05-03T08:41:24.164Z</time></trkpt><trkpt lat="46.2287077" lon="8.3025291"><ele>995.0</ele><time>2026-05-03T08:41:27.152Z</time></trkpt><trkpt lat="46.2287583" lon="8.3024639"><ele>995.0</ele><time>2026-05-03T08:41:29.157Z</time></trkpt><trkpt lat="46.2288278" lon="8.302422"><ele>995.0</ele><time>2026-05-03T08:41:31.16Z</time></trkpt><trkpt lat="46.2289133" lon="8.302431"><ele>995.0</ele><time>2026-05-03T08:41:34.168Z</time></trkpt><trkpt lat="46.228983" lon="8.3024379"><ele>995.0</ele><time>2026-05-03T08:41:37.168Z</time></trkpt><trkpt lat="46.2290444" lon="8.302377"><ele>994.0</ele><time>2026-05-03T08:41:39.174Z</time></trkpt><trkpt lat="46.2291214" lon="8.3023323"><ele>993.0</ele><time>2026-05-03T08:41:42.171Z</time></trkpt><trkpt lat="46.2291889" lon="8.3023193"><ele>992.0</ele><time>2026-05-03T08:41:45.186Z</time></trkpt><trkpt lat="46.2292614" lon="8.3023266"><ele>991.0</ele><time>2026-05-03T08:41:48.186Z</time></trkpt><trkpt lat="46.2293319" lon="8.3022791"><ele>990.0</ele><time>2026-05-03T08:41:51.187Z</time></trkpt><trkpt lat="46.2293998" lon="8.3022411"><ele>989.0</ele><time>2026-05-03T08:41:54.192Z</time></trkpt><trkpt lat="46.2294647" lon="8.3021912"><ele>988.0</ele><time>2026-05-03T08:41:57.187Z</time></trkpt><trkpt lat="46.2295149" lon="8.3021136"><ele>992.6666666666666</ele><time>2026-05-03T08:42:00.188Z</time></trkpt><trkpt lat="46.2295222" lon="8.3019987"><ele>997.3333333333333</ele><time>2026-05-03T08:42:03.183Z</time></trkpt><trkpt lat="46.2295369" lon="8.3018906"><ele>1002.0</ele><time>2026-05-03T08:42:06.173Z</time></trkpt><trkpt lat="46.2295211" lon="8.3017727"><ele>1006.6666666666667</ele><time>2026-05-03T08:42:09.162Z</time></trkpt><trkpt lat="46.2294806" lon="8.3016883"><ele>1011.3333333333334</ele><time>2026-05-03T08:42:12.165Z</time></trkpt><trkpt lat="46.229414" lon="8.3016693"><ele>1016.0</ele><time>2026-05-03T08:42:16.164Z</time></trkpt><trkpt lat="46.2293357" lon="8.3016431"><ele>1016.0</ele><time>2026-05-03T08:42:20.186Z</time></trkpt><trkpt lat="46.2292715" lon="8.3016333"><ele>1016.0</ele><time>2026-05-03T08:42:22.169Z</time></trkpt><trkpt lat="46.2291884" lon="8.3015879"><ele>1016.0</ele><time>2026-05-03T08:42:25.174Z</time></trkpt><trkpt lat="46.2291257" lon="8.3015662"><ele>1016.0</ele><time>2026-05-03T08:42:27.169Z</time></trkpt><trkpt lat="46.2290552" lon="8.3015406"><ele>1016.0</ele><time>2026-05-03T08:42:31.173Z</time></trkpt><trkpt lat="46.2290024" lon="8.301488"><ele>1016.0</ele><time>2026-05-03T08:42:34.164Z</time></trkpt><trkpt lat="46.2289265" lon="8.3014598"><ele>1016.0</ele><time>2026-05-03T08:42:37.161Z</time></trkpt><trkpt lat="46.2288412" lon="8.3014833"><ele>1016.5000000000001</ele><time>2026-05-03T08:42:40.162Z</time></trkpt><trkpt lat="46.2287783" lon="8.3015211"><ele>1017.0</ele><time>2026-05-03T08:42:42.165Z</time></trkpt><trkpt lat="46.2287057" lon="8.3015118"><ele>1017.5</ele><time>2026-05-03T08:42:46.159Z</time></trkpt><trkpt lat="46.228677" lon="8.3014254"><ele>1018.0</ele><time>2026-05-03T08:42:50.168Z</time></trkpt><trkpt lat="46.2286005" lon="8.3013824"><ele>1018.5000000000001</ele><time>2026-05-03T08:42:53.18Z</time></trkpt><trkpt lat="46.2285228" lon="8.3013571"><ele>1019.0</ele><time>2026-05-03T08:42:56.169Z</time></trkpt><trkpt lat="46.2284543" lon="8.3012833"><ele>1020.1428571428573</ele><time>2026-05-03T08:42:59.173Z</time></trkpt><trkpt lat="46.2283803" lon="8.3012335"><ele>1021.2857142857143</ele><time>2026-05-03T08:43:02.181Z</time></trkpt><trkpt lat="46.2283153" lon="8.3011705"><ele>1022.4285714285716</ele><time>2026-05-03T08:43:06.187Z</time></trkpt><trkpt lat="46.2282471" lon="8.3011384"><ele>1023.5714285714287</ele><time>2026-05-03T08:43:09.188Z</time></trkpt><trkpt lat="46.2281784" lon="8.3011174"><ele>1024.7142857142858</ele><time>2026-05-03T08:43:12.183Z</time></trkpt><trkpt lat="46.2281136" lon="8.3010797"><ele>1025.857142857143</ele><time>2026-05-03T08:43:15.188Z</time></trkpt><trkpt lat="46.2280446" lon="8.3010326"><ele>1027.0</ele><time>2026-05-03T08:43:19.187Z</time></trkpt><trkpt lat="46.2279738" lon="8.3010345"><ele>1027.0</ele><time>2026-05-03T08:43:23.191Z</time></trkpt><trkpt lat="46.22792" lon="8.300979"><ele>1027.0</ele><time>2026-05-03T08:43:28.187Z</time></trkpt><trkpt lat="46.22786" lon="8.300923"><ele>1027.0</ele><time>2026-05-03T08:43:32.194Z</time></trkpt><trkpt lat="46.2278011" lon="8.3008806"><ele>1027.0</ele><time>2026-05-03T08:43:36.197Z</time></trkpt><trkpt lat="46.2277381" lon="8.3008141"><ele>1027.0</ele><time>2026-05-03T08:43:39.191Z</time></trkpt><trkpt lat="46.2276768" lon="8.3007361"><ele>1027.0</ele><time>2026-05-03T08:43:42.188Z</time></trkpt><trkpt lat="46.2276377" lon="8.3006474"><ele>1027.0</ele><time>2026-05-03T08:43:45.191Z</time></trkpt><trkpt lat="46.2275961" lon="8.3005739"><ele>1029.5714285714287</ele><time>2026-05-03T08:43:48.187Z</time></trkpt><trkpt lat="46.2275528" lon="8.3004966"><ele>1032.1428571428573</ele><time>2026-05-03T08:43:52.186Z</time></trkpt><trkpt lat="46.2275203" lon="8.3003974"><ele>1034.7142857142858</ele><time>2026-05-03T08:43:56.189Z</time></trkpt><trkpt lat="46.2275208" lon="8.3002957"><ele>1037.2857142857142</ele><time>2026-05-03T08:44:00.188Z</time></trkpt><trkpt lat="46.2275858" lon="8.3002689"><ele>1039.8571428571427</ele><time>2026-05-03T08:44:05.188Z</time></trkpt><trkpt lat="46.227663" lon="8.3002563"><ele>1042.4285714285713</ele><time>2026-05-03T08:44:09.176Z</time></trkpt><trkpt lat="46.227732" lon="8.3002808"><ele>1045.0</ele><time>2026-05-03T08:44:14.191Z</time></trkpt><trkpt lat="46.2277992" lon="8.3003423"><ele>1045.0</ele><time>2026-05-03T08:44:18.195Z</time></trkpt><trkpt lat="46.2278653" lon="8.3003393"><ele>1045.0</ele><time>2026-05-03T08:44:21.189Z</time></trkpt><trkpt lat="46.2279318" lon="8.3003275"><ele>1045.0</ele><time>2026-05-03T08:44:24.19Z</time></trkpt><trkpt lat="46.2280028" lon="8.300276"><ele>1045.0</ele><time>2026-05-03T08:44:28.197Z</time></trkpt><trkpt lat="46.2280595" lon="8.3002286"><ele>1045.0</ele><time>2026-05-03T08:44:31.205Z</time></trkpt><trkpt lat="46.2281231" lon="8.300219"><ele>1045.0</ele><time>2026-05-03T08:44:34.206Z</time></trkpt><trkpt lat="46.2281885" lon="8.3001842"><ele>1045.0</ele><time>2026-05-03T08:44:37.199Z</time></trkpt><trkpt lat="46.2282713" lon="8.3001765"><ele>1045.0</ele><time>2026-05-03T08:44:41.199Z</time></trkpt><trkpt lat="46.2283519" lon="8.3001714"><ele>1045.0</ele><time>2026-05-03T08:44:45.206Z</time></trkpt><trkpt lat="46.228434" lon="8.3001362"><ele>1045.0</ele><time>2026-05-03T08:44:49.2Z</time></trkpt><trkpt lat="46.228516" lon="8.3001144"><ele>1045.0</ele><time>2026-05-03T08:44:53.197Z</time></trkpt><trkpt lat="46.228585" lon="8.3000721"><ele>1045.0</ele><time>2026-05-03T08:44:56.201Z</time></trkpt><trkpt lat="46.2286552" lon="8.3000472"><ele>1045.0</ele><time>2026-05-03T08:45:00.174Z</time></trkpt><trkpt lat="46.2287159" lon="8.3000178"><ele>1045.0</ele><time>2026-05-03T08:45:03.17Z</time></trkpt><trkpt lat="46.2287802" lon="8.2999704"><ele>1045.0</ele><time>2026-05-03T08:45:06.168Z</time></trkpt><trkpt lat="46.228856" lon="8.2999507"><ele>1045.0</ele><time>2026-05-03T08:45:10.163Z</time></trkpt><trkpt lat="46.2289221" lon="8.2999752"><ele>1045.0</ele><time>2026-05-03T08:45:13.173Z</time></trkpt><trkpt lat="46.2289948" lon="8.2999588"><ele>1045.0</ele><time>2026-05-03T08:45:17.168Z</time></trkpt><trkpt lat="46.2290704" lon="8.2999627"><ele>1045.0</ele><time>2026-05-03T08:45:21.176Z</time></trkpt><trkpt lat="46.2291361" lon="8.2999706"><ele>1045.0</ele><time>2026-05-03T08:45:24.181Z</time></trkpt><trkpt lat="46.2292139" lon="8.2999566"><ele>1045.857142857143</ele><time>2026-05-03T08:45:28.165Z</time></trkpt><trkpt lat="46.2292768" lon="8.299984"><ele>1046.7142857142856</ele><time>2026-05-03T08:45:32.164Z</time></trkpt><trkpt lat="46.2293456" lon="8.2999757"><ele>1047.5714285714284</ele><time>2026-05-03T08:45:36.17Z</time></trkpt><trkpt lat="46.229424" lon="8.2999676"><ele>1048.4285714285713</ele><time>2026-05-03T08:45:40.165Z</time></trkpt><trkpt lat="46.2295005" lon="8.2999862"><ele>1049.2857142857142</ele><time>2026-05-03T08:45:43.169Z</time></trkpt><trkpt lat="46.2295775" lon="8.2999795"><ele>1050.142857142857</ele><time>2026-05-03T08:45:46.16Z</time></trkpt><trkpt lat="46.2296408" lon="8.2999177"><ele>1051.0</ele><time>2026-05-03T08:45:49.165Z</time></trkpt><trkpt lat="46.2296968" lon="8.2998413"><ele>1051.8333333333333</ele><time>2026-05-03T08:45:52.161Z</time></trkpt><trkpt lat="46.2297369" lon="8.2997257"><ele>1052.6666666666665</ele><time>2026-05-03T08:45:55.161Z</time></trkpt><trkpt lat="46.2297566" lon="8.2996372"><ele>1053.5</ele><time>2026-05-03T08:45:57.161Z</time></trkpt><trkpt lat="46.2297907" lon="8.2995151"><ele>1054.3333333333333</ele><time>2026-05-03T08:46:00.163Z</time></trkpt><trkpt lat="46.2298156" lon="8.2994173"><ele>1055.1666666666667</ele><time>2026-05-03T08:46:03.166Z</time></trkpt><trkpt lat="46.229854" lon="8.2993173"><ele>1056.0</ele><time>2026-05-03T08:46:07.164Z</time></trkpt><trkpt lat="46.2298967" lon="8.2992179"><ele>1057.0</ele><time>2026-05-03T08:46:11.165Z</time></trkpt><trkpt lat="46.2299179" lon="8.2991035"><ele>1058.0</ele><time>2026-05-03T08:46:15.172Z</time></trkpt><trkpt lat="46.2299807" lon="8.2990362"><ele>1059.0</ele><time>2026-05-03T08:46:19.165Z</time></trkpt><trkpt lat="46.2300379" lon="8.2989581"><ele>1060.0</ele><time>2026-05-03T08:46:22.165Z</time></trkpt><trkpt lat="46.2300798" lon="8.2988812"><ele>1061.0</ele><time>2026-05-03T08:46:25.159Z</time></trkpt><trkpt lat="46.2301379" lon="8.2987873"><ele>1062.0</ele><time>2026-05-03T08:46:29.151Z</time></trkpt><trkpt lat="46.2301912" lon="8.2987284"><ele>1063.6</ele><time>2026-05-03T08:46:33.152Z</time></trkpt><trkpt lat="46.2302506" lon="8.2985319"><ele>1065.2</ele><time>2026-05-03T08:46:36.132Z</time></trkpt><trkpt lat="46.2302775" lon="8.2983879"><ele>1066.8</ele><time>2026-05-03T08:46:38.148Z</time></trkpt><trkpt lat="46.230346" lon="8.2983924"><ele>1068.4</ele><time>2026-05-03T08:46:45.17Z</time></trkpt><trkpt lat="46.2304078" lon="8.2983155"><ele>1070.0</ele><time>2026-05-03T08:46:50.163Z</time></trkpt><trkpt lat="46.230453" lon="8.2982252"><ele>1070.0</ele><time>2026-05-03T08:46:54.171Z</time></trkpt><trkpt lat="46.2305005" lon="8.2981566"><ele>1070.0</ele><time>2026-05-03T08:46:57.171Z</time></trkpt><trkpt lat="46.2305493" lon="8.2980703"><ele>1070.0</ele><time>2026-05-03T08:47:01.157Z</time></trkpt><trkpt lat="46.2306196" lon="8.2980148"><ele>1070.0</ele><time>2026-05-03T08:47:05.166Z</time></trkpt><trkpt lat="46.230687" lon="8.2979588"><ele>1070.0</ele><time>2026-05-03T08:47:09.164Z</time></trkpt><trkpt lat="46.2307452" lon="8.2979177"><ele>1070.0</ele><time>2026-05-03T08:47:13.161Z</time></trkpt><trkpt lat="46.2308131" lon="8.2978595"><ele>1070.0</ele><time>2026-05-03T08:47:17.165Z</time></trkpt><trkpt lat="46.2308676" lon="8.2978008"><ele>1071.4285714285713</ele><time>2026-05-03T08:47:20.161Z</time></trkpt><trkpt lat="46.2309174" lon="8.2977448"><ele>1072.857142857143</ele><time>2026-05-03T08:47:23.165Z</time></trkpt><trkpt lat="46.23098" lon="8.2976851"><ele>1074.2857142857142</ele><time>2026-05-03T08:47:27.164Z</time></trkpt><trkpt lat="46.2310343" lon="8.2976354"><ele>1075.7142857142858</ele><time>2026-05-03T08:47:30.159Z</time></trkpt><trkpt lat="46.2310861" lon="8.2975811"><ele>1077.142857142857</ele><time>2026-05-03T08:47:33.161Z</time></trkpt><trkpt lat="46.2311465" lon="8.297519"><ele>1078.5714285714284</ele><time>2026-05-03T08:47:37.158Z</time></trkpt><trkpt lat="46.2312167" lon="8.2974588"><ele>1080.0</ele><time>2026-05-03T08:47:41.166Z</time></trkpt><trkpt lat="46.2312822" lon="8.2974019"><ele>1080.0</ele><time>2026-05-03T08:47:45.17Z</time></trkpt><trkpt lat="46.2313492" lon="8.297341"><ele>1080.0</ele><time>2026-05-03T08:47:49.161Z</time></trkpt><trkpt lat="46.2314122" lon="8.2972955"><ele>1080.0</ele><time>2026-05-03T08:47:53.169Z</time></trkpt><trkpt lat="46.2314854" lon="8.297329"><ele>1080.0</ele><time>2026-05-03T08:47:57.162Z</time></trkpt><trkpt lat="46.2315493" lon="8.2973088"><ele>1080.0</ele><time>2026-05-03T08:48:00.186Z</time></trkpt><trkpt lat="46.2316218" lon="8.2973071"><ele>1080.0</ele><time>2026-05-03T08:48:03.166Z</time></trkpt><trkpt lat="46.2316848" lon="8.2973276"><ele>1080.0</ele><time>2026-05-03T08:48:06.167Z</time></trkpt><trkpt lat="46.2317522" lon="8.2973076"><ele>1082.2857142857142</ele><time>2026-05-03T08:48:09.16Z</time></trkpt><trkpt lat="46.231801" lon="8.2972314"><ele>1084.5714285714284</ele><time>2026-05-03T08:48:12.163Z</time></trkpt><trkpt lat="46.2318233" lon="8.2971419"><ele>1086.857142857143</ele><time>2026-05-03T08:48:14.16Z</time></trkpt><trkpt lat="46.2317897" lon="8.2970417"><ele>1089.142857142857</ele><time>2026-05-03T08:48:18.157Z</time></trkpt><trkpt lat="46.2317195" lon="8.2969677"><ele>1091.4285714285716</ele><time>2026-05-03T08:48:21.153Z</time></trkpt><trkpt lat="46.2316466" lon="8.2969212"><ele>1093.7142857142858</ele><time>2026-05-03T08:48:24.157Z</time></trkpt><trkpt lat="46.2315814" lon="8.2968956"><ele>1096.0</ele><time>2026-05-03T08:48:27.158Z</time></trkpt><trkpt lat="46.2315236" lon="8.2968478"><ele>1095.5</ele><time>2026-05-03T08:48:30.155Z</time></trkpt><trkpt lat="46.2314674" lon="8.2967839"><ele>1095.0</ele><time>2026-05-03T08:48:33.153Z</time></trkpt><trkpt lat="46.2313993" lon="8.2967215"><ele>1094.5</ele><time>2026-05-03T08:48:37.147Z</time></trkpt><trkpt lat="46.2313281" lon="8.2966715"><ele>1094.0</ele><time>2026-05-03T08:48:41.153Z</time></trkpt><trkpt lat="46.2312589" lon="8.2966662"><ele>1093.5</ele><time>2026-05-03T08:48:44.14Z</time></trkpt><trkpt lat="46.2311883" lon="8.2966026"><ele>1093.0</ele><time>2026-05-03T08:48:48.147Z</time></trkpt><trkpt lat="46.231135" lon="8.2965363"><ele>1093.0</ele><time>2026-05-03T08:48:51.132Z</time></trkpt><trkpt lat="46.2310559" lon="8.2965207"><ele>1093.0</ele><time>2026-05-03T08:48:54.138Z</time></trkpt><trkpt lat="46.2309744" lon="8.296449"><ele>1093.0</ele><time>2026-05-03T08:48:57.135Z</time></trkpt><trkpt lat="46.2309316" lon="8.2963623"><ele>1093.0</ele><time>2026-05-03T08:49:00.148Z</time></trkpt><trkpt lat="46.2309171" lon="8.2962692"><ele>1093.0</ele><time>2026-05-03T08:49:03.159Z</time></trkpt><trkpt lat="46.2309158" lon="8.2961515"><ele>1093.0</ele><time>2026-05-03T08:49:08.159Z</time></trkpt><trkpt lat="46.2308847" lon="8.2960457"><ele>1095.0</ele><time>2026-05-03T08:49:12.162Z</time></trkpt><trkpt lat="46.2308302" lon="8.2959622"><ele>1097.0</ele><time>2026-05-03T08:49:16.161Z</time></trkpt><trkpt lat="46.2307894" lon="8.2958891"><ele>1099.0</ele><time>2026-05-03T08:49:19.159Z</time></trkpt><trkpt lat="46.2307439" lon="8.2958051"><ele>1101.0</ele><time>2026-05-03T08:49:23.156Z</time></trkpt><trkpt lat="46.2306758" lon="8.2957324"><ele>1103.0</ele><time>2026-05-03T08:49:27.153Z</time></trkpt><trkpt lat="46.2306212" lon="8.295676"><ele>1105.0</ele><time>2026-05-03T08:49:30.16Z</time></trkpt><trkpt lat="46.230556" lon="8.2956148"><ele>1107.0</ele><time>2026-05-03T08:49:33.166Z</time></trkpt><trkpt lat="46.2304865" lon="8.2955518"><ele>1107.0</ele><time>2026-05-03T08:49:36.151Z</time></trkpt><trkpt lat="46.2304238" lon="8.2954829"><ele>1107.0</ele><time>2026-05-03T08:49:39.149Z</time></trkpt><trkpt lat="46.2304931" lon="8.2954718"><ele>1107.0</ele><time>2026-05-03T08:49:45.153Z</time></trkpt><trkpt lat="46.2305655" lon="8.2955312"><ele>1107.0</ele><time>2026-05-03T08:49:50.156Z</time></trkpt><trkpt lat="46.2305906" lon="8.295627"><ele>1107.0</ele><time>2026-05-03T08:49:54.158Z</time></trkpt><trkpt lat="46.2306584" lon="8.2956972"><ele>1107.0</ele><time>2026-05-03T08:49:58.161Z</time></trkpt><trkpt lat="46.2307235" lon="8.29576"><ele>1107.4285714285716</ele><time>2026-05-03T08:50:02.17Z</time></trkpt><trkpt lat="46.2307847" lon="8.2957978"><ele>1107.857142857143</ele><time>2026-05-03T08:50:05.167Z</time></trkpt><trkpt lat="46.2308624" lon="8.295781"><ele>1108.2857142857142</ele><time>2026-05-03T08:50:09.167Z</time></trkpt><trkpt lat="46.2309291" lon="8.2957805"><ele>1108.7142857142858</ele><time>2026-05-03T08:50:12.166Z</time></trkpt><trkpt lat="46.231002" lon="8.2957829"><ele>1109.142857142857</ele><time>2026-05-03T08:50:16.169Z</time></trkpt><trkpt lat="46.2310732" lon="8.2957569"><ele>1109.5714285714287</ele><time>2026-05-03T08:50:20.163Z</time></trkpt><trkpt lat="46.2311366" lon="8.2957679"><ele>1110.0</ele><time>2026-05-03T08:50:23.168Z</time></trkpt><trkpt lat="46.2312223" lon="8.2957763"><ele>1110.0</ele><time>2026-05-03T08:50:27.166Z</time></trkpt><trkpt lat="46.2312883" lon="8.2957832"><ele>1110.0</ele><time>2026-05-03T08:50:30.17Z</time></trkpt><trkpt lat="46.2313729" lon="8.295799"><ele>1110.0</ele><time>2026-05-03T08:50:34.173Z</time></trkpt><trkpt lat="46.2314494" lon="8.2957883"><ele>1110.0</ele><time>2026-05-03T08:50:37.157Z</time></trkpt><trkpt lat="46.2315232" lon="8.2957124"><ele>1110.0</ele><time>2026-05-03T08:50:40.164Z</time></trkpt><trkpt lat="46.2315364" lon="8.2956171"><ele>1110.0</ele><time>2026-05-03T08:50:42.166Z</time></trkpt><trkpt lat="46.231533" lon="8.2955086"><ele>1112.857142857143</ele><time>2026-05-03T08:50:44.171Z</time></trkpt><trkpt lat="46.2314859" lon="8.29543"><ele>1115.7142857142858</ele><time>2026-05-03T08:50:47.161Z</time></trkpt><trkpt lat="46.2314023" lon="8.2953879"><ele>1118.5714285714284</ele><time>2026-05-03T08:50:50.166Z</time></trkpt><trkpt lat="46.2313393" lon="8.2953684"><ele>1121.4285714285716</ele><time>2026-05-03T08:50:52.16Z</time></trkpt><trkpt lat="46.2312732" lon="8.2953249"><ele>1124.2857142857142</ele><time>2026-05-03T08:50:56.158Z</time></trkpt><trkpt lat="46.2311957" lon="8.2952737"><ele>1127.142857142857</ele><time>2026-05-03T08:51:00.158Z</time></trkpt><trkpt lat="46.2311351" lon="8.2952482"><ele>1130.0</ele><time>2026-05-03T08:51:03.16Z</time></trkpt><trkpt lat="46.2310804" lon="8.2952017"><ele>1129.9999999999998</ele><time>2026-05-03T08:51:06.165Z</time></trkpt><trkpt lat="46.231009" lon="8.2951544"><ele>1130.0</ele><time>2026-05-03T08:51:10.157Z</time></trkpt><trkpt lat="46.2309503" lon="8.295108"><ele>1130.0</ele><time>2026-05-03T08:51:13.164Z</time></trkpt><trkpt lat="46.2308888" lon="8.295083"><ele>1130.0</ele><time>2026-05-03T08:51:16.166Z</time></trkpt><trkpt lat="46.23083" lon="8.2950377"><ele>1130.0</ele><time>2026-05-03T08:51:19.16Z</time></trkpt><trkpt lat="46.2307514" lon="8.2950053"><ele>1129.9999999999998</ele><time>2026-05-03T08:51:23.158Z</time></trkpt><trkpt lat="46.2306736" lon="8.2949705"><ele>1130.0</ele><time>2026-05-03T08:51:27.157Z</time></trkpt><trkpt lat="46.2305963" lon="8.2949352"><ele>1130.3333333333335</ele><time>2026-05-03T08:51:31.15Z</time></trkpt><trkpt lat="46.2305129" lon="8.2949166"><ele>1130.6666666666667</ele><time>2026-05-03T08:51:35.152Z</time></trkpt><trkpt lat="46.2304343" lon="8.2948975"><ele>1131.0</ele><time>2026-05-03T08:51:39.154Z</time></trkpt><trkpt lat="46.2303717" lon="8.2948784"><ele>1131.3333333333333</ele><time>2026-05-03T08:51:42.157Z</time></trkpt><trkpt lat="46.2302932" lon="8.294882"><ele>1131.6666666666665</ele><time>2026-05-03T08:51:46.159Z</time></trkpt><trkpt lat="46.2302304" lon="8.2948673"><ele>1132.0</ele><time>2026-05-03T08:51:49.166Z</time></trkpt><trkpt lat="46.2301486" lon="8.2948377"><ele>1132.0</ele><time>2026-05-03T08:51:53.156Z</time></trkpt><trkpt lat="46.2300752" lon="8.2948332"><ele>1132.0</ele><time>2026-05-03T08:51:56.161Z</time></trkpt><trkpt lat="46.2300117" lon="8.2948187"><ele>1132.0</ele><time>2026-05-03T08:51:59.162Z</time></trkpt><trkpt lat="46.2299414" lon="8.2948085"><ele>1132.0</ele><time>2026-05-03T08:52:02.154Z</time></trkpt><trkpt lat="46.2298581" lon="8.294781"><ele>1132.0</ele><time>2026-05-03T08:52:06.159Z</time></trkpt><trkpt lat="46.2297938" lon="8.2947339"><ele>1132.0</ele><time>2026-05-03T08:52:10.156Z</time></trkpt><trkpt lat="46.2297325" lon="8.2946776"><ele>1132.0</ele><time>2026-05-03T08:52:14.156Z</time></trkpt><trkpt lat="46.229676" lon="8.2946267"><ele>1135.3333333333333</ele><time>2026-05-03T08:52:17.156Z</time></trkpt><trkpt lat="46.2296303" lon="8.2945449"><ele>1138.6666666666665</ele><time>2026-05-03T08:52:20.163Z</time></trkpt><trkpt lat="46.2295637" lon="8.294477"><ele>1142.0</ele><time>2026-05-03T08:52:24.16Z</time></trkpt><trkpt lat="46.2295059" lon="8.294402"><ele>1145.3333333333333</ele><time>2026-05-03T08:52:28.154Z</time></trkpt><trkpt lat="46.2294404" lon="8.2943331"><ele>1148.6666666666667</ele><time>2026-05-03T08:52:32.148Z</time></trkpt><trkpt lat="46.2293749" lon="8.2942924"><ele>1152.0</ele><time>2026-05-03T08:52:36.146Z</time></trkpt><trkpt lat="46.2293283" lon="8.294214"><ele>1152.0</ele><time>2026-05-03T08:52:40.15Z</time></trkpt><trkpt lat="46.229286" lon="8.2941083"><ele>1152.0</ele><time>2026-05-03T08:52:44.151Z</time></trkpt><trkpt lat="46.2292503" lon="8.2940243"><ele>1152.0</ele><time>2026-05-03T08:52:47.154Z</time></trkpt><trkpt lat="46.2291912" lon="8.2939394"><ele>1152.0</ele><time>2026-05-03T08:52:50.147Z</time></trkpt><trkpt lat="46.2291275" lon="8.2938746"><ele>1152.0</ele><time>2026-05-03T08:52:53.148Z</time></trkpt><trkpt lat="46.229051" lon="8.2938151"><ele>1152.0</ele><time>2026-05-03T08:52:56.151Z</time></trkpt><trkpt lat="46.2289839" lon="8.2937838"><ele>1153.857142857143</ele><time>2026-05-03T08:52:59.149Z</time></trkpt><trkpt lat="46.2289621" lon="8.2936937"><ele>1155.7142857142858</ele><time>2026-05-03T08:53:05.151Z</time></trkpt><trkpt lat="46.2290258" lon="8.2937223"><ele>1157.5714285714284</ele><time>2026-05-03T08:53:12.163Z</time></trkpt><trkpt lat="46.2291073" lon="8.2937276"><ele>1159.4285714285716</ele><time>2026-05-03T08:53:16.159Z</time></trkpt><trkpt lat="46.2291672" lon="8.2936468"><ele>1161.2857142857142</ele><time>2026-05-03T08:53:20.158Z</time></trkpt><trkpt lat="46.2292069" lon="8.2935505"><ele>1163.142857142857</ele><time>2026-05-03T08:53:24.148Z</time></trkpt><trkpt lat="46.2292708" lon="8.2935088"><ele>1165.0</ele><time>2026-05-03T08:53:28.161Z</time></trkpt><trkpt lat="46.2293503" lon="8.2934888"><ele>1165.0</ele><time>2026-05-03T08:53:33.165Z</time></trkpt><trkpt lat="46.2294243" lon="8.2934527"><ele>1165.0</ele><time>2026-05-03T08:53:38.147Z</time></trkpt><trkpt lat="46.2295056" lon="8.2934356"><ele>1165.0</ele><time>2026-05-03T08:53:41.167Z</time></trkpt><trkpt lat="46.2295907" lon="8.2934052"><ele>1165.0</ele><time>2026-05-03T08:53:45.173Z</time></trkpt><trkpt lat="46.2296516" lon="8.2933409"><ele>1165.0</ele><time>2026-05-03T08:53:48.175Z</time></trkpt><trkpt lat="46.2297128" lon="8.2932971"><ele>1165.0</ele><time>2026-05-03T08:53:51.173Z</time></trkpt><trkpt lat="46.2297783" lon="8.2932544"><ele>1165.142857142857</ele><time>2026-05-03T08:53:55.163Z</time></trkpt><trkpt lat="46.2298542" lon="8.2932423"><ele>1165.2857142857142</ele><time>2026-05-03T08:53:59.16Z</time></trkpt><trkpt lat="46.2299269" lon="8.2932467"><ele>1165.4285714285716</ele><time>2026-05-03T08:54:02.158Z</time></trkpt><trkpt lat="46.2299867" lon="8.2932834"><ele>1165.5714285714284</ele><time>2026-05-03T08:54:05.164Z</time></trkpt><trkpt lat="46.2300593" lon="8.2932897"><ele>1165.7142857142858</ele><time>2026-05-03T08:54:09.168Z</time></trkpt><trkpt lat="46.2301358" lon="8.2932857"><ele>1165.857142857143</ele><time>2026-05-03T08:54:13.162Z</time></trkpt><trkpt lat="46.2301927" lon="8.2932281"><ele>1166.0</ele><time>2026-05-03T08:54:16.156Z</time></trkpt><trkpt lat="46.2302383" lon="8.2931442"><ele>1169.3333333333335</ele><time>2026-05-03T08:54:19.165Z</time></trkpt><trkpt lat="46.23029" lon="8.293054"><ele>1172.6666666666667</ele><time>2026-05-03T08:54:22.159Z</time></trkpt><trkpt lat="46.2303419" lon="8.2929642"><ele>1176.0</ele><time>2026-05-03T08:54:26.162Z</time></trkpt><trkpt lat="46.2304071" lon="8.2929244"><ele>1179.3333333333333</ele><time>2026-05-03T08:54:30.161Z</time></trkpt><trkpt lat="46.2304797" lon="8.29292"><ele>1182.6666666666665</ele><time>2026-05-03T08:54:34.167Z</time></trkpt><trkpt lat="46.23055" lon="8.2929022"><ele>1186.0</ele><time>2026-05-03T08:54:38.16Z</time></trkpt><trkpt lat="46.2306242" lon="8.2928758"><ele>1186.2857142857142</ele><time>2026-05-03T08:54:42.16Z</time></trkpt><trkpt lat="46.2306958" lon="8.2928663"><ele>1186.5714285714284</ele><time>2026-05-03T08:54:46.165Z</time></trkpt><trkpt lat="46.2307582" lon="8.2928464"><ele>1186.857142857143</ele><time>2026-05-03T08:54:50.17Z</time></trkpt><trkpt lat="46.2308207" lon="8.2928205"><ele>1187.142857142857</ele><time>2026-05-03T08:54:54.17Z</time></trkpt><trkpt lat="46.2308849" lon="8.2927739"><ele>1187.4285714285716</ele><time>2026-05-03T08:54:58.16Z</time></trkpt><trkpt lat="46.2309581" lon="8.2927392"><ele>1187.7142857142858</ele><time>2026-05-03T08:55:01.173Z</time></trkpt><trkpt lat="46.2310221" lon="8.2926858"><ele>1188.0</ele><time>2026-05-03T08:55:04.17Z</time></trkpt><trkpt lat="46.2310776" lon="8.2926241"><ele>1188.0</ele><time>2026-05-03T08:55:07.172Z</time></trkpt><trkpt lat="46.2311459" lon="8.2925961"><ele>1188.0</ele><time>2026-05-03T08:55:10.172Z</time></trkpt><trkpt lat="46.2312252" lon="8.2925731"><ele>1188.0</ele><time>2026-05-03T08:55:13.165Z</time></trkpt><trkpt lat="46.2312981" lon="8.292558"><ele>1188.0</ele><time>2026-05-03T08:55:17.18Z</time></trkpt><trkpt lat="46.231373" lon="8.2925044"><ele>1188.0</ele><time>2026-05-03T08:55:21.168Z</time></trkpt><trkpt lat="46.2314429" lon="8.2924574"><ele>1188.0</ele><time>2026-05-03T08:55:25.16Z</time></trkpt><trkpt lat="46.2315172" lon="8.2924569"><ele>1188.142857142857</ele><time>2026-05-03T08:55:28.159Z</time></trkpt><trkpt lat="46.2315896" lon="8.2924677"><ele>1188.2857142857144</ele><time>2026-05-03T08:55:31.178Z</time></trkpt><trkpt lat="46.2316571" lon="8.2924871"><ele>1188.4285714285716</ele><time>2026-05-03T08:55:34.167Z</time></trkpt><trkpt lat="46.2317289" lon="8.2924882"><ele>1188.5714285714287</ele><time>2026-05-03T08:55:38.169Z</time></trkpt><trkpt lat="46.2317919" lon="8.2924771"><ele>1188.7142857142858</ele><time>2026-05-03T08:55:41.17Z</time></trkpt><trkpt lat="46.2318754" lon="8.2924733"><ele>1188.857142857143</ele><time>2026-05-03T08:55:45.167Z</time></trkpt><trkpt lat="46.2319544" lon="8.292457"><ele>1189.0</ele><time>2026-05-03T08:55:48.169Z</time></trkpt><trkpt lat="46.2320195" lon="8.2924673"><ele>1189.0</ele><time>2026-05-03T08:55:51.171Z</time></trkpt><trkpt lat="46.2320894" lon="8.2924422"><ele>1189.0</ele><time>2026-05-03T08:55:54.175Z</time></trkpt><trkpt lat="46.2321603" lon="8.292458"><ele>1189.0</ele><time>2026-05-03T08:55:57.173Z</time></trkpt><trkpt lat="46.2322386" lon="8.2924733"><ele>1189.0</ele><time>2026-05-03T08:56:01.171Z</time></trkpt><trkpt lat="46.2323159" lon="8.2924688"><ele>1189.0</ele><time>2026-05-03T08:56:05.177Z</time></trkpt><trkpt lat="46.2323962" lon="8.2924332"><ele>1189.0</ele><time>2026-05-03T08:56:09.174Z</time></trkpt><trkpt lat="46.2324753" lon="8.292394"><ele>1190.6666666666665</ele><time>2026-05-03T08:56:13.172Z</time></trkpt><trkpt lat="46.2325391" lon="8.2923563"><ele>1192.3333333333333</ele><time>2026-05-03T08:56:16.168Z</time></trkpt><trkpt lat="46.2326004" lon="8.2923024"><ele>1194.0</ele><time>2026-05-03T08:56:19.178Z</time></trkpt><trkpt lat="46.2326391" lon="8.292193"><ele>1195.6666666666667</ele><time>2026-05-03T08:56:22.172Z</time></trkpt><trkpt lat="46.232651" lon="8.292092"><ele>1197.3333333333335</ele><time>2026-05-03T08:56:24.17Z</time></trkpt><trkpt lat="46.232616" lon="8.2919861"><ele>1199.0</ele><time>2026-05-03T08:56:27.158Z</time></trkpt><trkpt lat="46.2325286" lon="8.2919371"><ele>1199.4285714285716</ele><time>2026-05-03T08:56:30.161Z</time></trkpt><trkpt lat="46.2324659" lon="8.2919034"><ele>1199.8571428571427</ele><time>2026-05-03T08:56:32.152Z</time></trkpt><trkpt lat="46.2324148" lon="8.2918363"><ele>1200.2857142857142</ele><time>2026-05-03T08:56:35.155Z</time></trkpt><trkpt lat="46.2323734" lon="8.2917575"><ele>1200.7142857142858</ele><time>2026-05-03T08:56:38.159Z</time></trkpt><trkpt lat="46.2322964" lon="8.2917093"><ele>1201.1428571428573</ele><time>2026-05-03T08:56:42.152Z</time></trkpt><trkpt lat="46.2322276" lon="8.2917026"><ele>1201.5714285714284</ele><time>2026-05-03T08:56:44.155Z</time></trkpt><trkpt lat="46.2321619" lon="8.2917077"><ele>1202.0</ele><time>2026-05-03T08:56:47.163Z</time></trkpt><trkpt lat="46.2320998" lon="8.2916788"><ele>1202.7142857142856</ele><time>2026-05-03T08:56:50.154Z</time></trkpt><trkpt lat="46.2320784" lon="8.2915867"><ele>1203.4285714285716</ele><time>2026-05-03T08:56:55.156Z</time></trkpt><trkpt lat="46.2321474" lon="8.2915482"><ele>1204.142857142857</ele><time>2026-05-03T08:57:00.163Z</time></trkpt><trkpt lat="46.2321963" lon="8.2914865"><ele>1204.8571428571427</ele><time>2026-05-03T08:57:03.174Z</time></trkpt><trkpt lat="46.2322445" lon="8.2914228"><ele>1205.5714285714284</ele><time>2026-05-03T08:57:06.174Z</time></trkpt><trkpt lat="46.2323046" lon="8.2913453"><ele>1206.2857142857142</ele><time>2026-05-03T08:57:10.174Z</time></trkpt><trkpt lat="46.2323488" lon="8.2912417"><ele>1207.0</ele><time>2026-05-03T08:57:15.175Z</time></trkpt><trkpt lat="46.2323996" lon="8.2911584"><ele>1207.5714285714284</ele><time>2026-05-03T08:57:19.173Z</time></trkpt><trkpt lat="46.2324193" lon="8.2910572"><ele>1208.142857142857</ele><time>2026-05-03T08:57:22.16Z</time></trkpt><trkpt lat="46.2324376" lon="8.29095"><ele>1208.7142857142858</ele><time>2026-05-03T08:57:25.159Z</time></trkpt><trkpt lat="46.232442" lon="8.2908535"><ele>1209.2857142857142</ele><time>2026-05-03T08:57:27.147Z</time></trkpt><trkpt lat="46.2324414" lon="8.2907444"><ele>1209.857142857143</ele><time>2026-05-03T08:57:30.133Z</time></trkpt><trkpt lat="46.2324424" lon="8.2906332"><ele>1210.4285714285713</ele><time>2026-05-03T08:57:32.134Z</time></trkpt><trkpt lat="46.2324475" lon="8.2905374"><ele>1211.0</ele><time>2026-05-03T08:57:33.135Z</time></trkpt><trkpt lat="46.2324376" lon="8.2903882"><ele>1212.0</ele><time>2026-05-03T08:57:35.136Z</time></trkpt><trkpt lat="46.2324942" lon="8.290329"><ele>1213.0</ele><time>2026-05-03T08:57:38.148Z</time></trkpt><trkpt lat="46.2325499" lon="8.2903722"><ele>1214.0</ele><time>2026-05-03T08:57:41.152Z</time></trkpt><trkpt lat="46.232573" lon="8.2902687"><ele>1215.0</ele><time>2026-05-03T08:57:48.157Z</time></trkpt><trkpt lat="46.232503" lon="8.2902"><ele>1216.0</ele><time>2026-05-03T08:57:51.139Z</time></trkpt><trkpt lat="46.2324239" lon="8.2901984"><ele>1217.0</ele><time>2026-05-03T08:57:53.128Z</time></trkpt><trkpt lat="46.2323499" lon="8.2902379"><ele>1219.0</ele><time>2026-05-03T08:57:55.136Z</time></trkpt><trkpt lat="46.2322839" lon="8.2902476"><ele>1221.0</ele><time>2026-05-03T08:57:58.138Z</time></trkpt><trkpt lat="46.232193" lon="8.290281"><ele>1223.0</ele><time>2026-05-03T08:58:01.133Z</time></trkpt><trkpt lat="46.2321217" lon="8.2902615"><ele>1225.0</ele><time>2026-05-03T08:58:04.142Z</time></trkpt><trkpt lat="46.2320365" lon="8.2902794"><ele>1227.0</ele><time>2026-05-03T08:58:07.136Z</time></trkpt><trkpt lat="46.2319747" lon="8.2902593"><ele>1229.0</ele><time>2026-05-03T08:58:09.132Z</time></trkpt><trkpt lat="46.2318981" lon="8.2902068"><ele>1229.0</ele><time>2026-05-03T08:58:13.137Z</time></trkpt><trkpt lat="46.2318367" lon="8.2901325"><ele>1229.0</ele><time>2026-05-03T08:58:16.145Z</time></trkpt><trkpt lat="46.2317594" lon="8.2900682"><ele>1229.0</ele><time>2026-05-03T08:58:19.144Z</time></trkpt><trkpt lat="46.231699" lon="8.2900272"><ele>1229.0</ele><time>2026-05-03T08:58:22.15Z</time></trkpt><trkpt lat="46.2316387" lon="8.2899522"><ele>1229.0</ele><time>2026-05-03T08:58:26.147Z</time></trkpt><trkpt lat="46.2315746" lon="8.2899449"><ele>1229.0</ele><time>2026-05-03T08:58:28.14Z</time></trkpt><trkpt lat="46.2315037" lon="8.2899286"><ele>1229.8333333333335</ele><time>2026-05-03T08:58:31.137Z</time></trkpt><trkpt lat="46.2314275" lon="8.2899026"><ele>1230.6666666666667</ele><time>2026-05-03T08:58:34.132Z</time></trkpt><trkpt lat="46.23136" lon="8.2898513"><ele>1231.5</ele><time>2026-05-03T08:58:38.128Z</time></trkpt><trkpt lat="46.2312853" lon="8.2898398"><ele>1232.3333333333333</ele><time>2026-05-03T08:58:41.131Z</time></trkpt><trkpt lat="46.2312109" lon="8.2899287"><ele>1233.1666666666665</ele><time>2026-05-03T08:58:46.123Z</time></trkpt><trkpt lat="46.231149" lon="8.2899744"><ele>1234.0</ele><time>2026-05-03T08:58:47.119Z</time></trkpt><trkpt lat="46.2310582" lon="8.2900368"><ele>1234.0</ele><time>2026-05-03T08:58:48.143Z</time></trkpt><trkpt lat="46.2309711" lon="8.2900834"><ele>1234.0</ele><time>2026-05-03T08:58:49.13Z</time></trkpt><trkpt lat="46.2308939" lon="8.2899861"><ele>1234.0</ele><time>2026-05-03T08:58:53.131Z</time></trkpt><trkpt lat="46.2309031" lon="8.2898647"><ele>1234.0</ele><time>2026-05-03T08:59:03.138Z</time></trkpt><trkpt lat="46.2308609" lon="8.2897431"><ele>1234.0</ele><time>2026-05-03T09:00:05.124Z</time></trkpt><trkpt lat="46.2308715" lon="8.289581"><ele>1235.5</ele><time>2026-05-03T09:00:06.127Z</time></trkpt><trkpt lat="46.2308553" lon="8.2894651"><ele>1237.0</ele><time>2026-05-03T09:00:07.131Z</time></trkpt><trkpt lat="46.2308393" lon="8.2893761"><ele>1238.5</ele><time>2026-05-03T09:00:08.133Z</time></trkpt><trkpt lat="46.2309137" lon="8.2893788"><ele>1240.0</ele><time>2026-05-03T09:00:26.124Z</time></trkpt><trkpt lat="46.230945" lon="8.2894972"><ele>1241.5</ele><time>2026-05-03T09:01:04.154Z</time></trkpt><trkpt lat="46.2309367" lon="8.2895924"><ele>1243.0</ele><time>2026-05-03T09:01:08.132Z</time></trkpt><trkpt lat="46.2309236" lon="8.2894336"><ele>1243.0</ele><time>2026-05-03T09:01:13.087Z</time></trkpt><trkpt lat="46.23047" lon="8.2890236"><ele>1243.0</ele><time>2026-05-03T09:01:18.116Z</time></trkpt><trkpt lat="46.230935" lon="8.289189"><ele>1243.0</ele><time>2026-05-03T09:01:19.135Z</time></trkpt><trkpt lat="46.2310898" lon="8.2894663"><ele>1243.0</ele><time>2026-05-03T09:01:20.152Z</time></trkpt><trkpt lat="46.2311023" lon="8.2895718"><ele>1243.0</ele><time>2026-05-03T09:01:21.136Z</time></trkpt><trkpt lat="46.2310295" lon="8.289672"><ele>1243.0</ele><time>2026-05-03T09:01:22.142Z</time></trkpt><trkpt lat="46.2309334" lon="8.2895943"><ele>1243.0</ele><time>2026-05-03T09:01:23.128Z</time></trkpt><trkpt lat="46.2309592" lon="8.2896799"><ele>1243.0</ele><time>2026-05-03T09:01:53.166Z</time></trkpt><trkpt lat="46.2309105" lon="8.2898187"><ele>1243.0</ele><time>2026-05-03T09:01:55.147Z</time></trkpt><trkpt lat="46.2308858" lon="8.2899127"><ele>1243.0</ele><time>2026-05-03T09:01:56.155Z</time></trkpt><trkpt lat="46.2307682" lon="8.2899771"><ele>1243.0</ele><time>2026-05-03T09:01:59.153Z</time></trkpt><trkpt lat="46.2306514" lon="8.2900088"><ele>1241.0</ele><time>2026-05-03T09:02:01.162Z</time></trkpt><trkpt lat="46.2305825" lon="8.2900055"><ele>1239.0</ele><time>2026-05-03T09:02:02.157Z</time></trkpt><trkpt lat="46.230515" lon="8.2899995"><ele>1237.0</ele><time>2026-05-03T09:02:03.16Z</time></trkpt><trkpt lat="46.2304485" lon="8.2900036"><ele>1235.0</ele><time>2026-05-03T09:02:04.164Z</time></trkpt><trkpt lat="46.2303218" lon="8.2900177"><ele>1233.0</ele><time>2026-05-03T09:02:06.152Z</time></trkpt><trkpt lat="46.2301848" lon="8.2900664"><ele>1233.0</ele><time>2026-05-03T09:02:08.149Z</time></trkpt><trkpt lat="46.2301089" lon="8.2900869"><ele>1233.0</ele><time>2026-05-03T09:02:09.155Z</time></trkpt><trkpt lat="46.2300301" lon="8.2901047"><ele>1233.0</ele><time>2026-05-03T09:02:10.148Z</time></trkpt><trkpt lat="46.2299596" lon="8.2901226"><ele>1233.0</ele><time>2026-05-03T09:02:11.158Z</time></trkpt><trkpt lat="46.2298933" lon="8.2901408"><ele>1233.0</ele><time>2026-05-03T09:02:12.154Z</time></trkpt><trkpt lat="46.2298299" lon="8.2901656"><ele>1233.0</ele><time>2026-05-03T09:02:13.148Z</time></trkpt><trkpt lat="46.2297588" lon="8.2902115"><ele>1233.0</ele><time>2026-05-03T09:02:14.151Z</time></trkpt><trkpt lat="46.229689" lon="8.2902744"><ele>1232.1666666666667</ele><time>2026-05-03T09:02:15.152Z</time></trkpt><trkpt lat="46.2296315" lon="8.2903241"><ele>1231.3333333333333</ele><time>2026-05-03T09:02:16.141Z</time></trkpt><trkpt lat="46.2295726" lon="8.2903653"><ele>1230.5</ele><time>2026-05-03T09:02:17.15Z</time></trkpt><trkpt lat="46.229513" lon="8.2903991"><ele>1229.6666666666665</ele><time>2026-05-03T09:02:18.145Z</time></trkpt><trkpt lat="46.2293931" lon="8.2904077"><ele>1228.8333333333333</ele><time>2026-05-03T09:02:20.153Z</time></trkpt><trkpt lat="46.2292942" lon="8.2904647"><ele>1228.0</ele><time>2026-05-03T09:02:22.153Z</time></trkpt><trkpt lat="46.2292191" lon="8.2906066"><ele>1225.0</ele><time>2026-05-03T09:02:24.179Z</time></trkpt><trkpt lat="46.2291281" lon="8.2907293"><ele>1222.0</ele><time>2026-05-03T09:02:26.16Z</time></trkpt><trkpt lat="46.2290234" lon="8.2907629"><ele>1219.0</ele><time>2026-05-03T09:02:28.148Z</time></trkpt><trkpt lat="46.2289069" lon="8.2907889"><ele>1216.0</ele><time>2026-05-03T09:02:30.151Z</time></trkpt><trkpt lat="46.2288077" lon="8.2908823"><ele>1215.2</ele><time>2026-05-03T09:02:32.146Z</time></trkpt><trkpt lat="46.2287393" lon="8.2910231"><ele>1214.3999999999999</ele><time>2026-05-03T09:02:34.147Z</time></trkpt><trkpt lat="46.2286906" lon="8.2911015"><ele>1213.6</ele><time>2026-05-03T09:02:35.141Z</time></trkpt><trkpt lat="46.2286103" lon="8.2911926"><ele>1212.8</ele><time>2026-05-03T09:02:37.148Z</time></trkpt><trkpt lat="46.2285621" lon="8.2913002"><ele>1212.0</ele><time>2026-05-03T09:02:40.157Z</time></trkpt><trkpt lat="46.2285167" lon="8.2913864"><ele>1210.6666666666667</ele><time>2026-05-03T09:02:42.154Z</time></trkpt><trkpt lat="46.2284494" lon="8.2914736"><ele>1209.3333333333333</ele><time>2026-05-03T09:02:44.159Z</time></trkpt><trkpt lat="46.2283842" lon="8.2915315"><ele>1208.0</ele><time>2026-05-03T09:03:00.175Z</time></trkpt><trkpt lat="46.2283295" lon="8.2914832"><ele>1206.6666666666665</ele><time>2026-05-03T09:03:04.171Z</time></trkpt><trkpt lat="46.2282647" lon="8.2915013"><ele>1205.3333333333333</ele><time>2026-05-03T09:03:06.166Z</time></trkpt><trkpt lat="46.2281979" lon="8.2914323"><ele>1204.0</ele><time>2026-05-03T09:03:09.175Z</time></trkpt><trkpt lat="46.2281241" lon="8.2913562"><ele>1204.0</ele><time>2026-05-03T09:03:11.175Z</time></trkpt><trkpt lat="46.228036" lon="8.2912859"><ele>1204.0</ele><time>2026-05-03T09:03:13.169Z</time></trkpt><trkpt lat="46.2279775" lon="8.2912225"><ele>1204.0</ele><time>2026-05-03T09:03:21.153Z</time></trkpt><trkpt lat="46.2279228" lon="8.2913308"><ele>1204.0</ele><time>2026-05-03T09:03:25.167Z</time></trkpt><trkpt lat="46.2279226" lon="8.2915126"><ele>1204.0</ele><time>2026-05-03T09:03:27.151Z</time></trkpt><trkpt lat="46.2279441" lon="8.2916135"><ele>1202.6000000000001</ele><time>2026-05-03T09:03:28.131Z</time></trkpt><trkpt lat="46.2279715" lon="8.2917284"><ele>1201.2</ele><time>2026-05-03T09:03:29.145Z</time></trkpt><trkpt lat="46.2279904" lon="8.2918355"><ele>1199.8000000000002</ele><time>2026-05-03T09:03:30.146Z</time></trkpt><trkpt lat="46.2280229" lon="8.291963"><ele>1198.4</ele><time>2026-05-03T09:03:31.137Z</time></trkpt><trkpt lat="46.2280884" lon="8.2920439"><ele>1197.0</ele><time>2026-05-03T09:03:32.143Z</time></trkpt><trkpt lat="46.2281955" lon="8.2921895"><ele>1193.8</ele><time>2026-05-03T09:03:34.139Z</time></trkpt><trkpt lat="46.2282633" lon="8.2922645"><ele>1190.6</ele><time>2026-05-03T09:03:35.139Z</time></trkpt><trkpt lat="46.228339" lon="8.2923396"><ele>1187.3999999999999</ele><time>2026-05-03T09:03:36.136Z</time></trkpt><trkpt lat="46.2284248" lon="8.2924271"><ele>1184.2</ele><time>2026-05-03T09:03:37.136Z</time></trkpt><trkpt lat="46.2284981" lon="8.2925176"><ele>1181.0</ele><time>2026-05-03T09:03:38.134Z</time></trkpt><trkpt lat="46.2285726" lon="8.2926038"><ele>1181.0</ele><time>2026-05-03T09:03:39.139Z</time></trkpt><trkpt lat="46.2286471" lon="8.2926939"><ele>1181.0</ele><time>2026-05-03T09:03:40.146Z</time></trkpt><trkpt lat="46.2287042" lon="8.2927939"><ele>1181.0</ele><time>2026-05-03T09:03:41.144Z</time></trkpt><trkpt lat="46.2287561" lon="8.2928685"><ele>1181.0</ele><time>2026-05-03T09:03:42.143Z</time></trkpt><trkpt lat="46.2288038" lon="8.2929611"><ele>1181.0</ele><time>2026-05-03T09:03:43.145Z</time></trkpt><trkpt lat="46.2288509" lon="8.2930463"><ele>1181.0</ele><time>2026-05-03T09:03:44.154Z</time></trkpt><trkpt lat="46.2288996" lon="8.2931263"><ele>1178.5</ele><time>2026-05-03T09:03:45.151Z</time></trkpt><trkpt lat="46.228936" lon="8.2932042"><ele>1176.0</ele><time>2026-05-03T09:03:46.145Z</time></trkpt><trkpt lat="46.22901" lon="8.2933046"><ele>1173.5</ele><time>2026-05-03T09:03:48.155Z</time></trkpt><trkpt lat="46.2290643" lon="8.2933951"><ele>1171.0</ele><time>2026-05-03T09:03:51.154Z</time></trkpt><trkpt lat="46.2291255" lon="8.2934204"><ele>1168.5</ele><time>2026-05-03T09:03:54.157Z</time></trkpt><trkpt lat="46.2291981" lon="8.2934775"><ele>1166.0</ele><time>2026-05-03T09:03:58.157Z</time></trkpt><trkpt lat="46.2292577" lon="8.2935276"><ele>1165.8333333333335</ele><time>2026-05-03T09:04:03.168Z</time></trkpt><trkpt lat="46.2293408" lon="8.2934825"><ele>1165.6666666666667</ele><time>2026-05-03T09:04:06.165Z</time></trkpt><trkpt lat="46.2294107" lon="8.2934282"><ele>1165.5</ele><time>2026-05-03T09:04:09.163Z</time></trkpt><trkpt lat="46.2294702" lon="8.2933868"><ele>1165.3333333333333</ele><time>2026-05-03T09:04:13.168Z</time></trkpt><trkpt lat="46.2295376" lon="8.2933516"><ele>1165.1666666666665</ele><time>2026-05-03T09:04:17.169Z</time></trkpt><trkpt lat="46.229606" lon="8.2933164"><ele>1165.0</ele><time>2026-05-03T09:04:21.17Z</time></trkpt><trkpt lat="46.2296687" lon="8.2932606"><ele>1164.9999999999998</ele><time>2026-05-03T09:04:25.167Z</time></trkpt><trkpt lat="46.2297445" lon="8.2932136"><ele>1165.0</ele><time>2026-05-03T09:04:29.16Z</time></trkpt><trkpt lat="46.2298116" lon="8.293175"><ele>1165.0</ele><time>2026-05-03T09:04:33.167Z</time></trkpt><trkpt lat="46.229884" lon="8.2931919"><ele>1165.0</ele><time>2026-05-03T09:04:37.165Z</time></trkpt><trkpt lat="46.229947" lon="8.2931919"><ele>1165.0</ele><time>2026-05-03T09:04:41.168Z</time></trkpt><trkpt lat="46.2300195" lon="8.2932221"><ele>1164.9999999999998</ele><time>2026-05-03T09:04:46.155Z</time></trkpt><trkpt lat="46.2300965" lon="8.2932304"><ele>1165.0</ele><time>2026-05-03T09:04:49.151Z</time></trkpt><trkpt lat="46.2301646" lon="8.2931726"><ele>1165.142857142857</ele><time>2026-05-03T09:04:52.151Z</time></trkpt><trkpt lat="46.230216" lon="8.2931122"><ele>1165.2857142857142</ele><time>2026-05-03T09:04:55.145Z</time></trkpt><trkpt lat="46.2302716" lon="8.293041"><ele>1165.4285714285716</ele><time>2026-05-03T09:04:59.148Z</time></trkpt><trkpt lat="46.230307" lon="8.2929618"><ele>1165.5714285714284</ele><time>2026-05-03T09:05:03.146Z</time></trkpt><trkpt lat="46.2303536" lon="8.2928841"><ele>1165.7142857142858</ele><time>2026-05-03T09:05:08.143Z</time></trkpt><trkpt lat="46.2304264" lon="8.2928673"><ele>1165.857142857143</ele><time>2026-05-03T09:05:14.148Z</time></trkpt><trkpt lat="46.2304911" lon="8.2928834"><ele>1166.0</ele><time>2026-05-03T09:05:19.156Z</time></trkpt><trkpt lat="46.2305542" lon="8.2928929"><ele>1168.857142857143</ele><time>2026-05-03T09:05:25.152Z</time></trkpt><trkpt lat="46.230627" lon="8.2929014"><ele>1171.7142857142858</ele><time>2026-05-03T09:05:30.142Z</time></trkpt><trkpt lat="46.2306994" lon="8.292877"><ele>1174.5714285714284</ele><time>2026-05-03T09:05:35.148Z</time></trkpt><trkpt lat="46.2307572" lon="8.2928239"><ele>1177.4285714285716</ele><time>2026-05-03T09:05:38.14Z</time></trkpt><trkpt lat="46.230795" lon="8.2927356"><ele>1180.2857142857142</ele><time>2026-05-03T09:05:42.15Z</time></trkpt><trkpt lat="46.2308569" lon="8.2926814"><ele>1183.142857142857</ele><time>2026-05-03T09:05:44.146Z</time></trkpt><trkpt lat="46.2309363" lon="8.2926644"><ele>1186.0</ele><time>2026-05-03T09:05:47.15Z</time></trkpt><trkpt lat="46.2310054" lon="8.292591"><ele>1186.3333333333333</ele><time>2026-05-03T09:05:52.147Z</time></trkpt><trkpt lat="46.2310684" lon="8.2925354"><ele>1186.6666666666665</ele><time>2026-05-03T09:05:55.149Z</time></trkpt><trkpt lat="46.231133" lon="8.2925339"><ele>1187.0</ele><time>2026-05-03T09:05:58.14Z</time></trkpt><trkpt lat="46.2312124" lon="8.2925069"><ele>1187.3333333333333</ele><time>2026-05-03T09:06:02.147Z</time></trkpt><trkpt lat="46.2312902" lon="8.2924694"><ele>1187.6666666666667</ele><time>2026-05-03T09:06:05.14Z</time></trkpt><trkpt lat="46.2313692" lon="8.2924618"><ele>1188.0</ele><time>2026-05-03T09:06:08.143Z</time></trkpt><trkpt lat="46.2314427" lon="8.2924618"><ele>1188.1666666666667</ele><time>2026-05-03T09:06:11.143Z</time></trkpt><trkpt lat="46.2315178" lon="8.29247"><ele>1188.3333333333333</ele><time>2026-05-03T09:06:14.144Z</time></trkpt><trkpt lat="46.2315931" lon="8.2924813"><ele>1188.5</ele><time>2026-05-03T09:06:18.146Z</time></trkpt><trkpt lat="46.2316768" lon="8.2924747"><ele>1188.6666666666665</ele><time>2026-05-03T09:06:22.147Z</time></trkpt><trkpt lat="46.2317431" lon="8.2924668"><ele>1188.8333333333333</ele><time>2026-05-03T09:06:25.149Z</time></trkpt><trkpt lat="46.2318162" lon="8.2924608"><ele>1189.0</ele><time>2026-05-03T09:06:28.143Z</time></trkpt><trkpt lat="46.2318978" lon="8.2924559"><ele>1189.0</ele><time>2026-05-03T09:06:32.145Z</time></trkpt><trkpt lat="46.2319631" lon="8.2924455"><ele>1189.0</ele><time>2026-05-03T09:06:35.146Z</time></trkpt><trkpt lat="46.2320419" lon="8.2924444"><ele>1189.0</ele><time>2026-05-03T09:06:39.147Z</time></trkpt><trkpt lat="46.2321076" lon="8.292448"><ele>1189.0</ele><time>2026-05-03T09:06:43.143Z</time></trkpt><trkpt lat="46.2321764" lon="8.2924363"><ele>1189.0</ele><time>2026-05-03T09:06:46.145Z</time></trkpt><trkpt lat="46.2322439" lon="8.2924155"><ele>1189.0</ele><time>2026-05-03T09:06:49.152Z</time></trkpt><trkpt lat="46.2323222" lon="8.2923948"><ele>1189.0</ele><time>2026-05-03T09:06:52.151Z</time></trkpt><trkpt lat="46.2323957" lon="8.2923743"><ele>1190.6666666666665</ele><time>2026-05-03T09:06:55.148Z</time></trkpt><trkpt lat="46.2324703" lon="8.2923245"><ele>1192.3333333333333</ele><time>2026-05-03T09:06:58.145Z</time></trkpt><trkpt lat="46.2325381" lon="8.2922682"><ele>1194.0</ele><time>2026-05-03T09:07:01.147Z</time></trkpt><trkpt lat="46.2325885" lon="8.2921882"><ele>1195.6666666666667</ele><time>2026-05-03T09:07:05.143Z</time></trkpt><trkpt lat="46.232604" lon="8.2920912"><ele>1197.3333333333335</ele><time>2026-05-03T09:07:10.144Z</time></trkpt><trkpt lat="46.2325854" lon="8.2919886"><ele>1199.0</ele><time>2026-05-03T09:07:14.146Z</time></trkpt><trkpt lat="46.2325329" lon="8.2918967"><ele>1199.5</ele><time>2026-05-03T09:07:18.148Z</time></trkpt><trkpt lat="46.2324641" lon="8.2918489"><ele>1200.0</ele><time>2026-05-03T09:07:21.149Z</time></trkpt><trkpt lat="46.2324022" lon="8.2918126"><ele>1200.5</ele><time>2026-05-03T09:07:23.152Z</time></trkpt><trkpt lat="46.2323201" lon="8.2917689"><ele>1201.0</ele><time>2026-05-03T09:07:26.144Z</time></trkpt><trkpt lat="46.2322422" lon="8.2917364"><ele>1201.5</ele><time>2026-05-03T09:07:29.147Z</time></trkpt><trkpt lat="46.2321698" lon="8.2917097"><ele>1202.0</ele><time>2026-05-03T09:07:32.164Z</time></trkpt><trkpt lat="46.2321011" lon="8.2916856"><ele>1202.7142857142856</ele><time>2026-05-03T09:07:37.148Z</time></trkpt><trkpt lat="46.2321168" lon="8.2915941"><ele>1203.4285714285716</ele><time>2026-05-03T09:07:42.152Z</time></trkpt><trkpt lat="46.232178" lon="8.291533"><ele>1204.142857142857</ele><time>2026-05-03T09:07:46.14Z</time></trkpt><trkpt lat="46.2322008" lon="8.2914417"><ele>1204.8571428571427</ele><time>2026-05-03T09:07:49.145Z</time></trkpt><trkpt lat="46.2322689" lon="8.2913744"><ele>1205.5714285714284</ele><time>2026-05-03T09:07:54.146Z</time></trkpt><trkpt lat="46.2323012" lon="8.2912797"><ele>1206.2857142857142</ele><time>2026-05-03T09:07:58.149Z</time></trkpt><trkpt lat="46.2323413" lon="8.2911953"><ele>1207.0</ele><time>2026-05-03T09:08:01.134Z</time></trkpt><trkpt lat="46.232376" lon="8.291106"><ele>1207.6666666666665</ele><time>2026-05-03T09:08:04.146Z</time></trkpt><trkpt lat="46.232403" lon="8.2909889"><ele>1208.3333333333333</ele><time>2026-05-03T09:08:07.143Z</time></trkpt><trkpt lat="46.2324455" lon="8.290895"><ele>1209.0</ele><time>2026-05-03T09:08:10.153Z</time></trkpt><trkpt lat="46.2324798" lon="8.2907961"><ele>1209.6666666666667</ele><time>2026-05-03T09:08:14.139Z</time></trkpt><trkpt lat="46.2325407" lon="8.2907156"><ele>1210.3333333333335</ele><time>2026-05-03T09:08:19.153Z</time></trkpt><trkpt lat="46.2325736" lon="8.2906121"><ele>1211.0</ele><time>2026-05-03T09:08:22.152Z</time></trkpt><trkpt lat="46.2325971" lon="8.2905168"><ele>1212.0</ele><time>2026-05-03T09:08:25.151Z</time></trkpt><trkpt lat="46.232649" lon="8.2904058"><ele>1213.0</ele><time>2026-05-03T09:08:29.15Z</time></trkpt><trkpt lat="46.2327083" lon="8.2903746"><ele>1214.0</ele><time>2026-05-03T09:08:32.143Z</time></trkpt><trkpt lat="46.2327882" lon="8.2903209"><ele>1215.0</ele><time>2026-05-03T09:08:35.144Z</time></trkpt><trkpt lat="46.2328452" lon="8.2902749"><ele>1216.0</ele><time>2026-05-03T09:08:37.145Z</time></trkpt><trkpt lat="46.2329119" lon="8.2902257"><ele>1217.0</ele><time>2026-05-03T09:08:39.145Z</time></trkpt><trkpt lat="46.2329804" lon="8.2901811"><ele>1217.0</ele><time>2026-05-03T09:08:41.151Z</time></trkpt><trkpt lat="46.2330453" lon="8.2901593"><ele>1217.0</ele><time>2026-05-03T09:08:43.15Z</time></trkpt><trkpt lat="46.2331272" lon="8.2901564"><ele>1217.0</ele><time>2026-05-03T09:08:46.147Z</time></trkpt><trkpt lat="46.2332052" lon="8.2901668"><ele>1217.0</ele><time>2026-05-03T09:08:49.153Z</time></trkpt><trkpt lat="46.2332828" lon="8.2901874"><ele>1217.0</ele><time>2026-05-03T09:08:52.156Z</time></trkpt><trkpt lat="46.2333609" lon="8.2902136"><ele>1217.0</ele><time>2026-05-03T09:08:55.148Z</time></trkpt><trkpt lat="46.2334335" lon="8.2902512"><ele>1217.8333333333335</ele><time>2026-05-03T09:08:58.151Z</time></trkpt><trkpt lat="46.2335228" lon="8.2902501"><ele>1218.6666666666667</ele><time>2026-05-03T09:09:01.149Z</time></trkpt><trkpt lat="46.2336064" lon="8.2901886"><ele>1219.5</ele><time>2026-05-03T09:09:04.149Z</time></trkpt><trkpt lat="46.2336612" lon="8.2901374"><ele>1220.3333333333333</ele><time>2026-05-03T09:09:06.147Z</time></trkpt><trkpt lat="46.2337335" lon="8.2900902"><ele>1221.1666666666665</ele><time>2026-05-03T09:09:09.144Z</time></trkpt><trkpt lat="46.2337988" lon="8.2901106"><ele>1222.0</ele><time>2026-05-03T09:09:12.151Z</time></trkpt><trkpt lat="46.2338568" lon="8.2901618"><ele>1222.0</ele><time>2026-05-03T09:09:15.149Z</time></trkpt><trkpt lat="46.2339094" lon="8.2902229"><ele>1222.0</ele><time>2026-05-03T09:09:18.154Z</time></trkpt><trkpt lat="46.2339988" lon="8.2902902"><ele>1222.0</ele><time>2026-05-03T09:09:21.154Z</time></trkpt><trkpt lat="46.2340654" lon="8.2903721"><ele>1222.0</ele><time>2026-05-03T09:09:23.156Z</time></trkpt><trkpt lat="46.2341369" lon="8.290464"><ele>1222.0</ele><time>2026-05-03T09:09:25.152Z</time></trkpt><trkpt lat="46.2342184" lon="8.2905473"><ele>1222.4</ele><time>2026-05-03T09:09:27.147Z</time></trkpt><trkpt lat="46.2343284" lon="8.2906719"><ele>1222.8000000000002</ele><time>2026-05-03T09:09:29.151Z</time></trkpt><trkpt lat="46.2343828" lon="8.290755"><ele>1223.2</ele><time>2026-05-03T09:09:30.145Z</time></trkpt><trkpt lat="46.2344398" lon="8.2908263"><ele>1223.6000000000001</ele><time>2026-05-03T09:09:31.145Z</time></trkpt><trkpt lat="46.2344922" lon="8.2908833"><ele>1224.0</ele><time>2026-05-03T09:09:32.143Z</time></trkpt><trkpt lat="46.2345823" lon="8.2909369"><ele>1224.0</ele><time>2026-05-03T09:09:34.144Z</time></trkpt><trkpt lat="46.2346523" lon="8.2909153"><ele>1224.0</ele><time>2026-05-03T09:09:36.163Z</time></trkpt><trkpt lat="46.2347167" lon="8.2908569"><ele>1224.0</ele><time>2026-05-03T09:09:39.147Z</time></trkpt><trkpt lat="46.2347896" lon="8.2907848"><ele>1224.0</ele><time>2026-05-03T09:09:43.148Z</time></trkpt><trkpt lat="46.2348536" lon="8.2907194"><ele>1224.0</ele><time>2026-05-03T09:09:46.151Z</time></trkpt><trkpt lat="46.2349128" lon="8.2906393"><ele>1224.0</ele><time>2026-05-03T09:09:49.144Z</time></trkpt><trkpt lat="46.2349631" lon="8.2905568"><ele>1226.3333333333333</ele><time>2026-05-03T09:09:52.152Z</time></trkpt><trkpt lat="46.2349883" lon="8.2904698"><ele>1228.6666666666667</ele><time>2026-05-03T09:09:54.152Z</time></trkpt><trkpt lat="46.2350134" lon="8.2903712"><ele>1231.0</ele><time>2026-05-03T09:09:56.152Z</time></trkpt><trkpt lat="46.2350552" lon="8.2902686"><ele>1233.3333333333335</ele><time>2026-05-03T09:09:59.153Z</time></trkpt><trkpt lat="46.2350713" lon="8.2901613"><ele>1235.6666666666667</ele><time>2026-05-03T09:10:03.156Z</time></trkpt><trkpt lat="46.2350959" lon="8.2900629"><ele>1238.0</ele><time>2026-05-03T09:10:06.156Z</time></trkpt><trkpt lat="46.2351507" lon="8.2899743"><ele>1238.0</ele><time>2026-05-03T09:10:10.156Z</time></trkpt><trkpt lat="46.2351978" lon="8.2898993"><ele>1238.0</ele><time>2026-05-03T09:10:13.155Z</time></trkpt><trkpt lat="46.2352575" lon="8.2898153"><ele>1238.0</ele><time>2026-05-03T09:10:17.157Z</time></trkpt><trkpt lat="46.2353043" lon="8.2897321"><ele>1238.0</ele><time>2026-05-03T09:10:21.158Z</time></trkpt><trkpt lat="46.2353585" lon="8.2896449"><ele>1238.0</ele><time>2026-05-03T09:10:25.158Z</time></trkpt><trkpt lat="46.2354012" lon="8.2895714"><ele>1238.0</ele><time>2026-05-03T09:10:28.157Z</time></trkpt><trkpt lat="46.2354646" lon="8.2895262"><ele>1238.0</ele><time>2026-05-03T09:10:32.157Z</time></trkpt><trkpt lat="46.2355297" lon="8.2894953"><ele>1239.5714285714284</ele><time>2026-05-03T09:10:36.156Z</time></trkpt><trkpt lat="46.235616" lon="8.289502"><ele>1241.142857142857</ele><time>2026-05-03T09:10:41.156Z</time></trkpt><trkpt lat="46.2356707" lon="8.2894441"><ele>1242.7142857142858</ele><time>2026-05-03T09:10:44.161Z</time></trkpt><trkpt lat="46.2357196" lon="8.2893861"><ele>1244.2857142857142</ele><time>2026-05-03T09:10:49.156Z</time></trkpt><trkpt lat="46.2357729" lon="8.289322"><ele>1245.857142857143</ele><time>2026-05-03T09:10:57.149Z</time></trkpt><trkpt lat="46.235838" lon="8.2893829"><ele>1247.4285714285713</ele><time>2026-05-03T09:11:02.144Z</time></trkpt><trkpt lat="46.2359072" lon="8.2894315"><ele>1249.0</ele><time>2026-05-03T09:11:05.144Z</time></trkpt><trkpt lat="46.2359701" lon="8.2894073"><ele>1249.4285714285713</ele><time>2026-05-03T09:11:07.147Z</time></trkpt><trkpt lat="46.2360411" lon="8.2893763"><ele>1249.857142857143</ele><time>2026-05-03T09:11:10.147Z</time></trkpt><trkpt lat="46.2361068" lon="8.2893702"><ele>1250.2857142857142</ele><time>2026-05-03T09:11:16.146Z</time></trkpt><trkpt lat="46.2361906" lon="8.289366"><ele>1250.7142857142858</ele><time>2026-05-03T09:11:19.146Z</time></trkpt><trkpt lat="46.2362571" lon="8.2893913"><ele>1251.142857142857</ele><time>2026-05-03T09:11:23.159Z</time></trkpt><trkpt lat="46.2363035" lon="8.2894811"><ele>1251.5714285714284</ele><time>2026-05-03T09:11:27.147Z</time></trkpt><trkpt lat="46.2363505" lon="8.2895499"><ele>1252.0</ele><time>2026-05-03T09:11:32.153Z</time></trkpt><trkpt lat="46.2364045" lon="8.2896007"><ele>1252.0</ele><time>2026-05-03T09:11:36.146Z</time></trkpt><trkpt lat="46.2364682" lon="8.2895683"><ele>1252.0</ele><time>2026-05-03T09:11:39.148Z</time></trkpt><trkpt lat="46.2365319" lon="8.2895233"><ele>1252.0</ele><time>2026-05-03T09:11:42.155Z</time></trkpt><trkpt lat="46.2366058" lon="8.2895463"><ele>1252.0</ele><time>2026-05-03T09:11:46.156Z</time></trkpt><trkpt lat="46.2366787" lon="8.2895189"><ele>1252.0</ele><time>2026-05-03T09:11:50.154Z</time></trkpt><trkpt lat="46.2367373" lon="8.2894563"><ele>1252.0</ele><time>2026-05-03T09:11:53.142Z</time></trkpt><trkpt lat="46.2367827" lon="8.2893432"><ele>1253.0</ele><time>2026-05-03T09:11:55.147Z</time></trkpt><trkpt lat="46.2368379" lon="8.2892534"><ele>1254.0</ele><time>2026-05-03T09:11:57.146Z</time></trkpt><trkpt lat="46.2368993" lon="8.2891714"><ele>1255.0</ele><time>2026-05-03T09:11:59.155Z</time></trkpt><trkpt lat="46.2369682" lon="8.2891076"><ele>1256.0</ele><time>2026-05-03T09:12:08.149Z</time></trkpt><trkpt lat="46.2370257" lon="8.2890425"><ele>1257.0</ele><time>2026-05-03T09:12:12.145Z</time></trkpt><trkpt lat="46.2370961" lon="8.289076"><ele>1258.0</ele><time>2026-05-03T09:12:19.154Z</time></trkpt><trkpt lat="46.2371663" lon="8.2890988"><ele>1258.0</ele><time>2026-05-03T09:12:24.146Z</time></trkpt><trkpt lat="46.2372508" lon="8.2890398"><ele>1258.0</ele><time>2026-05-03T09:12:28.145Z</time></trkpt><trkpt lat="46.2373161" lon="8.288976"><ele>1258.0</ele><time>2026-05-03T09:12:35.145Z</time></trkpt><trkpt lat="46.2373806" lon="8.2889268"><ele>1258.0</ele><time>2026-05-03T09:12:38.147Z</time></trkpt><trkpt lat="46.2374399" lon="8.2888751"><ele>1258.0</ele><time>2026-05-03T09:12:40.149Z</time></trkpt><trkpt lat="46.23752" lon="8.2888505"><ele>1258.0</ele><time>2026-05-03T09:12:44.155Z</time></trkpt><trkpt lat="46.2375886" lon="8.2888459"><ele>1263.3333333333333</ele><time>2026-05-03T09:12:47.154Z</time></trkpt><trkpt lat="46.2376551" lon="8.2888273"><ele>1268.6666666666665</ele><time>2026-05-03T09:12:51.143Z</time></trkpt><trkpt lat="46.2377074" lon="8.2887268"><ele>1274.0</ele><time>2026-05-03T09:12:54.141Z</time></trkpt><trkpt lat="46.2377525" lon="8.2885953"><ele>1279.3333333333333</ele><time>2026-05-03T09:12:56.141Z</time></trkpt><trkpt lat="46.2378085" lon="8.2885188"><ele>1284.6666666666667</ele><time>2026-05-03T09:12:58.148Z</time></trkpt><trkpt lat="46.2378763" lon="8.2885099"><ele>1290.0</ele><time>2026-05-03T09:13:02.146Z</time></trkpt><trkpt lat="46.2379423" lon="8.2884797"><ele>1290.0</ele><time>2026-05-03T09:13:08.145Z</time></trkpt><trkpt lat="46.2379139" lon="8.2883977"><ele>1290.0</ele><time>2026-05-03T09:13:17.142Z</time></trkpt><trkpt lat="46.2378402" lon="8.2883512"><ele>1290.0</ele><time>2026-05-03T09:13:22.148Z</time></trkpt><trkpt lat="46.2377785" lon="8.2883137"><ele>1290.0</ele><time>2026-05-03T09:13:25.148Z</time></trkpt><trkpt lat="46.2377799" lon="8.2882222"><ele>1290.0</ele><time>2026-05-03T09:13:32.15Z</time></trkpt><trkpt lat="46.2377266" lon="8.2881525"><ele>1290.0</ele><time>2026-05-03T09:13:40.139Z</time></trkpt><trkpt lat="46.2376426" lon="8.2881311"><ele>1290.0</ele><time>2026-05-03T09:13:42.14Z</time></trkpt><trkpt lat="46.2375631" lon="8.2880884"><ele>1294.142857142857</ele><time>2026-05-03T09:13:45.148Z</time></trkpt><trkpt lat="46.2375037" lon="8.2880354"><ele>1298.2857142857142</ele><time>2026-05-03T09:13:52.15Z</time></trkpt><trkpt lat="46.2374472" lon="8.2879913"><ele>1302.4285714285713</ele><time>2026-05-03T09:13:56.15Z</time></trkpt><trkpt lat="46.2373791" lon="8.2879647"><ele>1306.5714285714284</ele><time>2026-05-03T09:14:00.15Z</time></trkpt><trkpt lat="46.2373214" lon="8.2879084"><ele>1310.7142857142858</ele><time>2026-05-03T09:14:05.147Z</time></trkpt><trkpt lat="46.2372378" lon="8.2879257"><ele>1314.8571428571427</ele><time>2026-05-03T09:14:10.151Z</time></trkpt><trkpt lat="46.237179" lon="8.2879928"><ele>1319.0</ele><time>2026-05-03T09:14:13.146Z</time></trkpt><trkpt lat="46.23724" lon="8.287957"><ele>1318.9999999999998</ele><time>2026-05-03T09:14:19.151Z</time></trkpt><trkpt lat="46.237295" lon="8.2879075"><ele>1319.0</ele><time>2026-05-03T09:14:23.151Z</time></trkpt><trkpt lat="46.2373661" lon="8.2879287"><ele>1319.0</ele><time>2026-05-03T09:14:30.145Z</time></trkpt><trkpt lat="46.2374142" lon="8.2878441"><ele>1319.0</ele><time>2026-05-03T09:14:33.143Z</time></trkpt><trkpt lat="46.2374696" lon="8.287799"><ele>1319.0</ele><time>2026-05-03T09:14:39.157Z</time></trkpt><trkpt lat="46.2375362" lon="8.2877912"><ele>1318.9999999999998</ele><time>2026-05-03T09:14:45.164Z</time></trkpt><trkpt lat="46.2375987" lon="8.2876929"><ele>1319.0</ele><time>2026-05-03T09:14:55.146Z</time></trkpt><trkpt lat="46.23766" lon="8.2876486"><ele>1318.9999999999998</ele><time>2026-05-03T09:14:58.138Z</time></trkpt><trkpt lat="46.2377316" lon="8.2876454"><ele>1319.0</ele><time>2026-05-03T09:15:00.144Z</time></trkpt><trkpt lat="46.2377916" lon="8.2875826"><ele>1319.0</ele><time>2026-05-03T09:15:02.143Z</time></trkpt><trkpt lat="46.2378594" lon="8.2875546"><ele>1319.0</ele><time>2026-05-03T09:15:06.152Z</time></trkpt><trkpt lat="46.2378971" lon="8.2874774"><ele>1319.0</ele><time>2026-05-03T09:15:09.143Z</time></trkpt><trkpt lat="46.2379516" lon="8.287413"><ele>1318.9999999999998</ele><time>2026-05-03T09:15:17.149Z</time></trkpt><trkpt lat="46.2380332" lon="8.287359"><ele>1319.0</ele><time>2026-05-03T09:15:25.147Z</time></trkpt><trkpt lat="46.2380761" lon="8.2872665"><ele>1324.8333333333335</ele><time>2026-05-03T09:15:27.145Z</time></trkpt><trkpt lat="46.2381504" lon="8.2872148"><ele>1330.6666666666667</ele><time>2026-05-03T09:15:32.146Z</time></trkpt><trkpt lat="46.2382424" lon="8.287216"><ele>1336.5</ele><time>2026-05-03T09:15:34.148Z</time></trkpt><trkpt lat="46.2383222" lon="8.2872051"><ele>1342.3333333333333</ele><time>2026-05-03T09:15:37.146Z</time></trkpt><trkpt lat="46.2383942" lon="8.2871903"><ele>1348.1666666666665</ele><time>2026-05-03T09:15:39.152Z</time></trkpt><trkpt lat="46.2384673" lon="8.2872188"><ele>1354.0</ele><time>2026-05-03T09:15:44.15Z</time></trkpt><trkpt lat="46.238531" lon="8.2872366"><ele>1354.0</ele><time>2026-05-03T09:15:48.142Z</time></trkpt><trkpt lat="46.2386161" lon="8.2871847"><ele>1354.0</ele><time>2026-05-03T09:15:51.143Z</time></trkpt><trkpt lat="46.2386961" lon="8.2870923"><ele>1354.0</ele><time>2026-05-03T09:15:53.143Z</time></trkpt><trkpt lat="46.2387441" lon="8.2870195"><ele>1354.0</ele><time>2026-05-03T09:15:56.145Z</time></trkpt><trkpt lat="46.2388068" lon="8.2870523"><ele>1354.0</ele><time>2026-05-03T09:16:04.144Z</time></trkpt><trkpt lat="46.2388368" lon="8.287134"><ele>1354.0</ele><time>2026-05-03T09:16:06.14Z</time></trkpt><trkpt lat="46.2389274" lon="8.287159"><ele>1354.5</ele><time>2026-05-03T09:16:09.143Z</time></trkpt><trkpt lat="46.2389799" lon="8.2872367"><ele>1355.0</ele><time>2026-05-03T09:16:11.147Z</time></trkpt><trkpt lat="46.239047" lon="8.287287"><ele>1355.5</ele><time>2026-05-03T09:16:14.15Z</time></trkpt><trkpt lat="46.2391088" lon="8.2873421"><ele>1356.0</ele><time>2026-05-03T09:16:17.148Z</time></trkpt><trkpt lat="46.2391718" lon="8.2873166"><ele>1356.5</ele><time>2026-05-03T09:16:21.143Z</time></trkpt><trkpt lat="46.2392343" lon="8.2872337"><ele>1357.0</ele><time>2026-05-03T09:16:24.146Z</time></trkpt><trkpt lat="46.2393171" lon="8.2871118"><ele>1357.0</ele><time>2026-05-03T09:16:26.148Z</time></trkpt><trkpt lat="46.239367" lon="8.2870078"><ele>1357.0</ele><time>2026-05-03T09:16:33.149Z</time></trkpt><trkpt lat="46.2394291" lon="8.2869365"><ele>1357.0</ele><time>2026-05-03T09:16:37.147Z</time></trkpt><trkpt lat="46.2395133" lon="8.2868674"><ele>1357.0</ele><time>2026-05-03T09:16:39.144Z</time></trkpt><trkpt lat="46.2395833" lon="8.2867915"><ele>1357.0</ele><time>2026-05-03T09:16:41.153Z</time></trkpt><trkpt lat="46.2396286" lon="8.2867092"><ele>1357.0</ele><time>2026-05-03T09:16:46.144Z</time></trkpt><trkpt lat="46.2396989" lon="8.286622"><ele>1357.0</ele><time>2026-05-03T09:16:48.161Z</time></trkpt><trkpt lat="46.2397819" lon="8.2865373"><ele>1357.0</ele><time>2026-05-03T09:16:50.145Z</time></trkpt><trkpt lat="46.2398256" lon="8.2864479"><ele>1357.0</ele><time>2026-05-03T09:16:53.155Z</time></trkpt><trkpt lat="46.2398861" lon="8.286387"><ele>1357.0</ele><time>2026-05-03T09:16:58.149Z</time></trkpt><trkpt lat="46.2399303" lon="8.2862926"><ele>1357.0</ele><time>2026-05-03T09:17:01.151Z</time></trkpt><trkpt lat="46.2399645" lon="8.2862078"><ele>1357.0</ele><time>2026-05-03T09:17:04.15Z</time></trkpt><trkpt lat="46.2400227" lon="8.286142"><ele>1356.8333333333333</ele><time>2026-05-03T09:17:07.148Z</time></trkpt><trkpt lat="46.2400674" lon="8.2860757"><ele>1356.6666666666665</ele><time>2026-05-03T09:17:09.146Z</time></trkpt><trkpt lat="46.2401219" lon="8.2860161"><ele>1356.5</ele><time>2026-05-03T09:17:12.149Z</time></trkpt><trkpt lat="46.2401574" lon="8.2859075"><ele>1356.3333333333333</ele><time>2026-05-03T09:17:15.149Z</time></trkpt><trkpt lat="46.2401869" lon="8.2857817"><ele>1356.1666666666667</ele><time>2026-05-03T09:17:18.14Z</time></trkpt><trkpt lat="46.2402406" lon="8.2857116"><ele>1356.0</ele><time>2026-05-03T09:17:21.135Z</time></trkpt><trkpt lat="46.2403008" lon="8.2855887"><ele>1357.5</ele><time>2026-05-03T09:17:24.132Z</time></trkpt><trkpt lat="46.2403055" lon="8.2854287"><ele>1359.0</ele><time>2026-05-03T09:17:26.135Z</time></trkpt><trkpt lat="46.2403508" lon="8.2853223"><ele>1360.5</ele><time>2026-05-03T09:17:28.139Z</time></trkpt><trkpt lat="46.2403989" lon="8.2852492"><ele>1362.0</ele><time>2026-05-03T09:17:30.142Z</time></trkpt><trkpt lat="46.2403867" lon="8.2851531"><ele>1363.5</ele><time>2026-05-03T09:17:37.133Z</time></trkpt><trkpt lat="46.2404455" lon="8.2850689"><ele>1365.0</ele><time>2026-05-03T09:17:39.141Z</time></trkpt><trkpt lat="46.240511" lon="8.2849655"><ele>1365.0</ele><time>2026-05-03T09:17:42.131Z</time></trkpt><trkpt lat="46.2405321" lon="8.2848777"><ele>1365.0</ele><time>2026-05-03T09:17:44.134Z</time></trkpt><trkpt lat="46.2405435" lon="8.2847628"><ele>1365.0</ele><time>2026-05-03T09:17:45.133Z</time></trkpt><trkpt lat="46.2405245" lon="8.2845906"><ele>1365.0</ele><time>2026-05-03T09:17:47.13Z</time></trkpt><trkpt lat="46.2405219" lon="8.284488"><ele>1365.0</ele><time>2026-05-03T09:17:49.138Z</time></trkpt><trkpt lat="46.2404951" lon="8.2843772"><ele>1365.0</ele><time>2026-05-03T09:17:52.134Z</time></trkpt><trkpt lat="46.2404911" lon="8.2842815"><ele>1366.4285714285713</ele><time>2026-05-03T09:17:54.13Z</time></trkpt><trkpt lat="46.2404988" lon="8.2841694"><ele>1367.857142857143</ele><time>2026-05-03T09:17:57.136Z</time></trkpt><trkpt lat="46.2405228" lon="8.2840547"><ele>1369.2857142857142</ele><time>2026-05-03T09:18:00.133Z</time></trkpt><trkpt lat="46.2405431" lon="8.2839621"><ele>1370.7142857142858</ele><time>2026-05-03T09:18:03.134Z</time></trkpt><trkpt lat="46.2405198" lon="8.2838771"><ele>1372.142857142857</ele><time>2026-05-03T09:18:08.132Z</time></trkpt><trkpt lat="46.2405078" lon="8.2837727"><ele>1373.5714285714284</ele><time>2026-05-03T09:18:13.136Z</time></trkpt><trkpt lat="46.2405378" lon="8.2836774"><ele>1375.0</ele><time>2026-05-03T09:18:20.129Z</time></trkpt><trkpt lat="46.240567" lon="8.2835803"><ele>1375.4285714285713</ele><time>2026-05-03T09:18:24.134Z</time></trkpt><trkpt lat="46.2405578" lon="8.2834628"><ele>1375.857142857143</ele><time>2026-05-03T09:18:26.132Z</time></trkpt><trkpt lat="46.2405591" lon="8.2833516"><ele>1376.2857142857142</ele><time>2026-05-03T09:18:28.131Z</time></trkpt><trkpt lat="46.2405465" lon="8.2832547"><ele>1376.7142857142858</ele><time>2026-05-03T09:18:30.13Z</time></trkpt><trkpt lat="46.2405002" lon="8.2831801"><ele>1377.142857142857</ele><time>2026-05-03T09:18:37.135Z</time></trkpt><trkpt lat="46.240548" lon="8.2830954"><ele>1377.5714285714284</ele><time>2026-05-03T09:18:42.133Z</time></trkpt><trkpt lat="46.2405953" lon="8.2830298"><ele>1378.0</ele><time>2026-05-03T09:18:45.136Z</time></trkpt><trkpt lat="46.2406395" lon="8.2829645"><ele>1378.0</ele><time>2026-05-03T09:18:47.137Z</time></trkpt><trkpt lat="46.2406786" lon="8.2828738"><ele>1378.0</ele><time>2026-05-03T09:18:55.13Z</time></trkpt><trkpt lat="46.2407358" lon="8.2828293"><ele>1378.0</ele><time>2026-05-03T09:19:19.143Z</time></trkpt><trkpt lat="46.2407897" lon="8.2827817"><ele>1378.0</ele><time>2026-05-03T09:23:24.143Z</time></trkpt><trkpt lat="46.2408444" lon="8.2827355"><ele>1378.0</ele><time>2026-05-03T09:23:36.14Z</time></trkpt><trkpt lat="46.2409163" lon="8.2827656"><ele>1378.0</ele><time>2026-05-03T09:23:39.139Z</time></trkpt><trkpt lat="46.2409809" lon="8.282838"><ele>1378.0</ele><time>2026-05-03T09:23:42.138Z</time></trkpt><trkpt lat="46.2410459" lon="8.2828429"><ele>1378.0</ele><time>2026-05-03T09:23:45.135Z</time></trkpt><trkpt lat="46.2411207" lon="8.2828671"><ele>1378.0</ele><time>2026-05-03T09:23:49.143Z</time></trkpt><trkpt lat="46.2411867" lon="8.2829002"><ele>1378.0</ele><time>2026-05-03T09:23:54.136Z</time></trkpt><trkpt lat="46.2412261" lon="8.2827982"><ele>1378.0</ele><time>2026-05-03T09:24:10.133Z</time></trkpt><trkpt lat="46.24128" lon="8.2828801"><ele>1378.0</ele><time>2026-05-03T09:24:20.14Z</time></trkpt><trkpt lat="46.24135" lon="8.2829557"><ele>1378.0</ele><time>2026-05-03T09:24:28.135Z</time></trkpt><trkpt lat="46.2413838" lon="8.2830727"><ele>1378.1666666666665</ele><time>2026-05-03T09:24:31.131Z</time></trkpt><trkpt lat="46.2414015" lon="8.2831802"><ele>1378.3333333333333</ele><time>2026-05-03T09:24:34.134Z</time></trkpt><trkpt lat="46.2414598" lon="8.2832509"><ele>1378.5</ele><time>2026-05-03T09:24:51.126Z</time></trkpt><trkpt lat="46.2415286" lon="8.2833105"><ele>1378.6666666666667</ele><time>2026-05-03T09:24:53.13Z</time></trkpt><trkpt lat="46.241601" lon="8.2833089"><ele>1378.8333333333335</ele><time>2026-05-03T09:24:56.129Z</time></trkpt><trkpt lat="46.2416691" lon="8.2834027"><ele>1379.0</ele><time>2026-05-03T09:25:08.14Z</time></trkpt><trkpt lat="46.2417306" lon="8.2835704"><ele>1379.0</ele><time>2026-05-03T09:25:24.135Z</time></trkpt><trkpt lat="46.2417515" lon="8.2836848"><ele>1379.0</ele><time>2026-05-03T09:25:25.136Z</time></trkpt><trkpt lat="46.2417903" lon="8.2837762"><ele>1379.0</ele><time>2026-05-03T09:25:26.138Z</time></trkpt><trkpt lat="46.2418326" lon="8.2838583"><ele>1379.0</ele><time>2026-05-03T09:25:27.138Z</time></trkpt><trkpt lat="46.2418915" lon="8.2839659"><ele>1379.0</ele><time>2026-05-03T09:25:29.135Z</time></trkpt><trkpt lat="46.2419387" lon="8.2840979"><ele>1379.0</ele><time>2026-05-03T09:25:31.142Z</time></trkpt><trkpt lat="46.2419776" lon="8.2842237"><ele>1376.1666666666667</ele><time>2026-05-03T09:25:33.136Z</time></trkpt><trkpt lat="46.2420179" lon="8.2843035"><ele>1373.3333333333335</ele><time>2026-05-03T09:25:35.139Z</time></trkpt><trkpt lat="46.2420759" lon="8.2843774"><ele>1370.5</ele><time>2026-05-03T09:25:38.138Z</time></trkpt><trkpt lat="46.2421157" lon="8.2845346"><ele>1367.6666666666667</ele><time>2026-05-03T09:25:41.138Z</time></trkpt><trkpt lat="46.2421328" lon="8.2846316"><ele>1364.8333333333333</ele><time>2026-05-03T09:25:42.135Z</time></trkpt><trkpt lat="46.2421493" lon="8.2847321"><ele>1362.0</ele><time>2026-05-03T09:25:43.135Z</time></trkpt><trkpt lat="46.2421606" lon="8.2848358"><ele>1361.1666666666667</ele><time>2026-05-03T09:25:44.13Z</time></trkpt><trkpt lat="46.2421637" lon="8.2849373"><ele>1360.3333333333333</ele><time>2026-05-03T09:25:45.131Z</time></trkpt><trkpt lat="46.2421658" lon="8.2850394"><ele>1359.5</ele><time>2026-05-03T09:25:46.136Z</time></trkpt><trkpt lat="46.2421531" lon="8.2851685"><ele>1358.6666666666665</ele><time>2026-05-03T09:25:48.132Z</time></trkpt><trkpt lat="46.2421559" lon="8.2852782"><ele>1357.8333333333333</ele><time>2026-05-03T09:25:53.13Z</time></trkpt><trkpt lat="46.2421484" lon="8.2853706"><ele>1357.0</ele><time>2026-05-03T09:25:55.131Z</time></trkpt><trkpt lat="46.2421125" lon="8.285478"><ele>1356.3333333333333</ele><time>2026-05-03T09:25:57.125Z</time></trkpt><trkpt lat="46.2420819" lon="8.2855995"><ele>1355.6666666666665</ele><time>2026-05-03T09:25:59.126Z</time></trkpt><trkpt lat="46.242087" lon="8.2857455"><ele>1355.0</ele><time>2026-05-03T09:26:01.129Z</time></trkpt><trkpt lat="46.2421001" lon="8.2858967"><ele>1354.3333333333333</ele><time>2026-05-03T09:26:03.13Z</time></trkpt><trkpt lat="46.2421033" lon="8.285993"><ele>1353.6666666666667</ele><time>2026-05-03T09:26:05.132Z</time></trkpt><trkpt lat="46.2420768" lon="8.286099"><ele>1353.0</ele><time>2026-05-03T09:26:08.132Z</time></trkpt><trkpt lat="46.2420604" lon="8.2861874"><ele>1353.0</ele><time>2026-05-03T09:26:12.136Z</time></trkpt><trkpt lat="46.2420269" lon="8.2862802"><ele>1353.0</ele><time>2026-05-03T09:26:15.131Z</time></trkpt><trkpt lat="46.2419671" lon="8.2863307"><ele>1353.0</ele><time>2026-05-03T09:26:19.136Z</time></trkpt><trkpt lat="46.2419538" lon="8.2864197"><ele>1353.0</ele><time>2026-05-03T09:26:33.135Z</time></trkpt><trkpt lat="46.2419923" lon="8.2863444"><ele>1353.0</ele><time>2026-05-03T09:26:51.152Z</time></trkpt><trkpt lat="46.2420621" lon="8.2863373"><ele>1353.0</ele><time>2026-05-03T09:26:55.151Z</time></trkpt><trkpt lat="46.2420811" lon="8.2862439"><ele>1353.0</ele><time>2026-05-03T09:27:01.152Z</time></trkpt><trkpt lat="46.2420534" lon="8.2861476"><ele>1353.0</ele><time>2026-05-03T09:27:13.143Z</time></trkpt><trkpt lat="46.2419794" lon="8.2861889"><ele>1353.0</ele><time>2026-05-03T09:27:17.146Z</time></trkpt><trkpt lat="46.2419697" lon="8.286321"><ele>1353.0</ele><time>2026-05-03T09:27:20.143Z</time></trkpt><trkpt lat="46.2419254" lon="8.2864016"><ele>1353.0</ele><time>2026-05-03T09:27:23.147Z</time></trkpt><trkpt lat="46.2418755" lon="8.2864686"><ele>1353.0</ele><time>2026-05-03T09:27:26.149Z</time></trkpt><trkpt lat="46.2418295" lon="8.2865499"><ele>1353.0</ele><time>2026-05-03T09:27:29.152Z</time></trkpt><trkpt lat="46.2417787" lon="8.2866099"><ele>1353.0</ele><time>2026-05-03T09:27:33.147Z</time></trkpt><trkpt lat="46.2417665" lon="8.286709"><ele>1352.857142857143</ele><time>2026-05-03T09:29:07.144Z</time></trkpt><trkpt lat="46.2418063" lon="8.2867836"><ele>1352.7142857142856</ele><time>2026-05-03T09:29:36.158Z</time></trkpt><trkpt lat="46.2418802" lon="8.2867777"><ele>1352.5714285714284</ele><time>2026-05-03T09:30:18.161Z</time></trkpt><trkpt lat="46.2418802" lon="8.2867777"><ele>1352.4285714285716</ele><time>2026-05-03T09:30:18.161Z</time></trkpt><trkpt lat="46.2418973" lon="8.2868705"><ele>1352.2857142857142</ele><time>2026-05-03T09:31:44.159Z</time></trkpt><trkpt lat="46.2418186" lon="8.2868161"><ele>1352.142857142857</ele><time>2026-05-03T09:31:53.145Z</time></trkpt><trkpt lat="46.2418439" lon="8.2869757"><ele>1352.0</ele><time>2026-05-03T09:33:23.156Z</time></trkpt><trkpt lat="46.241874" lon="8.2871508"><ele>1351.3333333333335</ele><time>2026-05-03T09:33:25.151Z</time></trkpt><trkpt lat="46.241891" lon="8.2873168"><ele>1350.6666666666667</ele><time>2026-05-03T09:33:27.147Z</time></trkpt><trkpt lat="46.2418589" lon="8.2874288"><ele>1350.0</ele><time>2026-05-03T09:33:29.152Z</time></trkpt><trkpt lat="46.2417911" lon="8.2875074"><ele>1349.3333333333333</ele><time>2026-05-03T09:33:31.156Z</time></trkpt><trkpt lat="46.2417294" lon="8.2875879"><ele>1348.6666666666665</ele><time>2026-05-03T09:33:33.151Z</time></trkpt><trkpt lat="46.2416935" lon="8.2876844"><ele>1348.0</ele><time>2026-05-03T09:33:35.153Z</time></trkpt><trkpt lat="46.2416681" lon="8.2877948"><ele>1348.0</ele><time>2026-05-03T09:33:37.15Z</time></trkpt><trkpt lat="46.2416721" lon="8.2879479"><ele>1348.0</ele><time>2026-05-03T09:33:39.154Z</time></trkpt><trkpt lat="46.2417482" lon="8.2881003"><ele>1348.0</ele><time>2026-05-03T09:33:41.156Z</time></trkpt><trkpt lat="46.2418124" lon="8.2881787"><ele>1348.0</ele><time>2026-05-03T09:33:42.153Z</time></trkpt><trkpt lat="46.2418779" lon="8.2882669"><ele>1348.0</ele><time>2026-05-03T09:33:43.151Z</time></trkpt><trkpt lat="46.2419551" lon="8.28836"><ele>1345.2</ele><time>2026-05-03T09:33:44.152Z</time></trkpt><trkpt lat="46.2420289" lon="8.2884462"><ele>1342.4</ele><time>2026-05-03T09:33:45.15Z</time></trkpt><trkpt lat="46.2420928" lon="8.2885204"><ele>1339.6000000000001</ele><time>2026-05-03T09:33:46.144Z</time></trkpt><trkpt lat="46.2421451" lon="8.2886141"><ele>1336.8000000000002</ele><time>2026-05-03T09:33:47.154Z</time></trkpt><trkpt lat="46.2422155" lon="8.2887121"><ele>1334.0</ele><time>2026-05-03T09:33:48.165Z</time></trkpt><trkpt lat="46.2422797" lon="8.2888167"><ele>1336.3333333333335</ele><time>2026-05-03T09:33:49.155Z</time></trkpt><trkpt lat="46.2423492" lon="8.2889052"><ele>1338.6666666666667</ele><time>2026-05-03T09:33:50.152Z</time></trkpt><trkpt lat="46.2424189" lon="8.2889844"><ele>1341.0</ele><time>2026-05-03T09:33:51.153Z</time></trkpt><trkpt lat="46.2424849" lon="8.2890715"><ele>1343.3333333333333</ele><time>2026-05-03T09:33:52.151Z</time></trkpt><trkpt lat="46.2425451" lon="8.2891768"><ele>1345.6666666666665</ele><time>2026-05-03T09:33:53.138Z</time></trkpt><trkpt lat="46.2425955" lon="8.2892696"><ele>1348.0</ele><time>2026-05-03T09:33:54.14Z</time></trkpt><trkpt lat="46.2426602" lon="8.2893813"><ele>1348.0</ele><time>2026-05-03T09:33:55.141Z</time></trkpt><trkpt lat="46.2427156" lon="8.2894805"><ele>1348.0</ele><time>2026-05-03T09:33:56.133Z</time></trkpt><trkpt lat="46.2427747" lon="8.2895851"><ele>1348.0</ele><time>2026-05-03T09:33:57.137Z</time></trkpt><trkpt lat="46.2428177" lon="8.2896871"><ele>1348.0</ele><time>2026-05-03T09:33:58.143Z</time></trkpt><trkpt lat="46.2428485" lon="8.2897756"><ele>1348.0</ele><time>2026-05-03T09:33:59.141Z</time></trkpt><trkpt lat="46.2428802" lon="8.2898642"><ele>1348.0</ele><time>2026-05-03T09:34:00.14Z</time></trkpt><trkpt lat="46.2429215" lon="8.2899739"><ele>1344.6666666666665</ele><time>2026-05-03T09:34:02.146Z</time></trkpt><trkpt lat="46.2429573" lon="8.2900808"><ele>1341.3333333333333</ele><time>2026-05-03T09:34:04.138Z</time></trkpt><trkpt lat="46.2430079" lon="8.2901834"><ele>1338.0</ele><time>2026-05-03T09:34:06.14Z</time></trkpt><trkpt lat="46.2430653" lon="8.2902822"><ele>1334.6666666666667</ele><time>2026-05-03T09:34:08.144Z</time></trkpt><trkpt lat="46.2431074" lon="8.2903504"><ele>1331.3333333333335</ele><time>2026-05-03T09:34:10.146Z</time></trkpt><trkpt lat="46.2430685" lon="8.2904251"><ele>1328.0</ele><time>2026-05-03T09:34:20.141Z</time></trkpt><trkpt lat="46.2430691" lon="8.2905233"><ele>1324.6000000000001</ele><time>2026-05-03T09:34:26.147Z</time></trkpt><trkpt lat="46.2430711" lon="8.2906442"><ele>1321.2</ele><time>2026-05-03T09:34:29.148Z</time></trkpt><trkpt lat="46.2430715" lon="8.290756"><ele>1317.8</ele><time>2026-05-03T09:34:31.147Z</time></trkpt><trkpt lat="46.2430439" lon="8.2909164"><ele>1314.4</ele><time>2026-05-03T09:34:33.144Z</time></trkpt><trkpt lat="46.2430456" lon="8.2910931"><ele>1311.0</ele><time>2026-05-03T09:34:35.14Z</time></trkpt><trkpt lat="46.2430282" lon="8.2912731"><ele>1311.0</ele><time>2026-05-03T09:34:37.148Z</time></trkpt><trkpt lat="46.243012" lon="8.2913661"><ele>1311.0</ele><time>2026-05-03T09:34:38.147Z</time></trkpt><trkpt lat="46.2429922" lon="8.2914586"><ele>1311.0</ele><time>2026-05-03T09:34:39.148Z</time></trkpt><trkpt lat="46.2429853" lon="8.291564"><ele>1311.0</ele><time>2026-05-03T09:34:40.152Z</time></trkpt><trkpt lat="46.2429762" lon="8.2916763"><ele>1311.0</ele><time>2026-05-03T09:34:41.135Z</time></trkpt><trkpt lat="46.2429702" lon="8.2918083"><ele>1311.0</ele><time>2026-05-03T09:34:42.138Z</time></trkpt><trkpt lat="46.2429526" lon="8.2919221"><ele>1309.8333333333333</ele><time>2026-05-03T09:34:43.136Z</time></trkpt><trkpt lat="46.2429337" lon="8.2920321"><ele>1308.6666666666667</ele><time>2026-05-03T09:34:44.132Z</time></trkpt><trkpt lat="46.2429186" lon="8.2921413"><ele>1307.5</ele><time>2026-05-03T09:34:45.138Z</time></trkpt><trkpt lat="46.2429135" lon="8.292263"><ele>1306.3333333333335</ele><time>2026-05-03T09:34:46.142Z</time></trkpt><trkpt lat="46.2429099" lon="8.2923997"><ele>1305.1666666666667</ele><time>2026-05-03T09:34:47.137Z</time></trkpt><trkpt lat="46.2429177" lon="8.29254"><ele>1304.0</ele><time>2026-05-03T09:34:48.139Z</time></trkpt><trkpt lat="46.2429219" lon="8.2926744"><ele>1303.0</ele><time>2026-05-03T09:34:49.142Z</time></trkpt><trkpt lat="46.2429344" lon="8.292787"><ele>1302.0</ele><time>2026-05-03T09:34:50.167Z</time></trkpt><trkpt lat="46.2429365" lon="8.2929307"><ele>1301.0</ele><time>2026-05-03T09:34:52.133Z</time></trkpt><trkpt lat="46.24292" lon="8.2930507"><ele>1300.0</ele><time>2026-05-03T09:34:55.137Z</time></trkpt><trkpt lat="46.242955" lon="8.2931761"><ele>1299.0</ele><time>2026-05-03T09:34:58.138Z</time></trkpt><trkpt lat="46.2429844" lon="8.2932971"><ele>1298.0</ele><time>2026-05-03T09:35:01.142Z</time></trkpt><trkpt lat="46.2430101" lon="8.2933827"><ele>1297.5</ele><time>2026-05-03T09:35:03.139Z</time></trkpt><trkpt lat="46.2430091" lon="8.2934877"><ele>1297.0</ele><time>2026-05-03T09:35:05.13Z</time></trkpt><trkpt lat="46.243014" lon="8.2935947"><ele>1296.5</ele><time>2026-05-03T09:35:07.133Z</time></trkpt><trkpt lat="46.2430191" lon="8.2936919"><ele>1296.0</ele><time>2026-05-03T09:35:10.135Z</time></trkpt><trkpt lat="46.2430153" lon="8.2938118"><ele>1295.5</ele><time>2026-05-03T09:35:14.152Z</time></trkpt><trkpt lat="46.2430047" lon="8.2939089"><ele>1295.0</ele><time>2026-05-03T09:35:16.145Z</time></trkpt><trkpt lat="46.2429857" lon="8.2940362"><ele>1295.0</ele><time>2026-05-03T09:35:18.156Z</time></trkpt><trkpt lat="46.2429549" lon="8.294126"><ele>1295.0</ele><time>2026-05-03T09:35:20.153Z</time></trkpt><trkpt lat="46.2429221" lon="8.2942564"><ele>1295.0</ele><time>2026-05-03T09:35:22.14Z</time></trkpt><trkpt lat="46.2429098" lon="8.2943541"><ele>1295.0</ele><time>2026-05-03T09:35:23.151Z</time></trkpt><trkpt lat="46.2428915" lon="8.2944548"><ele>1295.0</ele><time>2026-05-03T09:35:24.152Z</time></trkpt><trkpt lat="46.2428757" lon="8.2945892"><ele>1295.0</ele><time>2026-05-03T09:35:25.155Z</time></trkpt><trkpt lat="46.2428696" lon="8.2947691"><ele>1295.2</ele><time>2026-05-03T09:35:26.153Z</time></trkpt><trkpt lat="46.2428545" lon="8.2949533"><ele>1295.4</ele><time>2026-05-03T09:35:27.15Z</time></trkpt><trkpt lat="46.242853" lon="8.2951217"><ele>1295.6</ele><time>2026-05-03T09:35:28.154Z</time></trkpt><trkpt lat="46.2428514" lon="8.2952624"><ele>1295.8</ele><time>2026-05-03T09:35:29.152Z</time></trkpt><trkpt lat="46.2428467" lon="8.2953824"><ele>1296.0</ele><time>2026-05-03T09:35:30.152Z</time></trkpt><trkpt lat="46.2428282" lon="8.2955451"><ele>1294.8333333333333</ele><time>2026-05-03T09:35:32.15Z</time></trkpt><trkpt lat="46.2428891" lon="8.295676"><ele>1293.6666666666667</ele><time>2026-05-03T09:35:34.158Z</time></trkpt><trkpt lat="46.2429468" lon="8.2957409"><ele>1292.5</ele><time>2026-05-03T09:35:35.155Z</time></trkpt><trkpt lat="46.2430102" lon="8.295814"><ele>1291.3333333333335</ele><time>2026-05-03T09:35:36.167Z</time></trkpt><trkpt lat="46.2430781" lon="8.2958848"><ele>1290.1666666666667</ele><time>2026-05-03T09:35:37.154Z</time></trkpt><trkpt lat="46.2431431" lon="8.2959528"><ele>1289.0</ele><time>2026-05-03T09:35:38.166Z</time></trkpt><trkpt lat="46.2432213" lon="8.296036"><ele>1296.0</ele><time>2026-05-03T09:35:39.171Z</time></trkpt><trkpt lat="46.2433077" lon="8.2961105"><ele>1303.0</ele><time>2026-05-03T09:35:40.151Z</time></trkpt><trkpt lat="46.2433965" lon="8.2961644"><ele>1310.0</ele><time>2026-05-03T09:35:41.15Z</time></trkpt><trkpt lat="46.2434815" lon="8.2962185"><ele>1317.0</ele><time>2026-05-03T09:35:42.154Z</time></trkpt><trkpt lat="46.2435773" lon="8.2962763"><ele>1324.0</ele><time>2026-05-03T09:35:43.151Z</time></trkpt><trkpt lat="46.243674" lon="8.2963031"><ele>1324.0</ele><time>2026-05-03T09:35:44.155Z</time></trkpt><trkpt lat="46.2437674" lon="8.2963221"><ele>1324.0</ele><time>2026-05-03T09:35:45.148Z</time></trkpt><trkpt lat="46.2438573" lon="8.296341"><ele>1324.0</ele><time>2026-05-03T09:35:46.153Z</time></trkpt><trkpt lat="46.2439515" lon="8.2963529"><ele>1324.0</ele><time>2026-05-03T09:35:47.151Z</time></trkpt><trkpt lat="46.2440495" lon="8.2963644"><ele>1324.0</ele><time>2026-05-03T09:35:48.155Z</time></trkpt><trkpt lat="46.2441421" lon="8.2963664"><ele>1324.6666666666665</ele><time>2026-05-03T09:35:49.157Z</time></trkpt><trkpt lat="46.2442199" lon="8.2963548"><ele>1325.3333333333333</ele><time>2026-05-03T09:35:50.149Z</time></trkpt><trkpt lat="46.2442862" lon="8.2963492"><ele>1326.0</ele><time>2026-05-03T09:35:51.153Z</time></trkpt><trkpt lat="46.2443823" lon="8.2963465"><ele>1326.6666666666667</ele><time>2026-05-03T09:35:53.151Z</time></trkpt><trkpt lat="46.2444605" lon="8.2963716"><ele>1327.3333333333335</ele><time>2026-05-03T09:35:55.155Z</time></trkpt><trkpt lat="46.2445365" lon="8.296383"><ele>1328.0</ele><time>2026-05-03T09:35:57.155Z</time></trkpt><trkpt lat="46.2446312" lon="8.2963711"><ele>1328.0</ele><time>2026-05-03T09:35:59.151Z</time></trkpt><trkpt lat="46.2447125" lon="8.2963368"><ele>1328.0</ele><time>2026-05-03T09:36:01.155Z</time></trkpt><trkpt lat="46.2448005" lon="8.2963274"><ele>1328.0</ele><time>2026-05-03T09:36:03.155Z</time></trkpt><trkpt lat="46.2448827" lon="8.2963334"><ele>1328.0</ele><time>2026-05-03T09:36:05.161Z</time></trkpt><trkpt lat="46.2449666" lon="8.2963729"><ele>1328.0</ele><time>2026-05-03T09:36:08.152Z</time></trkpt><trkpt lat="46.2450119" lon="8.2964729"><ele>1328.0</ele><time>2026-05-03T09:36:11.152Z</time></trkpt><trkpt lat="46.2450892" lon="8.2964907"><ele>1325.5</ele><time>2026-05-03T09:36:13.156Z</time></trkpt><trkpt lat="46.245167" lon="8.2965034"><ele>1323.0</ele><time>2026-05-03T09:36:15.153Z</time></trkpt><trkpt lat="46.2452217" lon="8.296556"><ele>1320.5</ele><time>2026-05-03T09:36:16.159Z</time></trkpt><trkpt lat="46.2452918" lon="8.2966117"><ele>1318.0</ele><time>2026-05-03T09:36:17.162Z</time></trkpt><trkpt lat="46.2453729" lon="8.2966752"><ele>1315.5</ele><time>2026-05-03T09:36:18.159Z</time></trkpt><trkpt lat="46.2454523" lon="8.2967273"><ele>1313.0</ele><time>2026-05-03T09:36:19.166Z</time></trkpt><trkpt lat="46.2455282" lon="8.2967667"><ele>1313.0</ele><time>2026-05-03T09:36:20.158Z</time></trkpt><trkpt lat="46.2455953" lon="8.2968114"><ele>1313.0</ele><time>2026-05-03T09:36:21.164Z</time></trkpt><trkpt lat="46.2456662" lon="8.2968388"><ele>1313.0</ele><time>2026-05-03T09:36:22.158Z</time></trkpt><trkpt lat="46.2457373" lon="8.2968528"><ele>1313.0</ele><time>2026-05-03T09:36:23.174Z</time></trkpt><trkpt lat="46.2458483" lon="8.2968464"><ele>1313.0</ele><time>2026-05-03T09:36:25.167Z</time></trkpt><trkpt lat="46.2459379" lon="8.2968518"><ele>1313.0</ele><time>2026-05-03T09:36:29.159Z</time></trkpt><trkpt lat="46.2460024" lon="8.2968734"><ele>1314.3333333333335</ele><time>2026-05-03T09:36:31.159Z</time></trkpt><trkpt lat="46.2460735" lon="8.2968689"><ele>1315.6666666666667</ele><time>2026-05-03T09:36:33.155Z</time></trkpt><trkpt lat="46.2461468" lon="8.296882"><ele>1317.0</ele><time>2026-05-03T09:36:38.161Z</time></trkpt><trkpt lat="46.2462198" lon="8.2968852"><ele>1318.3333333333333</ele><time>2026-05-03T09:36:40.169Z</time></trkpt><trkpt lat="46.2462999" lon="8.2968845"><ele>1319.6666666666665</ele><time>2026-05-03T09:36:42.164Z</time></trkpt><trkpt lat="46.2463841" lon="8.2968828"><ele>1321.0</ele><time>2026-05-03T09:36:44.166Z</time></trkpt><trkpt lat="46.2464683" lon="8.296887"><ele>1323.0</ele><time>2026-05-03T09:36:46.16Z</time></trkpt><trkpt lat="46.246545" lon="8.296908"><ele>1325.0</ele><time>2026-05-03T09:36:48.161Z</time></trkpt><trkpt lat="46.246619" lon="8.2969261"><ele>1327.0</ele><time>2026-05-03T09:36:50.164Z</time></trkpt><trkpt lat="46.2467137" lon="8.2969472"><ele>1329.0</ele><time>2026-05-03T09:36:52.159Z</time></trkpt><trkpt lat="46.2467912" lon="8.2969823"><ele>1331.0</ele><time>2026-05-03T09:36:54.171Z</time></trkpt><trkpt lat="46.2468477" lon="8.297043"><ele>1333.0</ele><time>2026-05-03T09:36:57.162Z</time></trkpt><trkpt lat="46.2469077" lon="8.2970869"><ele>1333.0</ele><time>2026-05-03T09:36:59.162Z</time></trkpt><trkpt lat="46.2469661" lon="8.2971373"><ele>1333.0</ele><time>2026-05-03T09:37:01.163Z</time></trkpt><trkpt lat="46.247052" lon="8.2971782"><ele>1333.0</ele><time>2026-05-03T09:37:03.157Z</time></trkpt><trkpt lat="46.2471615" lon="8.2972097"><ele>1333.0</ele><time>2026-05-03T09:37:05.157Z</time></trkpt><trkpt lat="46.2472759" lon="8.2972293"><ele>1333.0</ele><time>2026-05-03T09:37:07.154Z</time></trkpt><trkpt lat="46.2473795" lon="8.2972536"><ele>1331.2</ele><time>2026-05-03T09:37:09.15Z</time></trkpt><trkpt lat="46.2474718" lon="8.2972934"><ele>1329.4</ele><time>2026-05-03T09:37:11.135Z</time></trkpt><trkpt lat="46.2475993" lon="8.2973135"><ele>1327.6000000000001</ele><time>2026-05-03T09:37:13.137Z</time></trkpt><trkpt lat="46.2476832" lon="8.2973257"><ele>1325.8000000000002</ele><time>2026-05-03T09:37:14.137Z</time></trkpt><trkpt lat="46.2477565" lon="8.2973322"><ele>1324.0</ele><time>2026-05-03T09:37:15.142Z</time></trkpt><trkpt lat="46.2478351" lon="8.2973574"><ele>1324.0</ele><time>2026-05-03T09:37:16.143Z</time></trkpt><trkpt lat="46.2479093" lon="8.2973977"><ele>1324.0</ele><time>2026-05-03T09:37:17.14Z</time></trkpt><trkpt lat="46.2479835" lon="8.2974475"><ele>1324.0</ele><time>2026-05-03T09:37:18.141Z</time></trkpt><trkpt lat="46.2480466" lon="8.2974903"><ele>1324.0</ele><time>2026-05-03T09:37:19.15Z</time></trkpt><trkpt lat="46.2481173" lon="8.2975297"><ele>1324.0</ele><time>2026-05-03T09:37:20.144Z</time></trkpt><trkpt lat="46.2481898" lon="8.2975521"><ele>1324.0</ele><time>2026-05-03T09:37:21.143Z</time></trkpt><trkpt lat="46.2482616" lon="8.297578"><ele>1326.2</ele><time>2026-05-03T09:37:22.14Z</time></trkpt><trkpt lat="46.24838" lon="8.2975987"><ele>1328.4</ele><time>2026-05-03T09:37:24.144Z</time></trkpt><trkpt lat="46.2484807" lon="8.2976207"><ele>1330.6</ele><time>2026-05-03T09:37:26.138Z</time></trkpt><trkpt lat="46.2485428" lon="8.2976446"><ele>1332.8</ele><time>2026-05-03T09:37:28.144Z</time></trkpt><trkpt lat="46.248605" lon="8.29773"><ele>1335.0</ele><time>2026-05-03T09:37:39.138Z</time></trkpt><trkpt lat="46.2486824" lon="8.2977524"><ele>1335.0</ele><time>2026-05-03T09:37:41.143Z</time></trkpt><trkpt lat="46.2487565" lon="8.2977832"><ele>1335.0</ele><time>2026-05-03T09:37:44.134Z</time></trkpt><trkpt lat="46.2488042" lon="8.2978935"><ele>1335.0</ele><time>2026-05-03T09:37:47.134Z</time></trkpt><trkpt lat="46.2489499" lon="8.297916"><ele>1335.0</ele><time>2026-05-03T09:37:49.144Z</time></trkpt><trkpt lat="46.2490154" lon="8.2978946"><ele>1335.0</ele><time>2026-05-03T09:37:50.132Z</time></trkpt><trkpt lat="46.249079" lon="8.2979102"><ele>1335.0</ele><time>2026-05-03T09:37:52.131Z</time></trkpt><trkpt lat="46.2491642" lon="8.2978836"><ele>1335.8</ele><time>2026-05-03T09:37:54.124Z</time></trkpt><trkpt lat="46.2492297" lon="8.297881"><ele>1336.6</ele><time>2026-05-03T09:37:55.122Z</time></trkpt><trkpt lat="46.2493325" lon="8.2978084"><ele>1337.4</ele><time>2026-05-03T09:37:56.14Z</time></trkpt><trkpt lat="46.2494283" lon="8.2977527"><ele>1338.2</ele><time>2026-05-03T09:37:57.125Z</time></trkpt><trkpt lat="46.2495376" lon="8.2977205"><ele>1339.0</ele><time>2026-05-03T09:37:58.132Z</time></trkpt><trkpt lat="46.2496251" lon="8.2976796"><ele>1339.0</ele><time>2026-05-03T09:37:59.132Z</time></trkpt><trkpt lat="46.2497144" lon="8.2976591"><ele>1339.0</ele><time>2026-05-03T09:38:00.131Z</time></trkpt><trkpt lat="46.2497963" lon="8.2976225"><ele>1339.0</ele><time>2026-05-03T09:38:01.135Z</time></trkpt><trkpt lat="46.2499024" lon="8.2975848"><ele>1339.0</ele><time>2026-05-03T09:38:03.136Z</time></trkpt><trkpt lat="46.2499736" lon="8.2975705"><ele>1339.0</ele><time>2026-05-03T09:38:05.134Z</time></trkpt><trkpt lat="46.2500407" lon="8.2976104"><ele>1339.0</ele><time>2026-05-03T09:38:07.139Z</time></trkpt><trkpt lat="46.2501161" lon="8.2976503"><ele>1340.4</ele><time>2026-05-03T09:38:09.139Z</time></trkpt><trkpt lat="46.2501849" lon="8.29768"><ele>1341.8000000000002</ele><time>2026-05-03T09:38:11.135Z</time></trkpt><trkpt lat="46.2502833" lon="8.2976382"><ele>1343.1999999999998</ele><time>2026-05-03T09:38:13.144Z</time></trkpt><trkpt lat="46.2503731" lon="8.2976107"><ele>1344.6</ele><time>2026-05-03T09:38:15.139Z</time></trkpt><trkpt lat="46.2504831" lon="8.2975837"><ele>1346.0</ele><time>2026-05-03T09:38:17.146Z</time></trkpt><trkpt lat="46.2505992" lon="8.2975346"><ele>1344.6</ele><time>2026-05-03T09:38:19.147Z</time></trkpt><trkpt lat="46.2507124" lon="8.2975154"><ele>1343.1999999999998</ele><time>2026-05-03T09:38:21.145Z</time></trkpt><trkpt lat="46.2508225" lon="8.2974655"><ele>1341.8000000000002</ele><time>2026-05-03T09:38:23.145Z</time></trkpt><trkpt lat="46.2508865" lon="8.2974213"><ele>1340.4</ele><time>2026-05-03T09:38:24.147Z</time></trkpt><trkpt lat="46.2509821" lon="8.2973971"><ele>1339.0</ele><time>2026-05-03T09:38:26.145Z</time></trkpt><trkpt lat="46.2510758" lon="8.297352"><ele>1339.0</ele><time>2026-05-03T09:38:28.154Z</time></trkpt><trkpt lat="46.2511369" lon="8.2973132"><ele>1339.0</ele><time>2026-05-03T09:38:29.139Z</time></trkpt><trkpt lat="46.2512112" lon="8.297279"><ele>1339.0</ele><time>2026-05-03T09:38:30.16Z</time></trkpt><trkpt lat="46.2512948" lon="8.2972473"><ele>1339.0</ele><time>2026-05-03T09:38:31.142Z</time></trkpt><trkpt lat="46.2513794" lon="8.2972113"><ele>1339.0</ele><time>2026-05-03T09:38:32.141Z</time></trkpt><trkpt lat="46.2514947" lon="8.2971468"><ele>1339.0</ele><time>2026-05-03T09:38:33.153Z</time></trkpt><trkpt lat="46.2515976" lon="8.2970779"><ele>1339.8000000000002</ele><time>2026-05-03T09:38:34.151Z</time></trkpt><trkpt lat="46.251707" lon="8.297005"><ele>1340.6000000000001</ele><time>2026-05-03T09:38:35.138Z</time></trkpt><trkpt lat="46.2518203" lon="8.2969419"><ele>1341.4</ele><time>2026-05-03T09:38:36.142Z</time></trkpt><trkpt lat="46.2519274" lon="8.2968795"><ele>1342.2</ele><time>2026-05-03T09:38:37.146Z</time></trkpt><trkpt lat="46.2520081" lon="8.2968348"><ele>1343.0</ele><time>2026-05-03T09:38:38.15Z</time></trkpt><trkpt lat="46.2520796" lon="8.2967991"><ele>1343.0</ele><time>2026-05-03T09:38:39.147Z</time></trkpt><trkpt lat="46.2521563" lon="8.2967653"><ele>1343.0</ele><time>2026-05-03T09:38:40.133Z</time></trkpt><trkpt lat="46.2522446" lon="8.2967337"><ele>1343.0</ele><time>2026-05-03T09:38:41.134Z</time></trkpt><trkpt lat="46.2523258" lon="8.2966999"><ele>1343.0</ele><time>2026-05-03T09:38:42.135Z</time></trkpt><trkpt lat="46.2523921" lon="8.296664"><ele>1343.0</ele><time>2026-05-03T09:38:43.127Z</time></trkpt><trkpt lat="46.252512" lon="8.2966132"><ele>1341.0</ele><time>2026-05-03T09:38:45.138Z</time></trkpt><trkpt lat="46.2525775" lon="8.2965957"><ele>1339.0</ele><time>2026-05-03T09:38:46.151Z</time></trkpt><trkpt lat="46.2526403" lon="8.2965613"><ele>1337.0</ele><time>2026-05-03T09:38:47.133Z</time></trkpt><trkpt lat="46.252715" lon="8.2965298"><ele>1335.0</ele><time>2026-05-03T09:38:48.14Z</time></trkpt><trkpt lat="46.2527954" lon="8.2964759"><ele>1333.0</ele><time>2026-05-03T09:38:49.137Z</time></trkpt><trkpt lat="46.2528673" lon="8.2964457"><ele>1331.0</ele><time>2026-05-03T09:38:50.14Z</time></trkpt><trkpt lat="46.2529754" lon="8.2964347"><ele>1331.0</ele><time>2026-05-03T09:38:51.134Z</time></trkpt><trkpt lat="46.2530598" lon="8.2964611"><ele>1331.0</ele><time>2026-05-03T09:38:52.137Z</time></trkpt><trkpt lat="46.2531503" lon="8.2964721"><ele>1331.0</ele><time>2026-05-03T09:38:53.142Z</time></trkpt><trkpt lat="46.2532197" lon="8.2964851"><ele>1331.0</ele><time>2026-05-03T09:38:54.15Z</time></trkpt><trkpt lat="46.253313" lon="8.2965187"><ele>1331.0</ele><time>2026-05-03T09:38:56.147Z</time></trkpt><trkpt lat="46.2534018" lon="8.2965296"><ele>1331.0</ele><time>2026-05-03T09:38:58.152Z</time></trkpt><trkpt lat="46.2534616" lon="8.2964832"><ele>1330.1999999999998</ele><time>2026-05-03T09:38:59.139Z</time></trkpt><trkpt lat="46.253577" lon="8.2964345"><ele>1329.3999999999999</ele><time>2026-05-03T09:39:01.146Z</time></trkpt><trkpt lat="46.2536438" lon="8.2964072"><ele>1328.6</ele><time>2026-05-03T09:39:02.145Z</time></trkpt><trkpt lat="46.253732" lon="8.2963852"><ele>1327.8</ele><time>2026-05-03T09:39:03.152Z</time></trkpt><trkpt lat="46.2538181" lon="8.2963521"><ele>1327.0</ele><time>2026-05-03T09:39:04.136Z</time></trkpt><trkpt lat="46.2539157" lon="8.2963033"><ele>1325.0</ele><time>2026-05-03T09:39:05.13Z</time></trkpt><trkpt lat="46.2540044" lon="8.296268"><ele>1323.0</ele><time>2026-05-03T09:39:06.133Z</time></trkpt><trkpt lat="46.2540824" lon="8.2962875"><ele>1321.0</ele><time>2026-05-03T09:39:07.13Z</time></trkpt><trkpt lat="46.2541684" lon="8.296259"><ele>1319.0</ele><time>2026-05-03T09:39:08.136Z</time></trkpt><trkpt lat="46.2542772" lon="8.2961919"><ele>1317.0</ele><time>2026-05-03T09:39:09.148Z</time></trkpt><trkpt lat="46.2543808" lon="8.2960983"><ele>1317.0</ele><time>2026-05-03T09:39:10.144Z</time></trkpt><trkpt lat="46.2544889" lon="8.2960057"><ele>1317.0</ele><time>2026-05-03T09:39:11.141Z</time></trkpt><trkpt lat="46.2545857" lon="8.2959497"><ele>1317.0</ele><time>2026-05-03T09:39:12.143Z</time></trkpt><trkpt lat="46.2546769" lon="8.295896"><ele>1317.0</ele><time>2026-05-03T09:39:13.154Z</time></trkpt><trkpt lat="46.25477" lon="8.2958373"><ele>1317.0</ele><time>2026-05-03T09:39:14.13Z</time></trkpt><trkpt lat="46.254859" lon="8.2957871"><ele>1315.6</ele><time>2026-05-03T09:39:15.158Z</time></trkpt><trkpt lat="46.2549434" lon="8.2957279"><ele>1314.1999999999998</ele><time>2026-05-03T09:39:16.149Z</time></trkpt><trkpt lat="46.2550186" lon="8.295666"><ele>1312.8</ele><time>2026-05-03T09:39:17.148Z</time></trkpt><trkpt lat="46.2550827" lon="8.2956008"><ele>1311.4</ele><time>2026-05-03T09:39:18.138Z</time></trkpt><trkpt lat="46.2551393" lon="8.295538"><ele>1310.0</ele><time>2026-05-03T09:39:19.149Z</time></trkpt><trkpt lat="46.25524" lon="8.2954311"><ele>1310.0</ele><time>2026-05-03T09:39:21.16Z</time></trkpt><trkpt lat="46.2552982" lon="8.2953507"><ele>1310.0</ele><time>2026-05-03T09:39:22.149Z</time></trkpt><trkpt lat="46.255352" lon="8.295292"><ele>1310.0</ele><time>2026-05-03T09:39:23.15Z</time></trkpt><trkpt lat="46.2553983" lon="8.2952298"><ele>1310.0</ele><time>2026-05-03T09:39:24.151Z</time></trkpt><trkpt lat="46.2554927" lon="8.2951244"><ele>1310.0</ele><time>2026-05-03T09:39:26.147Z</time></trkpt><trkpt lat="46.2555389" lon="8.2950565"><ele>1310.0</ele><time>2026-05-03T09:39:27.151Z</time></trkpt><trkpt lat="46.2555914" lon="8.2949694"><ele>1308.6666666666667</ele><time>2026-05-03T09:39:28.152Z</time></trkpt><trkpt lat="46.2556406" lon="8.294874"><ele>1307.3333333333335</ele><time>2026-05-03T09:39:29.168Z</time></trkpt><trkpt lat="46.255689" lon="8.2947891"><ele>1306.0</ele><time>2026-05-03T09:39:30.147Z</time></trkpt><trkpt lat="46.2557349" lon="8.2947236"><ele>1304.6666666666667</ele><time>2026-05-03T09:39:31.152Z</time></trkpt><trkpt lat="46.2558199" lon="8.2946442"><ele>1303.3333333333333</ele><time>2026-05-03T09:39:33.149Z</time></trkpt><trkpt lat="46.2559184" lon="8.2945695"><ele>1302.0</ele><time>2026-05-03T09:39:35.16Z</time></trkpt><trkpt lat="46.2560005" lon="8.2944929"><ele>1302.0</ele><time>2026-05-03T09:39:37.148Z</time></trkpt><trkpt lat="46.2560287" lon="8.2943836"><ele>1302.0</ele><time>2026-05-03T09:39:40.149Z</time></trkpt><trkpt lat="46.256058" lon="8.2942599"><ele>1302.0</ele><time>2026-05-03T09:39:42.146Z</time></trkpt><trkpt lat="46.2560883" lon="8.2941544"><ele>1302.0</ele><time>2026-05-03T09:39:46.138Z</time></trkpt><trkpt lat="46.2560887" lon="8.2940078"><ele>1302.0</ele><time>2026-05-03T09:39:53.138Z</time></trkpt><trkpt lat="46.2560886" lon="8.2938782"><ele>1302.0</ele><time>2026-05-03T09:39:56.152Z</time></trkpt><trkpt lat="46.2561032" lon="8.2937524"><ele>1305.6666666666667</ele><time>2026-05-03T09:39:58.149Z</time></trkpt><trkpt lat="46.2561379" lon="8.2936742"><ele>1309.3333333333333</ele><time>2026-05-03T09:40:00.176Z</time></trkpt><trkpt lat="46.2562108" lon="8.2936448"><ele>1313.0</ele><time>2026-05-03T09:40:03.142Z</time></trkpt><trkpt lat="46.2562697" lon="8.2935333"><ele>1316.6666666666665</ele><time>2026-05-03T09:40:06.138Z</time></trkpt><trkpt lat="46.2563281" lon="8.2934237"><ele>1320.3333333333333</ele><time>2026-05-03T09:40:08.144Z</time></trkpt><trkpt lat="46.2563943" lon="8.2933983"><ele>1324.0</ele><time>2026-05-03T09:40:11.148Z</time></trkpt><trkpt lat="46.2564427" lon="8.2933253"><ele>1324.3333333333333</ele><time>2026-05-03T09:40:14.149Z</time></trkpt><trkpt lat="46.2564855" lon="8.2932521"><ele>1324.6666666666665</ele><time>2026-05-03T09:40:17.15Z</time></trkpt><trkpt lat="46.256525" lon="8.2931571"><ele>1325.0</ele><time>2026-05-03T09:40:22.144Z</time></trkpt><trkpt lat="46.2565892" lon="8.2930814"><ele>1325.3333333333333</ele><time>2026-05-03T09:40:24.15Z</time></trkpt><trkpt lat="46.2566606" lon="8.2930477"><ele>1325.6666666666667</ele><time>2026-05-03T09:40:26.152Z</time></trkpt><trkpt lat="46.2567574" lon="8.2930245"><ele>1326.0</ele><time>2026-05-03T09:40:28.15Z</time></trkpt><trkpt lat="46.2568247" lon="8.2929968"><ele>1326.0</ele><time>2026-05-03T09:40:29.152Z</time></trkpt><trkpt lat="46.2569079" lon="8.2929613"><ele>1326.0</ele><time>2026-05-03T09:40:30.17Z</time></trkpt><trkpt lat="46.2569983" lon="8.2929175"><ele>1326.0</ele><time>2026-05-03T09:40:31.147Z</time></trkpt><trkpt lat="46.2570904" lon="8.292846"><ele>1326.0</ele><time>2026-05-03T09:40:32.148Z</time></trkpt><trkpt lat="46.2571817" lon="8.2927756"><ele>1326.0</ele><time>2026-05-03T09:40:33.157Z</time></trkpt><trkpt lat="46.2572701" lon="8.292706"><ele>1322.6</ele><time>2026-05-03T09:40:34.152Z</time></trkpt><trkpt lat="46.257342" lon="8.2926641"><ele>1319.1999999999998</ele><time>2026-05-03T09:40:35.148Z</time></trkpt><trkpt lat="46.257417" lon="8.292649"><ele>1315.8000000000002</ele><time>2026-05-03T09:40:36.148Z</time></trkpt><trkpt lat="46.2575189" lon="8.2926894"><ele>1312.4</ele><time>2026-05-03T09:40:38.159Z</time></trkpt><trkpt lat="46.257538" lon="8.2928125"><ele>1309.0</ele><time>2026-05-03T09:40:40.154Z</time></trkpt><trkpt lat="46.2575269" lon="8.2929709"><ele>1309.0</ele><time>2026-05-03T09:40:42.157Z</time></trkpt><trkpt lat="46.2574942" lon="8.2930575"><ele>1309.0</ele><time>2026-05-03T09:40:43.159Z</time></trkpt><trkpt lat="46.2574646" lon="8.2932048"><ele>1309.0</ele><time>2026-05-03T09:40:45.156Z</time></trkpt><trkpt lat="46.2574854" lon="8.2933607"><ele>1309.0</ele><time>2026-05-03T09:40:47.154Z</time></trkpt><trkpt lat="46.257418" lon="8.2934504"><ele>1309.0</ele><time>2026-05-03T09:40:49.164Z</time></trkpt><trkpt lat="46.257313" lon="8.2935535"><ele>1307.6</ele><time>2026-05-03T09:40:51.152Z</time></trkpt><trkpt lat="46.257279" lon="8.2936747"><ele>1306.2</ele><time>2026-05-03T09:40:52.158Z</time></trkpt><trkpt lat="46.2572656" lon="8.2938071"><ele>1304.8</ele><time>2026-05-03T09:40:53.152Z</time></trkpt><trkpt lat="46.2572559" lon="8.2939379"><ele>1303.3999999999999</ele><time>2026-05-03T09:40:54.156Z</time></trkpt><trkpt lat="46.2572473" lon="8.2940605"><ele>1302.0</ele><time>2026-05-03T09:40:55.159Z</time></trkpt><trkpt lat="46.2572431" lon="8.2941913"><ele>1298.6666666666667</ele><time>2026-05-03T09:40:56.149Z</time></trkpt><trkpt lat="46.2572435" lon="8.2943199"><ele>1295.3333333333333</ele><time>2026-05-03T09:40:57.154Z</time></trkpt><trkpt lat="46.2572508" lon="8.2944325"><ele>1292.0</ele><time>2026-05-03T09:40:58.159Z</time></trkpt><trkpt lat="46.2572607" lon="8.2945269"><ele>1288.6666666666665</ele><time>2026-05-03T09:40:59.156Z</time></trkpt><trkpt lat="46.2572524" lon="8.294655"><ele>1285.3333333333333</ele><time>2026-05-03T09:41:01.175Z</time></trkpt><trkpt lat="46.2572286" lon="8.2947412"><ele>1282.0</ele><time>2026-05-03T09:41:03.15Z</time></trkpt><trkpt lat="46.2572097" lon="8.2948363"><ele>1280.3999999999999</ele><time>2026-05-03T09:41:07.152Z</time></trkpt><trkpt lat="46.257178" lon="8.2949284"><ele>1278.8</ele><time>2026-05-03T09:41:10.153Z</time></trkpt><trkpt lat="46.2571649" lon="8.2950495"><ele>1277.2</ele><time>2026-05-03T09:41:14.152Z</time></trkpt><trkpt lat="46.2572091" lon="8.2952043"><ele>1275.6</ele><time>2026-05-03T09:41:16.154Z</time></trkpt><trkpt lat="46.25722" lon="8.295354"><ele>1274.0</ele><time>2026-05-03T09:41:18.143Z</time></trkpt><trkpt lat="46.2572134" lon="8.295465"><ele>1274.0</ele><time>2026-05-03T09:41:20.149Z</time></trkpt><trkpt lat="46.2572133" lon="8.2955595"><ele>1274.0</ele><time>2026-05-03T09:41:22.147Z</time></trkpt><trkpt lat="46.2572188" lon="8.2956533"><ele>1274.0</ele><time>2026-05-03T09:41:24.153Z</time></trkpt><trkpt lat="46.2572382" lon="8.2957815"><ele>1274.0</ele><time>2026-05-03T09:41:27.149Z</time></trkpt><trkpt lat="46.2572753" lon="8.2959022"><ele>1274.0</ele><time>2026-05-03T09:41:29.15Z</time></trkpt><trkpt lat="46.2573087" lon="8.2960213"><ele>1274.0</ele><time>2026-05-03T09:41:31.147Z</time></trkpt><trkpt lat="46.2573127" lon="8.2961344"><ele>1272.0</ele><time>2026-05-03T09:41:33.154Z</time></trkpt><trkpt lat="46.2572995" lon="8.2962374"><ele>1270.0</ele><time>2026-05-03T09:41:35.147Z</time></trkpt><trkpt lat="46.2572733" lon="8.2963368"><ele>1268.0</ele><time>2026-05-03T09:41:39.146Z</time></trkpt><trkpt lat="46.2572756" lon="8.2964515"><ele>1266.0</ele><time>2026-05-03T09:41:43.148Z</time></trkpt><trkpt lat="46.2573032" lon="8.2965739"><ele>1264.0</ele><time>2026-05-03T09:41:46.152Z</time></trkpt><trkpt lat="46.2573358" lon="8.2966564"><ele>1262.0</ele><time>2026-05-03T09:41:48.151Z</time></trkpt><trkpt lat="46.257354" lon="8.2967559"><ele>1260.6666666666667</ele><time>2026-05-03T09:41:51.145Z</time></trkpt><trkpt lat="46.2573241" lon="8.2968413"><ele>1259.3333333333335</ele><time>2026-05-03T09:41:55.147Z</time></trkpt><trkpt lat="46.257297" lon="8.29696"><ele>1258.0</ele><time>2026-05-03T09:41:58.153Z</time></trkpt><trkpt lat="46.2572823" lon="8.2970506"><ele>1256.6666666666667</ele><time>2026-05-03T09:42:00.148Z</time></trkpt><trkpt lat="46.2572325" lon="8.2971626"><ele>1255.3333333333333</ele><time>2026-05-03T09:42:02.151Z</time></trkpt><trkpt lat="46.2571516" lon="8.2972834"><ele>1254.0</ele><time>2026-05-03T09:42:04.149Z</time></trkpt><trkpt lat="46.2570878" lon="8.2973244"><ele>1251.8333333333333</ele><time>2026-05-03T09:42:12.159Z</time></trkpt><trkpt lat="46.257159" lon="8.2973885"><ele>1249.6666666666667</ele><time>2026-05-03T09:42:20.154Z</time></trkpt><trkpt lat="46.2572429" lon="8.2974102"><ele>1247.5</ele><time>2026-05-03T09:42:22.15Z</time></trkpt><trkpt lat="46.257322" lon="8.2974185"><ele>1245.3333333333335</ele><time>2026-05-03T09:42:24.152Z</time></trkpt><trkpt lat="46.2573522" lon="8.297505"><ele>1243.1666666666667</ele><time>2026-05-03T09:42:30.162Z</time></trkpt><trkpt lat="46.2573164" lon="8.2976238"><ele>1241.0</ele><time>2026-05-03T09:42:33.167Z</time></trkpt><trkpt lat="46.2572805" lon="8.2977137"><ele>1241.0</ele><time>2026-05-03T09:42:35.158Z</time></trkpt><trkpt lat="46.2572161" lon="8.2978149"><ele>1241.0</ele><time>2026-05-03T09:42:37.157Z</time></trkpt><trkpt lat="46.2571725" lon="8.2979257"><ele>1241.0</ele><time>2026-05-03T09:42:39.152Z</time></trkpt><trkpt lat="46.2571224" lon="8.2980296"><ele>1241.0</ele><time>2026-05-03T09:42:41.151Z</time></trkpt><trkpt lat="46.2570861" lon="8.298113"><ele>1241.0</ele><time>2026-05-03T09:42:43.156Z</time></trkpt><trkpt lat="46.2570451" lon="8.2982071"><ele>1241.0</ele><time>2026-05-03T09:42:45.147Z</time></trkpt><trkpt lat="46.2570132" lon="8.2982894"><ele>1238.1666666666667</ele><time>2026-05-03T09:42:47.151Z</time></trkpt><trkpt lat="46.2569732" lon="8.2983995"><ele>1235.3333333333335</ele><time>2026-05-03T09:42:50.143Z</time></trkpt><trkpt lat="46.2569223" lon="8.2985021"><ele>1232.5</ele><time>2026-05-03T09:42:53.145Z</time></trkpt><trkpt lat="46.2569031" lon="8.2986104"><ele>1229.6666666666667</ele><time>2026-05-03T09:42:55.147Z</time></trkpt><trkpt lat="46.2568901" lon="8.2987351"><ele>1226.8333333333333</ele><time>2026-05-03T09:42:57.147Z</time></trkpt><trkpt lat="46.256928" lon="8.2988654"><ele>1224.0</ele><time>2026-05-03T09:43:32.168Z</time></trkpt><trkpt lat="46.2569615" lon="8.298955"><ele>1224.0</ele><time>2026-05-03T09:43:36.177Z</time></trkpt><trkpt lat="46.2570331" lon="8.2989037"><ele>1224.0</ele><time>2026-05-03T09:43:46.138Z</time></trkpt><trkpt lat="46.2570575" lon="8.2987372"><ele>1224.0</ele><time>2026-05-03T09:43:48.142Z</time></trkpt><trkpt lat="46.2570185" lon="8.298656"><ele>1224.0</ele><time>2026-05-03T09:43:49.141Z</time></trkpt><trkpt lat="46.2571106" lon="8.2986614"><ele>1224.0</ele><time>2026-05-03T09:43:51.124Z</time></trkpt><trkpt lat="46.2571651" lon="8.2986085"><ele>1224.0</ele><time>2026-05-03T09:43:53.098Z</time></trkpt><trkpt lat="46.2572065" lon="8.298536"><ele>1224.0</ele><time>2026-05-03T09:43:55.091Z</time></trkpt><trkpt lat="46.2572629" lon="8.2984531"><ele>1224.0</ele><time>2026-05-03T09:43:58.11Z</time></trkpt><trkpt lat="46.2572656" lon="8.2986899"><ele>1224.0</ele><time>2026-05-03T09:44:03.135Z</time></trkpt><trkpt lat="46.2572803" lon="8.2987858"><ele>1224.0</ele><time>2026-05-03T09:44:04.129Z</time></trkpt><trkpt lat="46.2572164" lon="8.2989402"><ele>1224.0</ele><time>2026-05-03T09:44:06.13Z</time></trkpt><trkpt lat="46.2571505" lon="8.2990077"><ele>1220.4</ele><time>2026-05-03T09:44:08.127Z</time></trkpt><trkpt lat="46.2570457" lon="8.2990536"><ele>1216.8000000000002</ele><time>2026-05-03T09:44:12.124Z</time></trkpt><trkpt lat="46.2570103" lon="8.2991474"><ele>1213.1999999999998</ele><time>2026-05-03T09:44:18.132Z</time></trkpt><trkpt lat="46.2569514" lon="8.2990621"><ele>1209.6</ele><time>2026-05-03T09:44:28.13Z</time></trkpt><trkpt lat="46.2568145" lon="8.2990542"><ele>1206.0</ele><time>2026-05-03T09:44:41.139Z</time></trkpt><trkpt lat="46.256779" lon="8.298937"><ele>1206.0</ele><time>2026-05-03T09:44:50.13Z</time></trkpt><trkpt lat="46.2567479" lon="8.2988525"><ele>1206.0</ele><time>2026-05-03T09:44:52.124Z</time></trkpt><trkpt lat="46.2568781" lon="8.2988833"><ele>1206.0</ele><time>2026-05-03T09:44:53.145Z</time></trkpt><trkpt lat="46.2569946" lon="8.2988895"><ele>1206.0</ele><time>2026-05-03T09:44:54.13Z</time></trkpt><trkpt lat="46.256895" lon="8.298945"><ele>1206.0</ele><time>2026-05-03T09:45:01.123Z</time></trkpt><trkpt lat="46.2568991" lon="8.2988254"><ele>1209.6</ele><time>2026-05-03T09:45:09.133Z</time></trkpt><trkpt lat="46.2568521" lon="8.2987087"><ele>1213.1999999999998</ele><time>2026-05-03T09:45:11.132Z</time></trkpt><trkpt lat="46.2569479" lon="8.2986856"><ele>1216.8000000000002</ele><time>2026-05-03T09:45:35.12Z</time></trkpt><trkpt lat="46.2570171" lon="8.2985669"><ele>1220.4</ele><time>2026-05-03T09:45:36.134Z</time></trkpt><trkpt lat="46.2570921" lon="8.2984027"><ele>1224.0</ele><time>2026-05-03T09:45:37.125Z</time></trkpt><trkpt lat="46.2572042" lon="8.2981925"><ele>1224.0</ele><time>2026-05-03T09:45:38.129Z</time></trkpt><trkpt lat="46.2571685" lon="8.2983512"><ele>1224.0</ele><time>2026-05-03T09:45:40.134Z</time></trkpt><trkpt lat="46.2571532" lon="8.298445"><ele>1224.0</ele><time>2026-05-03T09:45:41.133Z</time></trkpt><trkpt lat="46.2570519" lon="8.2986679"><ele>1224.0</ele><time>2026-05-03T09:45:45.14Z</time></trkpt><trkpt lat="46.257019" lon="8.2987744"><ele>1224.0</ele><time>2026-05-03T09:45:52.127Z</time></trkpt><trkpt lat="46.257019" lon="8.2988951"><ele>1220.4</ele><time>2026-05-03T09:46:00.123Z</time></trkpt><trkpt lat="46.2570259" lon="8.2989958"><ele>1216.8000000000002</ele><time>2026-05-03T09:46:03.117Z</time></trkpt><trkpt lat="46.2570927" lon="8.29916"><ele>1213.1999999999998</ele><time>2026-05-03T09:46:08.113Z</time></trkpt><trkpt lat="46.2570951" lon="8.2992755"><ele>1209.6</ele><time>2026-05-03T09:46:10.132Z</time></trkpt><trkpt lat="46.257175" lon="8.2994116"><ele>1206.0</ele><time>2026-05-03T09:46:23.118Z</time></trkpt><trkpt lat="46.2571982" lon="8.2995581"><ele>1197.3333333333333</ele><time>2026-05-03T09:46:24.116Z</time></trkpt><trkpt lat="46.2572439" lon="8.2997816"><ele>1188.6666666666665</ele><time>2026-05-03T09:46:26.108Z</time></trkpt><trkpt lat="46.2574662" lon="8.2999301"><ele>1180.0</ele><time>2026-05-03T09:46:27.109Z</time></trkpt><trkpt lat="46.2576662" lon="8.3000752"><ele>1170.3333333333333</ele><time>2026-05-03T09:46:28.109Z</time></trkpt><trkpt lat="46.2576439" lon="8.2999228"><ele>1160.6666666666667</ele><time>2026-05-03T09:46:32.126Z</time></trkpt><trkpt lat="46.2575465" lon="8.2998165"><ele>1151.0</ele><time>2026-05-03T09:46:33.133Z</time></trkpt><trkpt lat="46.2572895" lon="8.299773"><ele>1160.1666666666667</ele><time>2026-05-03T09:46:35.131Z</time></trkpt><trkpt lat="46.2571793" lon="8.2997437"><ele>1169.3333333333335</ele><time>2026-05-03T09:46:38.126Z</time></trkpt><trkpt lat="46.2571265" lon="8.2996768"><ele>1178.5</ele><time>2026-05-03T09:46:39.131Z</time></trkpt><trkpt lat="46.2570283" lon="8.29966"><ele>1187.6666666666667</ele><time>2026-05-03T09:46:40.129Z</time></trkpt><trkpt lat="46.2570256" lon="8.2995337"><ele>1196.8333333333333</ele><time>2026-05-03T09:46:46.123Z</time></trkpt><trkpt lat="46.2569508" lon="8.299552"><ele>1206.0</ele><time>2026-05-03T09:46:48.114Z</time></trkpt><trkpt lat="46.256752" lon="8.2993213"><ele>1206.0</ele><time>2026-05-03T09:46:49.123Z</time></trkpt><trkpt lat="46.2566414" lon="8.299256"><ele>1206.0</ele><time>2026-05-03T09:46:50.134Z</time></trkpt><trkpt lat="46.2567174" lon="8.2992128"><ele>1206.0</ele><time>2026-05-03T09:47:11.139Z</time></trkpt><trkpt lat="46.2567999" lon="8.2991106"><ele>1206.0</ele><time>2026-05-03T09:47:14.133Z</time></trkpt><trkpt lat="46.256883" lon="8.2990235"><ele>1206.0</ele><time>2026-05-03T09:47:17.144Z</time></trkpt><trkpt lat="46.2570012" lon="8.2990414"><ele>1206.0</ele><time>2026-05-03T09:47:48.144Z</time></trkpt><trkpt lat="46.256967" lon="8.2988806"><ele>1206.0</ele><time>2026-05-03T09:47:59.146Z</time></trkpt><trkpt lat="46.2568921" lon="8.2988085"><ele>1206.0</ele><time>2026-05-03T09:48:14.165Z</time></trkpt><trkpt lat="46.2568918" lon="8.2989249"><ele>1206.0</ele><time>2026-05-03T09:48:18.135Z</time></trkpt><trkpt lat="46.2569091" lon="8.2990603"><ele>1206.0</ele><time>2026-05-03T09:48:20.136Z</time></trkpt><trkpt lat="46.2568751" lon="8.2991376"><ele>1206.0</ele><time>2026-05-03T09:48:21.134Z</time></trkpt><trkpt lat="46.2568126" lon="8.299216"><ele>1206.0</ele><time>2026-05-03T09:48:23.14Z</time></trkpt><trkpt lat="46.2567562" lon="8.2992886"><ele>1206.0</ele><time>2026-05-03T09:48:25.147Z</time></trkpt><trkpt lat="46.2567035" lon="8.2993639"><ele>1206.0</ele><time>2026-05-03T09:48:27.143Z</time></trkpt><trkpt lat="46.2566653" lon="8.2994501"><ele>1206.0</ele><time>2026-05-03T09:48:29.144Z</time></trkpt><trkpt lat="46.256612" lon="8.2995369"><ele>1206.0</ele><time>2026-05-03T09:48:31.143Z</time></trkpt><trkpt lat="46.2565098" lon="8.2996578"><ele>1206.0</ele><time>2026-05-03T09:48:33.144Z</time></trkpt><trkpt lat="46.2564409" lon="8.2997713"><ele>1204.6</ele><time>2026-05-03T09:48:35.144Z</time></trkpt><trkpt lat="46.2564197" lon="8.2999136"><ele>1203.1999999999998</ele><time>2026-05-03T09:48:37.146Z</time></trkpt><trkpt lat="46.2563478" lon="8.300004"><ele>1201.8000000000002</ele><time>2026-05-03T09:48:41.146Z</time></trkpt><trkpt lat="46.2562545" lon="8.3000552"><ele>1200.4</ele><time>2026-05-03T09:48:44.149Z</time></trkpt><trkpt lat="46.2561753" lon="8.3001736"><ele>1199.0</ele><time>2026-05-03T09:48:46.145Z</time></trkpt><trkpt lat="46.2561057" lon="8.3002887"><ele>1199.0</ele><time>2026-05-03T09:48:48.145Z</time></trkpt><trkpt lat="46.2560295" lon="8.3003881"><ele>1199.0</ele><time>2026-05-03T09:48:50.148Z</time></trkpt><trkpt lat="46.2559691" lon="8.3004741"><ele>1199.0</ele><time>2026-05-03T09:48:53.142Z</time></trkpt><trkpt lat="46.2559013" lon="8.3005336"><ele>1199.0</ele><time>2026-05-03T09:48:55.139Z</time></trkpt><trkpt lat="46.2558047" lon="8.3005449"><ele>1199.0</ele><time>2026-05-03T09:48:57.143Z</time></trkpt><trkpt lat="46.2557394" lon="8.3005898"><ele>1199.0</ele><time>2026-05-03T09:48:58.146Z</time></trkpt><trkpt lat="46.2556832" lon="8.3007135"><ele>1197.3333333333335</ele><time>2026-05-03T09:49:00.153Z</time></trkpt><trkpt lat="46.2556714" lon="8.3008107"><ele>1195.6666666666667</ele><time>2026-05-03T09:49:14.143Z</time></trkpt><trkpt lat="46.2556436" lon="8.3009211"><ele>1194.0</ele><time>2026-05-03T09:49:16.153Z</time></trkpt><trkpt lat="46.2555787" lon="8.3010033"><ele>1192.3333333333333</ele><time>2026-05-03T09:49:20.137Z</time></trkpt><trkpt lat="46.25552" lon="8.3010373"><ele>1190.6666666666665</ele><time>2026-05-03T09:49:21.147Z</time></trkpt><trkpt lat="46.2554428" lon="8.3010929"><ele>1189.0</ele><time>2026-05-03T09:49:23.148Z</time></trkpt><trkpt lat="46.2553746" lon="8.3011578"><ele>1189.0</ele><time>2026-05-03T09:49:25.144Z</time></trkpt><trkpt lat="46.2553123" lon="8.3012306"><ele>1189.0</ele><time>2026-05-03T09:49:27.149Z</time></trkpt><trkpt lat="46.2552582" lon="8.3012808"><ele>1189.0</ele><time>2026-05-03T09:49:30.148Z</time></trkpt><trkpt lat="46.2552045" lon="8.3013411"><ele>1189.0</ele><time>2026-05-03T09:49:34.152Z</time></trkpt><trkpt lat="46.2551828" lon="8.3014365"><ele>1189.0</ele><time>2026-05-03T09:49:37.144Z</time></trkpt><trkpt lat="46.2551479" lon="8.3015239"><ele>1189.0</ele><time>2026-05-03T09:49:39.143Z</time></trkpt><trkpt lat="46.2551056" lon="8.3016"><ele>1189.0</ele><time>2026-05-03T09:49:42.143Z</time></trkpt><trkpt lat="46.2550575" lon="8.3016671"><ele>1186.857142857143</ele><time>2026-05-03T09:49:45.146Z</time></trkpt><trkpt lat="46.2550195" lon="8.3017618"><ele>1184.7142857142858</ele><time>2026-05-03T09:49:48.144Z</time></trkpt><trkpt lat="46.2549573" lon="8.3018389"><ele>1182.5714285714287</ele><time>2026-05-03T09:49:51.153Z</time></trkpt><trkpt lat="46.2549235" lon="8.3019203"><ele>1180.4285714285716</ele><time>2026-05-03T09:49:54.144Z</time></trkpt><trkpt lat="46.2548933" lon="8.3020116"><ele>1178.2857142857144</ele><time>2026-05-03T09:49:58.14Z</time></trkpt><trkpt lat="46.2548308" lon="8.3020842"><ele>1176.142857142857</ele><time>2026-05-03T09:50:01.147Z</time></trkpt><trkpt lat="46.2547844" lon="8.3021505"><ele>1174.0</ele><time>2026-05-03T09:50:03.15Z</time></trkpt><trkpt lat="46.2547267" lon="8.3022289"><ele>1168.0</ele><time>2026-05-03T09:50:06.141Z</time></trkpt><trkpt lat="46.254665" lon="8.302316"><ele>1162.0</ele><time>2026-05-03T09:50:09.147Z</time></trkpt><trkpt lat="46.2546437" lon="8.302419"><ele>1156.0</ele><time>2026-05-03T09:50:13.144Z</time></trkpt><trkpt lat="46.2545994" lon="8.3024953"><ele>1150.0</ele><time>2026-05-03T09:50:15.142Z</time></trkpt><trkpt lat="46.2545189" lon="8.3025649"><ele>1144.0</ele><time>2026-05-03T09:50:17.143Z</time></trkpt><trkpt lat="46.2544226" lon="8.3026545"><ele>1138.0</ele><time>2026-05-03T09:50:19.143Z</time></trkpt><trkpt lat="46.2543423" lon="8.3027037"><ele>1138.0</ele><time>2026-05-03T09:50:21.143Z</time></trkpt><trkpt lat="46.2542705" lon="8.3027897"><ele>1138.0</ele><time>2026-05-03T09:50:23.142Z</time></trkpt><trkpt lat="46.25422" lon="8.3028658"><ele>1138.0</ele><time>2026-05-03T09:50:25.136Z</time></trkpt><trkpt lat="46.2541696" lon="8.3029559"><ele>1138.0</ele><time>2026-05-03T09:50:27.144Z</time></trkpt><trkpt lat="46.2540943" lon="8.3030916"><ele>1138.0</ele><time>2026-05-03T09:50:29.142Z</time></trkpt><trkpt lat="46.2540379" lon="8.3031541"><ele>1138.0</ele><time>2026-05-03T09:50:30.145Z</time></trkpt><trkpt lat="46.2539777" lon="8.3032113"><ele>1135.1666666666665</ele><time>2026-05-03T09:50:32.141Z</time></trkpt><trkpt lat="46.2538802" lon="8.3032671"><ele>1132.3333333333333</ele><time>2026-05-03T09:50:37.147Z</time></trkpt><trkpt lat="46.2538146" lon="8.3033003"><ele>1129.5</ele><time>2026-05-03T09:50:39.155Z</time></trkpt><trkpt lat="46.2537262" lon="8.3033489"><ele>1126.6666666666667</ele><time>2026-05-03T09:50:42.152Z</time></trkpt><trkpt lat="46.2536777" lon="8.3034227"><ele>1123.8333333333335</ele><time>2026-05-03T09:50:44.146Z</time></trkpt><trkpt lat="46.2536152" lon="8.3034651"><ele>1121.0</ele><time>2026-05-03T09:50:46.147Z</time></trkpt><trkpt lat="46.2535696" lon="8.3035534"><ele>1121.0</ele><time>2026-05-03T09:51:06.157Z</time></trkpt><trkpt lat="46.2535045" lon="8.3036175"><ele>1121.0</ele><time>2026-05-03T09:51:32.145Z</time></trkpt><trkpt lat="46.2534437" lon="8.3036769"><ele>1121.0</ele><time>2026-05-03T09:51:35.15Z</time></trkpt><trkpt lat="46.2533525" lon="8.3037345"><ele>1121.0</ele><time>2026-05-03T09:51:39.153Z</time></trkpt><trkpt lat="46.2532948" lon="8.3037942"><ele>1121.0</ele><time>2026-05-03T09:51:41.149Z</time></trkpt><trkpt lat="46.2532432" lon="8.3038838"><ele>1121.0</ele><time>2026-05-03T09:51:43.151Z</time></trkpt><trkpt lat="46.2531301" lon="8.3039938"><ele>1116.6</ele><time>2026-05-03T09:51:45.148Z</time></trkpt><trkpt lat="46.2530828" lon="8.3041082"><ele>1112.1999999999998</ele><time>2026-05-03T09:51:46.15Z</time></trkpt><trkpt lat="46.2530215" lon="8.3042314"><ele>1107.8000000000002</ele><time>2026-05-03T09:51:47.15Z</time></trkpt><trkpt lat="46.253011" lon="8.304331"><ele>1103.4</ele><time>2026-05-03T09:51:48.149Z</time></trkpt><trkpt lat="46.2529224" lon="8.3044603"><ele>1099.0</ele><time>2026-05-03T09:51:50.156Z</time></trkpt><trkpt lat="46.2528552" lon="8.3045733"><ele>1099.0</ele><time>2026-05-03T09:51:52.155Z</time></trkpt><trkpt lat="46.252769" lon="8.3046454"><ele>1099.0</ele><time>2026-05-03T09:51:54.153Z</time></trkpt><trkpt lat="46.2527011" lon="8.3046986"><ele>1099.0</ele><time>2026-05-03T09:51:56.157Z</time></trkpt><trkpt lat="46.252618" lon="8.3047538"><ele>1099.0</ele><time>2026-05-03T09:52:00.16Z</time></trkpt><trkpt lat="46.2525325" lon="8.3048177"><ele>1099.0</ele><time>2026-05-03T09:52:03.162Z</time></trkpt><trkpt lat="46.2524746" lon="8.3048796"><ele>1099.0</ele><time>2026-05-03T09:52:05.157Z</time></trkpt><trkpt lat="46.2524149" lon="8.3049546"><ele>1095.1666666666665</ele><time>2026-05-03T09:52:08.155Z</time></trkpt><trkpt lat="46.2523538" lon="8.3050237"><ele>1091.3333333333333</ele><time>2026-05-03T09:52:10.156Z</time></trkpt><trkpt lat="46.2522895" lon="8.305105"><ele>1087.5</ele><time>2026-05-03T09:52:12.156Z</time></trkpt><trkpt lat="46.2522445" lon="8.3052273"><ele>1083.6666666666667</ele><time>2026-05-03T09:52:14.147Z</time></trkpt><trkpt lat="46.2521994" lon="8.3053193"><ele>1079.8333333333335</ele><time>2026-05-03T09:52:16.141Z</time></trkpt><trkpt lat="46.2521343" lon="8.3053291"><ele>1076.0</ele><time>2026-05-03T09:52:54.141Z</time></trkpt><trkpt lat="46.2521357" lon="8.3052088"><ele>1076.0</ele><time>2026-05-03T09:54:15.143Z</time></trkpt><trkpt lat="46.2520683" lon="8.3052226"><ele>1076.0</ele><time>2026-05-03T09:54:26.175Z</time></trkpt><trkpt lat="46.2519986" lon="8.3051949"><ele>1076.0</ele><time>2026-05-03T09:54:29.149Z</time></trkpt><trkpt lat="46.2519459" lon="8.3052883"><ele>1076.0</ele><time>2026-05-03T09:54:31.15Z</time></trkpt><trkpt lat="46.2519059" lon="8.3054087"><ele>1076.0</ele><time>2026-05-03T09:54:33.153Z</time></trkpt><trkpt lat="46.2518835" lon="8.305523"><ele>1076.0</ele><time>2026-05-03T09:54:35.148Z</time></trkpt><trkpt lat="46.2518408" lon="8.3056713"><ele>1070.3333333333335</ele><time>2026-05-03T09:54:37.147Z</time></trkpt><trkpt lat="46.251806" lon="8.3057526"><ele>1064.6666666666667</ele><time>2026-05-03T09:54:38.148Z</time></trkpt><trkpt lat="46.2517659" lon="8.3058239"><ele>1059.0</ele><time>2026-05-03T09:54:39.148Z</time></trkpt><trkpt lat="46.2517073" lon="8.305962"><ele>1053.3333333333333</ele><time>2026-05-03T09:54:41.147Z</time></trkpt><trkpt lat="46.2517504" lon="8.3060398"><ele>1047.6666666666665</ele><time>2026-05-03T09:54:46.166Z</time></trkpt><trkpt lat="46.2517918" lon="8.3061605"><ele>1042.0</ele><time>2026-05-03T09:54:50.16Z</time></trkpt><trkpt lat="46.2518164" lon="8.3062494"><ele>1042.0</ele><time>2026-05-03T09:54:52.163Z</time></trkpt><trkpt lat="46.2518308" lon="8.3063509"><ele>1042.0</ele><time>2026-05-03T09:54:54.154Z</time></trkpt><trkpt lat="46.2518324" lon="8.30648"><ele>1042.0</ele><time>2026-05-03T09:54:57.156Z</time></trkpt><trkpt lat="46.2518178" lon="8.3065855"><ele>1042.0</ele><time>2026-05-03T09:54:59.149Z</time></trkpt><trkpt lat="46.2517495" lon="8.3067145"><ele>1042.0</ele><time>2026-05-03T09:55:01.151Z</time></trkpt><trkpt lat="46.251681" lon="8.3067705"><ele>1042.0</ele><time>2026-05-03T09:55:04.159Z</time></trkpt><trkpt lat="46.2516174" lon="8.30683"><ele>1040.5</ele><time>2026-05-03T09:55:06.165Z</time></trkpt><trkpt lat="46.2515446" lon="8.3068354"><ele>1039.0</ele><time>2026-05-03T09:55:11.16Z</time></trkpt><trkpt lat="46.2514708" lon="8.3068949"><ele>1037.5</ele><time>2026-05-03T09:55:14.159Z</time></trkpt><trkpt lat="46.2514044" lon="8.3069374"><ele>1036.0</ele><time>2026-05-03T09:55:16.157Z</time></trkpt><trkpt lat="46.2513232" lon="8.3069733"><ele>1034.5</ele><time>2026-05-03T09:55:18.162Z</time></trkpt><trkpt lat="46.251246" lon="8.306991"><ele>1033.0</ele><time>2026-05-03T09:55:19.165Z</time></trkpt><trkpt lat="46.251187" lon="8.3070279"><ele>1033.0</ele><time>2026-05-03T09:56:43.17Z</time></trkpt><trkpt lat="46.2511046" lon="8.3070503"><ele>1033.0</ele><time>2026-05-03T09:56:47.175Z</time></trkpt><trkpt lat="46.2510141" lon="8.3070958"><ele>1033.0</ele><time>2026-05-03T09:56:51.165Z</time></trkpt><trkpt lat="46.2509164" lon="8.3071245"><ele>1033.0</ele><time>2026-05-03T09:56:53.161Z</time></trkpt><trkpt lat="46.250847" lon="8.3071588"><ele>1033.0</ele><time>2026-05-03T09:56:54.164Z</time></trkpt><trkpt lat="46.2507848" lon="8.3071855"><ele>1033.0</ele><time>2026-05-03T09:56:55.163Z</time></trkpt><trkpt lat="46.2506881" lon="8.3072376"><ele>1027.4</ele><time>2026-05-03T09:56:57.164Z</time></trkpt><trkpt lat="46.2506094" lon="8.3072592"><ele>1021.8</ele><time>2026-05-03T09:56:59.16Z</time></trkpt><trkpt lat="46.2505313" lon="8.3073446"><ele>1016.2</ele><time>2026-05-03T09:57:01.167Z</time></trkpt><trkpt lat="46.2504566" lon="8.3074576"><ele>1010.6</ele><time>2026-05-03T09:57:03.162Z</time></trkpt><trkpt lat="46.2503901" lon="8.3075737"><ele>1005.0</ele><time>2026-05-03T09:57:05.15Z</time></trkpt><trkpt lat="46.250321" lon="8.307645"><ele>1005.0</ele><time>2026-05-03T09:57:07.151Z</time></trkpt><trkpt lat="46.2502474" lon="8.3077351"><ele>1005.0</ele><time>2026-05-03T09:57:09.163Z</time></trkpt><trkpt lat="46.2501814" lon="8.3078323"><ele>1005.0</ele><time>2026-05-03T09:57:11.16Z</time></trkpt><trkpt lat="46.2501553" lon="8.3079504"><ele>1005.0</ele><time>2026-05-03T09:57:13.156Z</time></trkpt><trkpt lat="46.2501477" lon="8.3080551"><ele>1005.0</ele><time>2026-05-03T09:57:15.158Z</time></trkpt><trkpt lat="46.2501394" lon="8.3081862"><ele>1005.0</ele><time>2026-05-03T09:57:17.154Z</time></trkpt><trkpt lat="46.2501102" lon="8.3083215"><ele>1006.1666666666666</ele><time>2026-05-03T09:57:19.179Z</time></trkpt><trkpt lat="46.2500671" lon="8.3084544"><ele>1007.3333333333333</ele><time>2026-05-03T09:57:21.156Z</time></trkpt><trkpt lat="46.2500075" lon="8.3085543"><ele>1008.5</ele><time>2026-05-03T09:57:23.152Z</time></trkpt><trkpt lat="46.2499379" lon="8.3086645"><ele>1009.6666666666666</ele><time>2026-05-03T09:57:25.149Z</time></trkpt><trkpt lat="46.2498895" lon="8.3087275"><ele>1010.8333333333333</ele><time>2026-05-03T09:57:26.148Z</time></trkpt><trkpt lat="46.2498232" lon="8.3087793"><ele>1012.0</ele><time>2026-05-03T09:57:27.154Z</time></trkpt><trkpt lat="46.2497401" lon="8.3088211"><ele>1011.9999999999999</ele><time>2026-05-03T09:57:28.153Z</time></trkpt><trkpt lat="46.2496766" lon="8.3088792"><ele>1012.0</ele><time>2026-05-03T09:57:29.144Z</time></trkpt><trkpt lat="46.2496142" lon="8.3089397"><ele>1012.0</ele><time>2026-05-03T09:57:30.153Z</time></trkpt><trkpt lat="46.2495267" lon="8.308982"><ele>1012.0</ele><time>2026-05-03T09:57:32.147Z</time></trkpt><trkpt lat="46.2494358" lon="8.308999"><ele>1011.9999999999999</ele><time>2026-05-03T09:57:34.157Z</time></trkpt><trkpt lat="46.249366" lon="8.309063"><ele>1012.0</ele><time>2026-05-03T09:57:37.164Z</time></trkpt><trkpt lat="46.2493015" lon="8.3090957"><ele>1006.1666666666666</ele><time>2026-05-03T09:57:41.168Z</time></trkpt><trkpt lat="46.2492335" lon="8.3091422"><ele>1000.3333333333333</ele><time>2026-05-03T09:57:43.169Z</time></trkpt><trkpt lat="46.249157" lon="8.3091739"><ele>994.5</ele><time>2026-05-03T09:57:45.165Z</time></trkpt><trkpt lat="46.2490832" lon="8.3091984"><ele>988.6666666666667</ele><time>2026-05-03T09:57:47.162Z</time></trkpt><trkpt lat="46.2489677" lon="8.3092093"><ele>982.8333333333334</ele><time>2026-05-03T09:57:49.168Z</time></trkpt><trkpt lat="46.2488888" lon="8.3092082"><ele>977.0</ele><time>2026-05-03T09:57:50.167Z</time></trkpt><trkpt lat="46.2488147" lon="8.3092182"><ele>977.0000000000001</ele><time>2026-05-03T09:57:51.169Z</time></trkpt><trkpt lat="46.2487486" lon="8.3092444"><ele>977.0</ele><time>2026-05-03T09:57:52.157Z</time></trkpt><trkpt lat="46.2486802" lon="8.3092749"><ele>977.0000000000001</ele><time>2026-05-03T09:57:53.157Z</time></trkpt><trkpt lat="46.2486141" lon="8.309301"><ele>977.0000000000001</ele><time>2026-05-03T09:57:54.152Z</time></trkpt><trkpt lat="46.2485479" lon="8.3093347"><ele>977.0</ele><time>2026-05-03T09:57:55.149Z</time></trkpt><trkpt lat="46.2484883" lon="8.3093742"><ele>977.0000000000001</ele><time>2026-05-03T09:57:56.148Z</time></trkpt><trkpt lat="46.2484292" lon="8.3094168"><ele>977.0000000000001</ele><time>2026-05-03T09:57:57.152Z</time></trkpt><trkpt lat="46.2483627" lon="8.3094546"><ele>977.0000000000001</ele><time>2026-05-03T09:57:58.157Z</time></trkpt><trkpt lat="46.2483111" lon="8.3095205"><ele>977.0</ele><time>2026-05-03T09:58:01.161Z</time></trkpt><trkpt lat="46.2482353" lon="8.3095336"><ele>977.0</ele><time>2026-05-03T09:58:14.154Z</time></trkpt><trkpt lat="46.2481386" lon="8.3095034"><ele>977.0</ele><time>2026-05-03T09:58:16.168Z</time></trkpt><trkpt lat="46.2480796" lon="8.3095818"><ele>977.0000000000001</ele><time>2026-05-03T09:58:18.154Z</time></trkpt><trkpt lat="46.2479797" lon="8.3096451"><ele>977.0</ele><time>2026-05-03T09:58:20.155Z</time></trkpt><trkpt lat="46.2479287" lon="8.3097049"><ele>969.8</ele><time>2026-05-03T09:58:21.153Z</time></trkpt><trkpt lat="46.247844" lon="8.309779"><ele>962.6</ele><time>2026-05-03T09:58:23.158Z</time></trkpt><trkpt lat="46.2477762" lon="8.3098837"><ele>955.3999999999999</ele><time>2026-05-03T09:58:25.158Z</time></trkpt><trkpt lat="46.2476777" lon="8.3099697"><ele>948.1999999999999</ele><time>2026-05-03T09:58:27.163Z</time></trkpt><trkpt lat="46.2476162" lon="8.3100004"><ele>941.0</ele><time>2026-05-03T09:58:28.164Z</time></trkpt><trkpt lat="46.2475129" lon="8.3100379"><ele>941.0</ele><time>2026-05-03T09:58:30.155Z</time></trkpt><trkpt lat="46.2474115" lon="8.3100997"><ele>940.9999999999999</ele><time>2026-05-03T09:58:32.152Z</time></trkpt><trkpt lat="46.2473345" lon="8.310138"><ele>940.9999999999999</ele><time>2026-05-03T09:58:34.162Z</time></trkpt><trkpt lat="46.2472258" lon="8.3101568"><ele>941.0</ele><time>2026-05-03T09:58:36.164Z</time></trkpt><trkpt lat="46.2471303" lon="8.3101163"><ele>941.0</ele><time>2026-05-03T09:58:38.159Z</time></trkpt><trkpt lat="46.2470635" lon="8.3101007"><ele>940.1666666666667</ele><time>2026-05-03T09:58:39.159Z</time></trkpt><trkpt lat="46.2469991" lon="8.3100907"><ele>939.3333333333334</ele><time>2026-05-03T09:58:40.164Z</time></trkpt><trkpt lat="46.2469059" lon="8.3100752"><ele>938.5</ele><time>2026-05-03T09:58:42.154Z</time></trkpt><trkpt lat="46.2468199" lon="8.310048"><ele>937.6666666666667</ele><time>2026-05-03T09:58:44.149Z</time></trkpt><trkpt lat="46.2467532" lon="8.3100332"><ele>936.8333333333334</ele><time>2026-05-03T09:58:45.158Z</time></trkpt><trkpt lat="46.2466823" lon="8.310016"><ele>936.0</ele><time>2026-05-03T09:58:46.167Z</time></trkpt><trkpt lat="46.2466076" lon="8.3099993"><ele>936.0</ele><time>2026-05-03T09:58:47.167Z</time></trkpt><trkpt lat="46.2465204" lon="8.3099945"><ele>936.0</ele><time>2026-05-03T09:58:48.161Z</time></trkpt><trkpt lat="46.2464338" lon="8.3099971"><ele>936.0</ele><time>2026-05-03T09:58:49.156Z</time></trkpt><trkpt lat="46.246355" lon="8.31001"><ele>936.0</ele><time>2026-05-03T09:58:50.152Z</time></trkpt><trkpt lat="46.2462885" lon="8.3100243"><ele>936.0</ele><time>2026-05-03T09:58:51.158Z</time></trkpt><trkpt lat="46.2462218" lon="8.3100462"><ele>936.0</ele><time>2026-05-03T09:58:52.158Z</time></trkpt><trkpt lat="46.2461435" lon="8.3100621"><ele>935.6666666666666</ele><time>2026-05-03T09:58:53.161Z</time></trkpt><trkpt lat="46.2460738" lon="8.3100849"><ele>935.3333333333333</ele><time>2026-05-03T09:58:54.156Z</time></trkpt><trkpt lat="46.246006" lon="8.3101057"><ele>935.0</ele><time>2026-05-03T09:58:55.156Z</time></trkpt><trkpt lat="46.2458988" lon="8.3101076"><ele>934.6666666666666</ele><time>2026-05-03T09:58:57.16Z</time></trkpt><trkpt lat="46.2458269" lon="8.3101222"><ele>934.3333333333333</ele><time>2026-05-03T09:58:58.163Z</time></trkpt><trkpt lat="46.2457487" lon="8.3101459"><ele>934.0</ele><time>2026-05-03T09:58:59.16Z</time></trkpt><trkpt lat="46.2456802" lon="8.310175"><ele>935.4000000000001</ele><time>2026-05-03T09:59:01.155Z</time></trkpt><trkpt lat="46.2455973" lon="8.3102267"><ele>936.8000000000001</ele><time>2026-05-03T09:59:03.16Z</time></trkpt><trkpt lat="46.245526" lon="8.3102718"><ele>938.1999999999999</ele><time>2026-05-03T09:59:04.198Z</time></trkpt><trkpt lat="46.2454506" lon="8.3103237"><ele>939.5999999999999</ele><time>2026-05-03T09:59:05.164Z</time></trkpt><trkpt lat="46.2453501" lon="8.3104355"><ele>941.0</ele><time>2026-05-03T09:59:07.161Z</time></trkpt><trkpt lat="46.2452962" lon="8.3105072"><ele>936.6666666666667</ele><time>2026-05-03T09:59:08.166Z</time></trkpt><trkpt lat="46.245249" lon="8.3105792"><ele>932.3333333333334</ele><time>2026-05-03T09:59:09.163Z</time></trkpt><trkpt lat="46.245145" lon="8.310655"><ele>928.0</ele><time>2026-05-03T09:59:11.171Z</time></trkpt><trkpt lat="46.2450771" lon="8.3107293"><ele>923.6666666666667</ele><time>2026-05-03T09:59:13.161Z</time></trkpt><trkpt lat="46.2449678" lon="8.3107747"><ele>919.3333333333334</ele><time>2026-05-03T09:59:15.152Z</time></trkpt><trkpt lat="46.244906" lon="8.3107989"><ele>915.0</ele><time>2026-05-03T09:59:16.158Z</time></trkpt><trkpt lat="46.2448225" lon="8.3108369"><ele>916.6666666666666</ele><time>2026-05-03T09:59:18.15Z</time></trkpt><trkpt lat="46.2447341" lon="8.3108867"><ele>918.3333333333333</ele><time>2026-05-03T09:59:20.16Z</time></trkpt><trkpt lat="46.244668" lon="8.3109188"><ele>920.0</ele><time>2026-05-03T09:59:21.163Z</time></trkpt><trkpt lat="46.2445942" lon="8.3109467"><ele>921.6666666666666</ele><time>2026-05-03T09:59:22.163Z</time></trkpt><trkpt lat="46.2445236" lon="8.3109772"><ele>923.3333333333333</ele><time>2026-05-03T09:59:23.16Z</time></trkpt><trkpt lat="46.2444284" lon="8.3110256"><ele>925.0</ele><time>2026-05-03T09:59:25.151Z</time></trkpt><trkpt lat="46.2443351" lon="8.3110724"><ele>924.9999999999999</ele><time>2026-05-03T09:59:27.156Z</time></trkpt><trkpt lat="46.2442611" lon="8.3111167"><ele>925.0</ele><time>2026-05-03T09:59:29.164Z</time></trkpt><trkpt lat="46.2441948" lon="8.3111875"><ele>925.0</ele><time>2026-05-03T09:59:32.165Z</time></trkpt><trkpt lat="46.2441443" lon="8.3112482"><ele>925.0</ele><time>2026-05-03T09:59:47.185Z</time></trkpt><trkpt lat="46.2440903" lon="8.3113374"><ele>924.9999999999999</ele><time>2026-05-03T09:59:51.178Z</time></trkpt><trkpt lat="46.2440159" lon="8.311371"><ele>925.0</ele><time>2026-05-03T09:59:55.177Z</time></trkpt><trkpt lat="46.243947" lon="8.3114228"><ele>919.3333333333333</ele><time>2026-05-03T09:59:58.151Z</time></trkpt><trkpt lat="46.2438578" lon="8.3114544"><ele>913.6666666666666</ele><time>2026-05-03T10:00:01.136Z</time></trkpt><trkpt lat="46.2437742" lon="8.3114815"><ele>908.0</ele><time>2026-05-03T10:00:04.139Z</time></trkpt><trkpt lat="46.2437135" lon="8.3115145"><ele>902.3333333333333</ele><time>2026-05-03T10:00:06.134Z</time></trkpt><trkpt lat="46.2436477" lon="8.3115919"><ele>896.6666666666666</ele><time>2026-05-03T10:00:09.131Z</time></trkpt><trkpt lat="46.2435734" lon="8.3116536"><ele>891.0</ele><time>2026-05-03T10:00:11.148Z</time></trkpt><trkpt lat="46.243503" lon="8.3116799"><ele>891.0</ele><time>2026-05-03T10:00:13.135Z</time></trkpt><trkpt lat="46.2434276" lon="8.3117367"><ele>891.0</ele><time>2026-05-03T10:00:15.15Z</time></trkpt><trkpt lat="46.2433229" lon="8.3118169"><ele>891.0</ele><time>2026-05-03T10:00:17.137Z</time></trkpt><trkpt lat="46.2432436" lon="8.3118546"><ele>891.0</ele><time>2026-05-03T10:00:18.131Z</time></trkpt><trkpt lat="46.2431618" lon="8.3118625"><ele>891.0</ele><time>2026-05-03T10:00:19.132Z</time></trkpt><trkpt lat="46.2430937" lon="8.311897"><ele>891.0</ele><time>2026-05-03T10:00:20.132Z</time></trkpt><trkpt lat="46.2430344" lon="8.3119276"><ele>889.1666666666666</ele><time>2026-05-03T10:00:21.13Z</time></trkpt><trkpt lat="46.2429685" lon="8.3119526"><ele>887.3333333333333</ele><time>2026-05-03T10:00:22.125Z</time></trkpt><trkpt lat="46.242907" lon="8.3120098"><ele>885.5</ele><time>2026-05-03T10:00:23.131Z</time></trkpt><trkpt lat="46.2428469" lon="8.3120756"><ele>883.6666666666666</ele><time>2026-05-03T10:00:24.13Z</time></trkpt><trkpt lat="46.2427774" lon="8.3121224"><ele>881.8333333333333</ele><time>2026-05-03T10:00:25.126Z</time></trkpt><trkpt lat="46.2426496" lon="8.3121429"><ele>880.0</ele><time>2026-05-03T10:00:27.123Z</time></trkpt><trkpt lat="46.2425721" lon="8.3121331"><ele>879.9999999999999</ele><time>2026-05-03T10:00:28.131Z</time></trkpt><trkpt lat="46.2424937" lon="8.3121421"><ele>880.0</ele><time>2026-05-03T10:00:29.136Z</time></trkpt><trkpt lat="46.2424103" lon="8.3121485"><ele>880.0</ele><time>2026-05-03T10:00:30.132Z</time></trkpt><trkpt lat="46.2423347" lon="8.3121541"><ele>880.0</ele><time>2026-05-03T10:00:31.132Z</time></trkpt><trkpt lat="46.2422475" lon="8.3121715"><ele>879.9999999999999</ele><time>2026-05-03T10:00:32.13Z</time></trkpt><trkpt lat="46.2421787" lon="8.3121774"><ele>880.0</ele><time>2026-05-03T10:00:33.132Z</time></trkpt><trkpt lat="46.2421076" lon="8.3121805"><ele>877.6666666666666</ele><time>2026-05-03T10:00:34.147Z</time></trkpt><trkpt lat="46.2420338" lon="8.3121929"><ele>875.3333333333333</ele><time>2026-05-03T10:00:35.138Z</time></trkpt><trkpt lat="46.2419614" lon="8.312201"><ele>873.0</ele><time>2026-05-03T10:00:36.127Z</time></trkpt><trkpt lat="46.2418961" lon="8.3122311"><ele>870.6666666666667</ele><time>2026-05-03T10:00:37.131Z</time></trkpt><trkpt lat="46.2418033" lon="8.3122802"><ele>868.3333333333334</ele><time>2026-05-03T10:00:38.13Z</time></trkpt><trkpt lat="46.2416766" lon="8.3123157"><ele>866.0</ele><time>2026-05-03T10:00:39.136Z</time></trkpt><trkpt lat="46.2415805" lon="8.3123512"><ele>860.1999999999999</ele><time>2026-05-03T10:00:40.14Z</time></trkpt><trkpt lat="46.2414772" lon="8.3124101"><ele>854.3999999999999</ele><time>2026-05-03T10:00:41.14Z</time></trkpt><trkpt lat="46.2413946" lon="8.3124597"><ele>848.6</ele><time>2026-05-03T10:00:42.132Z</time></trkpt><trkpt lat="46.241319" lon="8.3124919"><ele>842.8</ele><time>2026-05-03T10:00:43.132Z</time></trkpt><trkpt lat="46.241223" lon="8.3125175"><ele>837.0</ele><time>2026-05-03T10:00:44.134Z</time></trkpt><trkpt lat="46.2411255" lon="8.3125478"><ele>836.8</ele><time>2026-05-03T10:00:45.126Z</time></trkpt><trkpt lat="46.2410224" lon="8.3125663"><ele>836.6</ele><time>2026-05-03T10:00:46.137Z</time></trkpt><trkpt lat="46.240933" lon="8.3125881"><ele>836.4</ele><time>2026-05-03T10:00:47.139Z</time></trkpt><trkpt lat="46.2408231" lon="8.3125824"><ele>836.1999999999999</ele><time>2026-05-03T10:00:48.127Z</time></trkpt><trkpt lat="46.240714" lon="8.3125577"><ele>836.0</ele><time>2026-05-03T10:00:49.142Z</time></trkpt><trkpt lat="46.2406266" lon="8.312521"><ele>836.0000000000001</ele><time>2026-05-03T10:00:50.126Z</time></trkpt><trkpt lat="46.2405445" lon="8.3124979"><ele>836.0</ele><time>2026-05-03T10:00:51.127Z</time></trkpt><trkpt lat="46.2404816" lon="8.3125122"><ele>836.0</ele><time>2026-05-03T10:00:52.145Z</time></trkpt><trkpt lat="46.2404123" lon="8.3125867"><ele>836.0</ele><time>2026-05-03T10:00:54.134Z</time></trkpt><trkpt lat="46.2404029" lon="8.3127123"><ele>836.0000000000001</ele><time>2026-05-03T10:00:58.126Z</time></trkpt><trkpt lat="46.2404401" lon="8.3127905"><ele>836.0</ele><time>2026-05-03T10:01:06.15Z</time></trkpt><trkpt lat="46.2404817" lon="8.3128901"><ele>836.0000000000001</ele><time>2026-05-03T10:01:08.139Z</time></trkpt><trkpt lat="46.2405291" lon="8.3130021"><ele>836.0</ele><time>2026-05-03T10:01:10.151Z</time></trkpt><trkpt lat="46.240576" lon="8.3130675"><ele>836.0</ele><time>2026-05-03T10:01:13.144Z</time></trkpt><trkpt lat="46.2406452" lon="8.3130903"><ele>836.0</ele><time>2026-05-03T10:01:19.149Z</time></trkpt><trkpt lat="46.2405874" lon="8.3131671"><ele>836.0000000000001</ele><time>2026-05-03T10:01:24.159Z</time></trkpt><trkpt lat="46.2405011" lon="8.3132197"><ele>836.0</ele><time>2026-05-03T10:01:28.154Z</time></trkpt><trkpt lat="46.2404444" lon="8.3132673"><ele>833.4</ele><time>2026-05-03T10:01:31.156Z</time></trkpt><trkpt lat="46.2403965" lon="8.3133511"><ele>830.8</ele><time>2026-05-03T10:01:33.153Z</time></trkpt><trkpt lat="46.2403539" lon="8.3134789"><ele>828.1999999999999</ele><time>2026-05-03T10:01:35.155Z</time></trkpt><trkpt lat="46.2403008" lon="8.3136194"><ele>825.5999999999999</ele><time>2026-05-03T10:01:37.161Z</time></trkpt><trkpt lat="46.240252" lon="8.313751"><ele>823.0</ele><time>2026-05-03T10:01:39.166Z</time></trkpt><trkpt lat="46.2402186" lon="8.3138831"><ele>820.9999999999999</ele><time>2026-05-03T10:01:41.166Z</time></trkpt><trkpt lat="46.2402265" lon="8.3139845"><ele>819.0</ele><time>2026-05-03T10:01:44.167Z</time></trkpt><trkpt lat="46.240251" lon="8.3140964"><ele>817.0</ele><time>2026-05-03T10:01:48.16Z</time></trkpt><trkpt lat="46.2402793" lon="8.3142029"><ele>815.0</ele><time>2026-05-03T10:01:53.166Z</time></trkpt><trkpt lat="46.2403033" lon="8.3143208"><ele>812.9999999999999</ele><time>2026-05-03T10:01:57.161Z</time></trkpt><trkpt lat="46.2403625" lon="8.3142146"><ele>811.0</ele><time>2026-05-03T10:02:08.14Z</time></trkpt><trkpt lat="46.2404123" lon="8.3141395"><ele>811.0</ele><time>2026-05-03T10:02:10.137Z</time></trkpt><trkpt lat="46.2404954" lon="8.3140703"><ele>811.0</ele><time>2026-05-03T10:02:13.15Z</time></trkpt><trkpt lat="46.2405664" lon="8.3140676"><ele>811.0</ele><time>2026-05-03T10:02:15.148Z</time></trkpt><trkpt lat="46.2406615" lon="8.3140338"><ele>811.0</ele><time>2026-05-03T10:02:18.147Z</time></trkpt><trkpt lat="46.2407586" lon="8.3140897"><ele>811.0</ele><time>2026-05-03T10:02:21.153Z</time></trkpt><trkpt lat="46.2408384" lon="8.3141445"><ele>811.4</ele><time>2026-05-03T10:02:23.141Z</time></trkpt><trkpt lat="46.2409384" lon="8.3141922"><ele>811.8</ele><time>2026-05-03T10:02:25.141Z</time></trkpt><trkpt lat="46.2410544" lon="8.3141796"><ele>812.1999999999999</ele><time>2026-05-03T10:02:27.145Z</time></trkpt><trkpt lat="46.241151" lon="8.3142389"><ele>812.5999999999999</ele><time>2026-05-03T10:02:30.154Z</time></trkpt><trkpt lat="46.2412075" lon="8.3142951"><ele>813.0</ele><time>2026-05-03T10:02:31.141Z</time></trkpt><trkpt lat="46.2413009" lon="8.3143507"><ele>813.0</ele><time>2026-05-03T10:02:32.146Z</time></trkpt><trkpt lat="46.2413938" lon="8.3144256"><ele>813.0</ele><time>2026-05-03T10:02:33.153Z</time></trkpt><trkpt lat="46.2414905" lon="8.3145146"><ele>813.0</ele><time>2026-05-03T10:02:34.155Z</time></trkpt><trkpt lat="46.241596" lon="8.3145847"><ele>813.0</ele><time>2026-05-03T10:02:35.147Z</time></trkpt><trkpt lat="46.2416903" lon="8.3146298"><ele>813.0</ele><time>2026-05-03T10:02:36.168Z</time></trkpt><trkpt lat="46.2417658" lon="8.3146529"><ele>813.3333333333334</ele><time>2026-05-03T10:02:37.145Z</time></trkpt><trkpt lat="46.24183" lon="8.3146625"><ele>813.6666666666667</ele><time>2026-05-03T10:02:38.174Z</time></trkpt><trkpt lat="46.2419277" lon="8.3146591"><ele>814.0</ele><time>2026-05-03T10:02:40.159Z</time></trkpt><trkpt lat="46.2420064" lon="8.3146769"><ele>814.3333333333334</ele><time>2026-05-03T10:02:42.153Z</time></trkpt><trkpt lat="46.2420972" lon="8.3147157"><ele>814.6666666666667</ele><time>2026-05-03T10:02:44.155Z</time></trkpt><trkpt lat="46.2421831" lon="8.3147866"><ele>815.0</ele><time>2026-05-03T10:02:46.139Z</time></trkpt><trkpt lat="46.2422944" lon="8.3148257"><ele>815.25</ele><time>2026-05-03T10:02:48.148Z</time></trkpt><trkpt lat="46.2424104" lon="8.3147973"><ele>815.5</ele><time>2026-05-03T10:02:50.153Z</time></trkpt><trkpt lat="46.2425271" lon="8.3147469"><ele>815.75</ele><time>2026-05-03T10:02:52.145Z</time></trkpt><trkpt lat="46.2426315" lon="8.31469"><ele>816.0</ele><time>2026-05-03T10:02:54.159Z</time></trkpt><trkpt lat="46.2427414" lon="8.3146212"><ele>816.0</ele><time>2026-05-03T10:02:56.165Z</time></trkpt><trkpt lat="46.2428306" lon="8.3145729"><ele>816.0</ele><time>2026-05-03T10:02:58.164Z</time></trkpt><trkpt lat="46.2429153" lon="8.3145126"><ele>816.0</ele><time>2026-05-03T10:03:00.156Z</time></trkpt><trkpt lat="46.2429951" lon="8.3144837"><ele>816.0</ele><time>2026-05-03T10:03:02.152Z</time></trkpt><trkpt lat="46.2430874" lon="8.3144562"><ele>816.0</ele><time>2026-05-03T10:03:04.156Z</time></trkpt><trkpt lat="46.2431492" lon="8.3144362"><ele>816.0</ele><time>2026-05-03T10:03:05.156Z</time></trkpt><trkpt lat="46.2432239" lon="8.3144127"><ele>815.0</ele><time>2026-05-03T10:03:06.162Z</time></trkpt><trkpt lat="46.2433061" lon="8.3143927"><ele>814.0</ele><time>2026-05-03T10:03:07.157Z</time></trkpt><trkpt lat="46.2433916" lon="8.3143687"><ele>813.0</ele><time>2026-05-03T10:03:08.163Z</time></trkpt><trkpt lat="46.2434823" lon="8.3143379"><ele>812.0</ele><time>2026-05-03T10:03:09.163Z</time></trkpt><trkpt lat="46.2435751" lon="8.314296"><ele>811.0</ele><time>2026-05-03T10:03:10.168Z</time></trkpt><trkpt lat="46.2436688" lon="8.3142577"><ele>811.0</ele><time>2026-05-03T10:03:11.17Z</time></trkpt><trkpt lat="46.2437671" lon="8.3142156"><ele>811.0</ele><time>2026-05-03T10:03:12.166Z</time></trkpt><trkpt lat="46.2438636" lon="8.3141719"><ele>811.0</ele><time>2026-05-03T10:03:13.158Z</time></trkpt><trkpt lat="46.2439664" lon="8.3141377"><ele>811.0</ele><time>2026-05-03T10:03:14.161Z</time></trkpt><trkpt lat="46.2440666" lon="8.3141188"><ele>811.0</ele><time>2026-05-03T10:03:15.16Z</time></trkpt><trkpt lat="46.2441695" lon="8.314117"><ele>808.8</ele><time>2026-05-03T10:03:16.166Z</time></trkpt><trkpt lat="46.2442699" lon="8.3141406"><ele>806.5999999999999</ele><time>2026-05-03T10:03:17.153Z</time></trkpt><trkpt lat="46.244373" lon="8.3141735"><ele>804.4</ele><time>2026-05-03T10:03:18.161Z</time></trkpt><trkpt lat="46.2444773" lon="8.314191"><ele>802.2</ele><time>2026-05-03T10:03:19.159Z</time></trkpt><trkpt lat="46.2445822" lon="8.3141901"><ele>800.0</ele><time>2026-05-03T10:03:20.156Z</time></trkpt><trkpt lat="46.2446872" lon="8.3141859"><ele>799.8</ele><time>2026-05-03T10:03:21.152Z</time></trkpt><trkpt lat="46.2448049" lon="8.3141495"><ele>799.6</ele><time>2026-05-03T10:03:22.143Z</time></trkpt><trkpt lat="46.2449131" lon="8.3141004"><ele>799.4000000000001</ele><time>2026-05-03T10:03:23.142Z</time></trkpt><trkpt lat="46.2450076" lon="8.3140729"><ele>799.2</ele><time>2026-05-03T10:03:24.152Z</time></trkpt><trkpt lat="46.2451149" lon="8.314059"><ele>799.0</ele><time>2026-05-03T10:03:25.142Z</time></trkpt><trkpt lat="46.2452189" lon="8.3140704"><ele>799.0</ele><time>2026-05-03T10:03:26.149Z</time></trkpt><trkpt lat="46.245322" lon="8.314098"><ele>799.0</ele><time>2026-05-03T10:03:27.152Z</time></trkpt><trkpt lat="46.2454204" lon="8.314121"><ele>799.0</ele><time>2026-05-03T10:03:28.155Z</time></trkpt><trkpt lat="46.2455176" lon="8.3141568"><ele>799.0</ele><time>2026-05-03T10:03:29.154Z</time></trkpt><trkpt lat="46.2456123" lon="8.3141803"><ele>799.0</ele><time>2026-05-03T10:03:30.156Z</time></trkpt><trkpt lat="46.2457146" lon="8.3142129"><ele>798.3333333333333</ele><time>2026-05-03T10:03:31.157Z</time></trkpt><trkpt lat="46.2458152" lon="8.3142528"><ele>797.6666666666666</ele><time>2026-05-03T10:03:32.151Z</time></trkpt><trkpt lat="46.2459091" lon="8.3142871"><ele>797.0</ele><time>2026-05-03T10:03:33.156Z</time></trkpt><trkpt lat="46.2459908" lon="8.3143325"><ele>796.3333333333333</ele><time>2026-05-03T10:03:34.151Z</time></trkpt><trkpt lat="46.2460641" lon="8.3143854"><ele>795.6666666666666</ele><time>2026-05-03T10:03:35.157Z</time></trkpt><trkpt lat="46.2461256" lon="8.3144451"><ele>795.0</ele><time>2026-05-03T10:03:36.161Z</time></trkpt><trkpt lat="46.2461714" lon="8.31451"><ele>795.0</ele><time>2026-05-03T10:03:37.159Z</time></trkpt><trkpt lat="46.2462607" lon="8.3145891"><ele>795.0</ele><time>2026-05-03T10:03:39.143Z</time></trkpt><trkpt lat="46.2463517" lon="8.3146208"><ele>795.0</ele><time>2026-05-03T10:03:41.151Z</time></trkpt><trkpt lat="46.2464282" lon="8.3146176"><ele>795.0</ele><time>2026-05-03T10:03:44.15Z</time></trkpt><trkpt lat="46.2464944" lon="8.3146877"><ele>795.0</ele><time>2026-05-03T10:03:46.154Z</time></trkpt><trkpt lat="46.2465758" lon="8.3147665"><ele>793.4</ele><time>2026-05-03T10:03:48.15Z</time></trkpt><trkpt lat="46.2466696" lon="8.3148089"><ele>791.8</ele><time>2026-05-03T10:03:50.146Z</time></trkpt><trkpt lat="46.2467734" lon="8.314842"><ele>790.2</ele><time>2026-05-03T10:03:52.153Z</time></trkpt><trkpt lat="46.2468878" lon="8.3148731"><ele>788.6</ele><time>2026-05-03T10:03:54.15Z</time></trkpt><trkpt lat="46.2469674" lon="8.3149091"><ele>787.0</ele><time>2026-05-03T10:03:56.146Z</time></trkpt><trkpt lat="46.2470393" lon="8.3150031"><ele>787.0</ele><time>2026-05-03T10:03:58.15Z</time></trkpt><trkpt lat="46.2471346" lon="8.3150558"><ele>787.0</ele><time>2026-05-03T10:04:00.149Z</time></trkpt><trkpt lat="46.2472562" lon="8.3150853"><ele>787.0</ele><time>2026-05-03T10:04:02.153Z</time></trkpt><trkpt lat="46.2473216" lon="8.3150923"><ele>787.0</ele><time>2026-05-03T10:04:03.162Z</time></trkpt><trkpt lat="46.2474418" lon="8.3151135"><ele>787.0</ele><time>2026-05-03T10:04:05.152Z</time></trkpt><trkpt lat="46.2475454" lon="8.3150675"><ele>785.1666666666666</ele><time>2026-05-03T10:04:07.157Z</time></trkpt><trkpt lat="46.2476174" lon="8.3150915"><ele>783.3333333333333</ele><time>2026-05-03T10:04:11.151Z</time></trkpt><trkpt lat="46.2476965" lon="8.3150629"><ele>781.5</ele><time>2026-05-03T10:04:13.151Z</time></trkpt><trkpt lat="46.2477599" lon="8.3149975"><ele>779.6666666666667</ele><time>2026-05-03T10:04:17.155Z</time></trkpt><trkpt lat="46.2478363" lon="8.3149547"><ele>777.8333333333334</ele><time>2026-05-03T10:04:19.152Z</time></trkpt><trkpt lat="46.2479366" lon="8.3148659"><ele>776.0</ele><time>2026-05-03T10:04:21.157Z</time></trkpt><trkpt lat="46.2479911" lon="8.3148148"><ele>776.0</ele><time>2026-05-03T10:04:22.163Z</time></trkpt><trkpt lat="46.248095" lon="8.3147747"><ele>776.0</ele><time>2026-05-03T10:04:24.164Z</time></trkpt><trkpt lat="46.2481791" lon="8.3147464"><ele>776.0</ele><time>2026-05-03T10:04:26.155Z</time></trkpt><trkpt lat="46.248278" lon="8.3147369"><ele>776.0</ele><time>2026-05-03T10:04:28.156Z</time></trkpt><trkpt lat="46.2483919" lon="8.3147306"><ele>776.0</ele><time>2026-05-03T10:04:30.151Z</time></trkpt><trkpt lat="46.248478" lon="8.3147453"><ele>775.8</ele><time>2026-05-03T10:04:32.158Z</time></trkpt><trkpt lat="46.2485631" lon="8.3146975"><ele>775.5999999999999</ele><time>2026-05-03T10:04:34.162Z</time></trkpt><trkpt lat="46.2486555" lon="8.3146625"><ele>775.4</ele><time>2026-05-03T10:04:36.166Z</time></trkpt><trkpt lat="46.2487798" lon="8.3146335"><ele>775.2</ele><time>2026-05-03T10:04:38.152Z</time></trkpt><trkpt lat="46.248852" lon="8.3146135"><ele>775.0</ele><time>2026-05-03T10:04:39.155Z</time></trkpt><trkpt lat="46.2489305" lon="8.3145928"><ele>772.8333333333333</ele><time>2026-05-03T10:04:40.144Z</time></trkpt><trkpt lat="46.2490152" lon="8.3145819"><ele>770.6666666666666</ele><time>2026-05-03T10:04:41.148Z</time></trkpt><trkpt lat="46.249102" lon="8.314568"><ele>768.5</ele><time>2026-05-03T10:04:42.143Z</time></trkpt><trkpt lat="46.2491914" lon="8.3145605"><ele>766.3333333333333</ele><time>2026-05-03T10:04:43.141Z</time></trkpt><trkpt lat="46.2492737" lon="8.3145414"><ele>764.1666666666666</ele><time>2026-05-03T10:04:44.144Z</time></trkpt><trkpt lat="46.2493591" lon="8.3145006"><ele>762.0</ele><time>2026-05-03T10:04:45.143Z</time></trkpt><trkpt lat="46.2494454" lon="8.314451"><ele>762.0</ele><time>2026-05-03T10:04:46.147Z</time></trkpt><trkpt lat="46.2495158" lon="8.3144478"><ele>762.0</ele><time>2026-05-03T10:04:47.146Z</time></trkpt><trkpt lat="46.2495779" lon="8.3144065"><ele>762.0</ele><time>2026-05-03T10:04:48.141Z</time></trkpt><trkpt lat="46.2496498" lon="8.3143526"><ele>762.0</ele><time>2026-05-03T10:04:49.146Z</time></trkpt><trkpt lat="46.2497134" lon="8.3142897"><ele>762.0</ele><time>2026-05-03T10:04:50.135Z</time></trkpt><trkpt lat="46.249768" lon="8.3142359"><ele>762.0</ele><time>2026-05-03T10:04:51.138Z</time></trkpt><trkpt lat="46.2498714" lon="8.3141524"><ele>760.0</ele><time>2026-05-03T10:04:53.149Z</time></trkpt><trkpt lat="46.2499475" lon="8.3141217"><ele>758.0</ele><time>2026-05-03T10:04:55.138Z</time></trkpt><trkpt lat="46.250013" lon="8.3141302"><ele>756.0</ele><time>2026-05-03T10:04:57.139Z</time></trkpt><trkpt lat="46.2501403" lon="8.3141619"><ele>754.0</ele><time>2026-05-03T10:05:01.137Z</time></trkpt><trkpt lat="46.2502444" lon="8.3141938"><ele>752.0</ele><time>2026-05-03T10:05:03.132Z</time></trkpt><trkpt lat="46.2503713" lon="8.3141589"><ele>752.0</ele><time>2026-05-03T10:05:06.139Z</time></trkpt><trkpt lat="46.2504656" lon="8.314091"><ele>752.0</ele><time>2026-05-03T10:05:08.146Z</time></trkpt><trkpt lat="46.2505423" lon="8.3140568"><ele>752.0</ele><time>2026-05-03T10:05:10.156Z</time></trkpt><trkpt lat="46.2506611" lon="8.3140317"><ele>752.0</ele><time>2026-05-03T10:05:12.142Z</time></trkpt><trkpt lat="46.2507234" lon="8.314016"><ele>752.0</ele><time>2026-05-03T10:05:13.139Z</time></trkpt><trkpt lat="46.250787" lon="8.3140342"><ele>752.0</ele><time>2026-05-03T10:05:14.139Z</time></trkpt><trkpt lat="46.2509078" lon="8.3140507"><ele>749.8333333333333</ele><time>2026-05-03T10:05:16.139Z</time></trkpt><trkpt lat="46.2509807" lon="8.314081"><ele>747.6666666666666</ele><time>2026-05-03T10:05:17.136Z</time></trkpt><trkpt lat="46.2510723" lon="8.3140764"><ele>745.5</ele><time>2026-05-03T10:05:18.149Z</time></trkpt><trkpt lat="46.2511535" lon="8.314043"><ele>743.3333333333334</ele><time>2026-05-03T10:05:19.146Z</time></trkpt><trkpt lat="46.2512378" lon="8.3139781"><ele>741.1666666666667</ele><time>2026-05-03T10:05:20.15Z</time></trkpt><trkpt lat="46.2513224" lon="8.313926"><ele>739.0</ele><time>2026-05-03T10:05:21.144Z</time></trkpt><trkpt lat="46.2514087" lon="8.3138657"><ele>740.6666666666667</ele><time>2026-05-03T10:05:22.149Z</time></trkpt><trkpt lat="46.2514917" lon="8.3138098"><ele>742.3333333333334</ele><time>2026-05-03T10:05:23.147Z</time></trkpt><trkpt lat="46.2515648" lon="8.3137626"><ele>744.0</ele><time>2026-05-03T10:05:24.142Z</time></trkpt><trkpt lat="46.2516246" lon="8.3136863"><ele>745.6666666666666</ele><time>2026-05-03T10:05:25.149Z</time></trkpt><trkpt lat="46.2516838" lon="8.3136115"><ele>747.3333333333333</ele><time>2026-05-03T10:05:26.145Z</time></trkpt><trkpt lat="46.2517883" lon="8.3135302"><ele>749.0</ele><time>2026-05-03T10:05:28.145Z</time></trkpt><trkpt lat="46.251871" lon="8.3134535"><ele>749.0</ele><time>2026-05-03T10:05:30.145Z</time></trkpt><trkpt lat="46.2519347" lon="8.3133803"><ele>749.0</ele><time>2026-05-03T10:05:32.141Z</time></trkpt><trkpt lat="46.2520433" lon="8.3133783"><ele>749.0</ele><time>2026-05-03T10:05:35.147Z</time></trkpt><trkpt lat="46.2521225" lon="8.3133846"><ele>749.0</ele><time>2026-05-03T10:05:38.152Z</time></trkpt><trkpt lat="46.252197" lon="8.313362"><ele>749.0</ele><time>2026-05-03T10:05:41.135Z</time></trkpt><trkpt lat="46.2522735" lon="8.3134189"><ele>749.0</ele><time>2026-05-03T10:05:43.144Z</time></trkpt><trkpt lat="46.2523485" lon="8.31343"><ele>746.3333333333333</ele><time>2026-05-03T10:05:45.147Z</time></trkpt><trkpt lat="46.2524273" lon="8.3133851"><ele>743.6666666666666</ele><time>2026-05-03T10:05:47.146Z</time></trkpt><trkpt lat="46.2525146" lon="8.3133316"><ele>741.0</ele><time>2026-05-03T10:05:49.17Z</time></trkpt><trkpt lat="46.2525894" lon="8.3132971"><ele>738.3333333333334</ele><time>2026-05-03T10:05:50.159Z</time></trkpt><trkpt lat="46.2526731" lon="8.3132515"><ele>735.6666666666667</ele><time>2026-05-03T10:05:51.154Z</time></trkpt><trkpt lat="46.2527605" lon="8.3132171"><ele>733.0</ele><time>2026-05-03T10:05:52.144Z</time></trkpt><trkpt lat="46.252856" lon="8.3131843"><ele>733.0</ele><time>2026-05-03T10:05:53.155Z</time></trkpt><trkpt lat="46.25293" lon="8.3131516"><ele>733.0</ele><time>2026-05-03T10:05:54.155Z</time></trkpt><trkpt lat="46.2529951" lon="8.3131046"><ele>733.0</ele><time>2026-05-03T10:05:55.151Z</time></trkpt><trkpt lat="46.2530558" lon="8.3130454"><ele>733.0</ele><time>2026-05-03T10:05:56.149Z</time></trkpt><trkpt lat="46.2531091" lon="8.312968"><ele>733.0</ele><time>2026-05-03T10:05:57.157Z</time></trkpt><trkpt lat="46.2531571" lon="8.3128912"><ele>733.0</ele><time>2026-05-03T10:05:58.155Z</time></trkpt><trkpt lat="46.2532611" lon="8.3128079"><ele>734.8</ele><time>2026-05-03T10:06:00.149Z</time></trkpt><trkpt lat="46.2533709" lon="8.3127828"><ele>736.5999999999999</ele><time>2026-05-03T10:06:02.149Z</time></trkpt><trkpt lat="46.2534377" lon="8.3127641"><ele>738.4000000000001</ele><time>2026-05-03T10:06:05.15Z</time></trkpt><trkpt lat="46.2535245" lon="8.3127211"><ele>740.2</ele><time>2026-05-03T10:06:10.149Z</time></trkpt><trkpt lat="46.2536371" lon="8.3126384"><ele>742.0</ele><time>2026-05-03T10:06:12.139Z</time></trkpt><trkpt lat="46.2537215" lon="8.3125924"><ele>742.0</ele><time>2026-05-03T10:06:13.141Z</time></trkpt><trkpt lat="46.2538151" lon="8.3125474"><ele>742.0</ele><time>2026-05-03T10:06:14.142Z</time></trkpt><trkpt lat="46.2539103" lon="8.3125045"><ele>742.0</ele><time>2026-05-03T10:06:15.14Z</time></trkpt><trkpt lat="46.2540071" lon="8.3124815"><ele>742.0</ele><time>2026-05-03T10:06:16.142Z</time></trkpt><trkpt lat="46.2540905" lon="8.3124664"><ele>742.0</ele><time>2026-05-03T10:06:17.14Z</time></trkpt><trkpt lat="46.254157" lon="8.3124574"><ele>742.0</ele><time>2026-05-03T10:06:18.141Z</time></trkpt><trkpt lat="46.2542736" lon="8.3124202"><ele>743.8</ele><time>2026-05-03T10:06:20.144Z</time></trkpt><trkpt lat="46.254393" lon="8.3123818"><ele>745.6</ele><time>2026-05-03T10:06:22.132Z</time></trkpt><trkpt lat="46.254457" lon="8.3123506"><ele>747.4</ele><time>2026-05-03T10:06:23.14Z</time></trkpt><trkpt lat="46.2545183" lon="8.3123127"><ele>749.1999999999999</ele><time>2026-05-03T10:06:24.142Z</time></trkpt><trkpt lat="46.2546367" lon="8.3122414"><ele>751.0</ele><time>2026-05-03T10:06:26.152Z</time></trkpt><trkpt lat="46.2547289" lon="8.3121868"><ele>748.0</ele><time>2026-05-03T10:06:28.141Z</time></trkpt><trkpt lat="46.2548" lon="8.3121588"><ele>745.0</ele><time>2026-05-03T10:06:31.144Z</time></trkpt><trkpt lat="46.2548553" lon="8.312095"><ele>742.0</ele><time>2026-05-03T10:06:33.147Z</time></trkpt><trkpt lat="46.2549202" lon="8.3120831"><ele>739.0</ele><time>2026-05-03T10:06:35.16Z</time></trkpt><trkpt lat="46.2549961" lon="8.3120476"><ele>736.0</ele><time>2026-05-03T10:06:37.154Z</time></trkpt><trkpt lat="46.2550833" lon="8.312017"><ele>733.0</ele><time>2026-05-03T10:06:39.155Z</time></trkpt><trkpt lat="46.2551773" lon="8.3120193"><ele>733.0</ele><time>2026-05-03T10:06:41.152Z</time></trkpt><trkpt lat="46.2552602" lon="8.3120301"><ele>733.0</ele><time>2026-05-03T10:06:43.148Z</time></trkpt><trkpt lat="46.2553374" lon="8.3120261"><ele>733.0</ele><time>2026-05-03T10:06:46.162Z</time></trkpt><trkpt lat="46.2554296" lon="8.3120414"><ele>733.0</ele><time>2026-05-03T10:07:01.162Z</time></trkpt><trkpt lat="46.2555213" lon="8.3119981"><ele>733.0</ele><time>2026-05-03T10:07:03.153Z</time></trkpt><trkpt lat="46.2556169" lon="8.3119002"><ele>731.0</ele><time>2026-05-03T10:07:05.165Z</time></trkpt><trkpt lat="46.2556779" lon="8.3118464"><ele>729.0</ele><time>2026-05-03T10:07:06.162Z</time></trkpt><trkpt lat="46.2557402" lon="8.3118016"><ele>727.0</ele><time>2026-05-03T10:07:07.155Z</time></trkpt><trkpt lat="46.2557983" lon="8.311766"><ele>725.0</ele><time>2026-05-03T10:07:08.165Z</time></trkpt><trkpt lat="46.2559054" lon="8.31171"><ele>723.0</ele><time>2026-05-03T10:07:10.167Z</time></trkpt><trkpt lat="46.2560246" lon="8.3116352"><ele>721.0</ele><time>2026-05-03T10:07:12.17Z</time></trkpt><trkpt lat="46.2560898" lon="8.3115948"><ele>721.0</ele><time>2026-05-03T10:07:13.17Z</time></trkpt><trkpt lat="46.2561591" lon="8.3115613"><ele>721.0</ele><time>2026-05-03T10:07:14.168Z</time></trkpt><trkpt lat="46.2562311" lon="8.3115284"><ele>721.0</ele><time>2026-05-03T10:07:15.167Z</time></trkpt><trkpt lat="46.2563088" lon="8.3115041"><ele>721.0</ele><time>2026-05-03T10:07:16.168Z</time></trkpt><trkpt lat="46.2563909" lon="8.3114873"><ele>721.0</ele><time>2026-05-03T10:07:17.162Z</time></trkpt><trkpt lat="46.2564751" lon="8.3114729"><ele>721.0</ele><time>2026-05-03T10:07:18.176Z</time></trkpt><trkpt lat="46.2565602" lon="8.3114496"><ele>722.3333333333334</ele><time>2026-05-03T10:07:19.168Z</time></trkpt><trkpt lat="46.2566409" lon="8.3114019"><ele>723.6666666666667</ele><time>2026-05-03T10:07:20.161Z</time></trkpt><trkpt lat="46.2567054" lon="8.3113354"><ele>725.0</ele><time>2026-05-03T10:07:21.162Z</time></trkpt><trkpt lat="46.2567809" lon="8.3112274"><ele>726.3333333333334</ele><time>2026-05-03T10:07:23.155Z</time></trkpt><trkpt lat="46.2568533" lon="8.3111528"><ele>727.6666666666666</ele><time>2026-05-03T10:07:25.162Z</time></trkpt><trkpt lat="46.2569295" lon="8.3111071"><ele>729.0</ele><time>2026-05-03T10:07:27.163Z</time></trkpt><trkpt lat="46.2570281" lon="8.3110496"><ele>729.0</ele><time>2026-05-03T10:07:29.166Z</time></trkpt><trkpt lat="46.2571452" lon="8.3110089"><ele>729.0</ele><time>2026-05-03T10:07:31.147Z</time></trkpt><trkpt lat="46.2572579" lon="8.3109431"><ele>729.0</ele><time>2026-05-03T10:07:33.146Z</time></trkpt><trkpt lat="46.257341" lon="8.3108185"><ele>729.0</ele><time>2026-05-03T10:07:35.149Z</time></trkpt><trkpt lat="46.257375" lon="8.3107406"><ele>729.0</ele><time>2026-05-03T10:07:36.152Z</time></trkpt><trkpt lat="46.2574399" lon="8.3105829"><ele>728.6666666666666</ele><time>2026-05-03T10:07:38.147Z</time></trkpt><trkpt lat="46.2575019" lon="8.3104564"><ele>728.3333333333334</ele><time>2026-05-03T10:07:40.14Z</time></trkpt><trkpt lat="46.2575546" lon="8.3103572"><ele>728.0</ele><time>2026-05-03T10:07:42.151Z</time></trkpt><trkpt lat="46.2576193" lon="8.3102665"><ele>727.6666666666667</ele><time>2026-05-03T10:07:44.147Z</time></trkpt><trkpt lat="46.257684" lon="8.3101947"><ele>727.3333333333334</ele><time>2026-05-03T10:07:46.143Z</time></trkpt><trkpt lat="46.2577412" lon="8.310114"><ele>727.0</ele><time>2026-05-03T10:07:49.148Z</time></trkpt><trkpt lat="46.2578255" lon="8.3101193"><ele>727.0</ele><time>2026-05-03T10:07:53.142Z</time></trkpt><trkpt lat="46.2579032" lon="8.3101641"><ele>727.0</ele><time>2026-05-03T10:07:55.145Z</time></trkpt><trkpt lat="46.258019" lon="8.310243"><ele>727.0</ele><time>2026-05-03T10:07:57.156Z</time></trkpt><trkpt lat="46.2580923" lon="8.3102774"><ele>727.0</ele><time>2026-05-03T10:07:58.139Z</time></trkpt><trkpt lat="46.2581767" lon="8.3102982"><ele>727.0</ele><time>2026-05-03T10:07:59.156Z</time></trkpt><trkpt lat="46.2582683" lon="8.3102921"><ele>723.4000000000001</ele><time>2026-05-03T10:08:00.151Z</time></trkpt><trkpt lat="46.2583635" lon="8.3102502"><ele>719.8000000000001</ele><time>2026-05-03T10:08:01.159Z</time></trkpt><trkpt lat="46.2584587" lon="8.3101918"><ele>716.2</ele><time>2026-05-03T10:08:02.159Z</time></trkpt><trkpt lat="46.2585513" lon="8.3101211"><ele>712.6</ele><time>2026-05-03T10:08:03.16Z</time></trkpt><trkpt lat="46.2586418" lon="8.3100442"><ele>709.0</ele><time>2026-05-03T10:08:04.161Z</time></trkpt><trkpt lat="46.2587293" lon="8.3099688"><ele>709.0</ele><time>2026-05-03T10:08:05.153Z</time></trkpt><trkpt lat="46.2588117" lon="8.3098922"><ele>709.0</ele><time>2026-05-03T10:08:06.157Z</time></trkpt><trkpt lat="46.2588841" lon="8.3098277"><ele>709.0</ele><time>2026-05-03T10:08:07.155Z</time></trkpt><trkpt lat="46.258947" lon="8.3097604"><ele>709.0</ele><time>2026-05-03T10:08:08.146Z</time></trkpt><trkpt lat="46.2590234" lon="8.3096525"><ele>709.0</ele><time>2026-05-03T10:08:10.154Z</time></trkpt><trkpt lat="46.2590652" lon="8.309567"><ele>709.0</ele><time>2026-05-03T10:08:12.152Z</time></trkpt><trkpt lat="46.259125" lon="8.3095015"><ele>710.5</ele><time>2026-05-03T10:08:14.154Z</time></trkpt><trkpt lat="46.2591847" lon="8.3094493"><ele>712.0</ele><time>2026-05-03T10:08:16.159Z</time></trkpt><trkpt lat="46.2592424" lon="8.3093884"><ele>713.5</ele><time>2026-05-03T10:08:18.148Z</time></trkpt><trkpt lat="46.2593122" lon="8.3093208"><ele>715.0</ele><time>2026-05-03T10:08:21.159Z</time></trkpt><trkpt lat="46.2593704" lon="8.3092619"><ele>716.5</ele><time>2026-05-03T10:08:23.16Z</time></trkpt><trkpt lat="46.2594344" lon="8.3091814"><ele>718.0</ele><time>2026-05-03T10:08:25.152Z</time></trkpt><trkpt lat="46.2595022" lon="8.3091128"><ele>718.0</ele><time>2026-05-03T10:08:27.153Z</time></trkpt><trkpt lat="46.2595789" lon="8.309096"><ele>718.0</ele><time>2026-05-03T10:08:29.153Z</time></trkpt><trkpt lat="46.2596389" lon="8.3090605"><ele>718.0</ele><time>2026-05-03T10:08:31.155Z</time></trkpt><trkpt lat="46.2596994" lon="8.3089948"><ele>718.0</ele><time>2026-05-03T10:08:34.154Z</time></trkpt><trkpt lat="46.2597616" lon="8.3089619"><ele>718.0</ele><time>2026-05-03T10:08:38.158Z</time></trkpt><trkpt lat="46.2598287" lon="8.3090277"><ele>718.0</ele><time>2026-05-03T10:08:48.136Z</time></trkpt><trkpt lat="46.2599006" lon="8.3090489"><ele>718.0</ele><time>2026-05-03T10:09:04.149Z</time></trkpt><trkpt lat="46.2600089" lon="8.3090805"><ele>716.5</ele><time>2026-05-03T10:09:06.142Z</time></trkpt><trkpt lat="46.2601316" lon="8.3091042"><ele>715.0</ele><time>2026-05-03T10:09:08.141Z</time></trkpt><trkpt lat="46.2601994" lon="8.3091287"><ele>713.5</ele><time>2026-05-03T10:09:09.146Z</time></trkpt><trkpt lat="46.2602698" lon="8.3091448"><ele>712.0</ele><time>2026-05-03T10:09:10.146Z</time></trkpt><trkpt lat="46.2603411" lon="8.3091702"><ele>710.5</ele><time>2026-05-03T10:09:11.15Z</time></trkpt><trkpt lat="46.2604238" lon="8.3091891"><ele>709.0</ele><time>2026-05-03T10:09:12.151Z</time></trkpt><trkpt lat="46.2605044" lon="8.3092135"><ele>709.0</ele><time>2026-05-03T10:09:13.148Z</time></trkpt><trkpt lat="46.2605917" lon="8.3092518"><ele>709.0</ele><time>2026-05-03T10:09:14.147Z</time></trkpt><trkpt lat="46.2606836" lon="8.3093043"><ele>709.0</ele><time>2026-05-03T10:09:15.151Z</time></trkpt><trkpt lat="46.2607694" lon="8.3093545"><ele>709.0</ele><time>2026-05-03T10:09:16.15Z</time></trkpt><trkpt lat="46.2608518" lon="8.3094104"><ele>709.0</ele><time>2026-05-03T10:09:17.153Z</time></trkpt><trkpt lat="46.2609346" lon="8.309469"><ele>708.3333333333334</ele><time>2026-05-03T10:09:18.154Z</time></trkpt><trkpt lat="46.2610047" lon="8.3095206"><ele>707.6666666666667</ele><time>2026-05-03T10:09:19.161Z</time></trkpt><trkpt lat="46.261111" lon="8.3095694"><ele>707.0</ele><time>2026-05-03T10:09:21.155Z</time></trkpt><trkpt lat="46.2611863" lon="8.3096192"><ele>706.3333333333334</ele><time>2026-05-03T10:09:23.161Z</time></trkpt><trkpt lat="46.2611426" lon="8.3097271"><ele>705.6666666666666</ele><time>2026-05-03T10:09:29.146Z</time></trkpt><trkpt lat="46.2610735" lon="8.3097613"><ele>705.0</ele><time>2026-05-03T10:09:30.151Z</time></trkpt><trkpt lat="46.2609792" lon="8.3097813"><ele>702.6666666666666</ele><time>2026-05-03T10:09:32.149Z</time></trkpt><trkpt lat="46.2609213" lon="8.3098261"><ele>700.3333333333334</ele><time>2026-05-03T10:09:33.154Z</time></trkpt><trkpt lat="46.2608589" lon="8.3098508"><ele>698.0</ele><time>2026-05-03T10:09:34.159Z</time></trkpt><trkpt lat="46.2607946" lon="8.3098987"><ele>695.6666666666667</ele><time>2026-05-03T10:09:35.149Z</time></trkpt><trkpt lat="46.2606955" lon="8.3099587"><ele>693.3333333333334</ele><time>2026-05-03T10:09:37.156Z</time></trkpt><trkpt lat="46.2606401" lon="8.3100167"><ele>691.0</ele><time>2026-05-03T10:09:38.157Z</time></trkpt><trkpt lat="46.2605705" lon="8.3100631"><ele>691.0</ele><time>2026-05-03T10:09:39.153Z</time></trkpt><trkpt lat="46.2604756" lon="8.3101176"><ele>691.0</ele><time>2026-05-03T10:09:40.158Z</time></trkpt><trkpt lat="46.260372" lon="8.3101597"><ele>691.0</ele><time>2026-05-03T10:09:41.16Z</time></trkpt><trkpt lat="46.2602964" lon="8.3101726"><ele>691.0</ele><time>2026-05-03T10:09:42.153Z</time></trkpt><trkpt lat="46.2602242" lon="8.3101762"><ele>691.0</ele><time>2026-05-03T10:09:43.147Z</time></trkpt><trkpt lat="46.2601514" lon="8.3102029"><ele>691.0</ele><time>2026-05-03T10:09:44.151Z</time></trkpt><trkpt lat="46.2601941" lon="8.3102962"><ele>691.0</ele><time>2026-05-03T10:09:50.146Z</time></trkpt><trkpt lat="46.2603016" lon="8.3103973"><ele>691.0</ele><time>2026-05-03T10:09:52.15Z</time></trkpt><trkpt lat="46.2604153" lon="8.3105096"><ele>691.0</ele><time>2026-05-03T10:09:54.152Z</time></trkpt><trkpt lat="46.260484" lon="8.3105897"><ele>691.0</ele><time>2026-05-03T10:09:55.153Z</time></trkpt><trkpt lat="46.2605659" lon="8.310685"><ele>687.5999999999999</ele><time>2026-05-03T10:09:56.155Z</time></trkpt><trkpt lat="46.2606507" lon="8.3107863"><ele>684.2</ele><time>2026-05-03T10:09:57.154Z</time></trkpt><trkpt lat="46.2607415" lon="8.3108956"><ele>680.8</ele><time>2026-05-03T10:09:58.161Z</time></trkpt><trkpt lat="46.2608089" lon="8.3109823"><ele>677.4000000000001</ele><time>2026-05-03T10:09:59.158Z</time></trkpt><trkpt lat="46.2608889" lon="8.3110615"><ele>674.0</ele><time>2026-05-03T10:10:00.148Z</time></trkpt><trkpt lat="46.2609768" lon="8.3111217"><ele>674.0</ele><time>2026-05-03T10:10:01.159Z</time></trkpt><trkpt lat="46.2610699" lon="8.3111768"><ele>674.0</ele><time>2026-05-03T10:10:02.161Z</time></trkpt><trkpt lat="46.2611566" lon="8.3112158"><ele>674.0</ele><time>2026-05-03T10:10:03.151Z</time></trkpt><trkpt lat="46.2612409" lon="8.311257"><ele>674.0</ele><time>2026-05-03T10:10:04.153Z</time></trkpt><trkpt lat="46.2613124" lon="8.3112818"><ele>674.0</ele><time>2026-05-03T10:10:05.152Z</time></trkpt><trkpt lat="46.2614254" lon="8.3113177"><ele>672.3333333333333</ele><time>2026-05-03T10:10:07.151Z</time></trkpt><trkpt lat="46.261455" lon="8.3114037"><ele>670.6666666666666</ele><time>2026-05-03T10:10:11.125Z</time></trkpt><trkpt lat="46.2614051" lon="8.3114909"><ele>669.0</ele><time>2026-05-03T10:10:13.129Z</time></trkpt><trkpt lat="46.2613628" lon="8.311564"><ele>667.3333333333334</ele><time>2026-05-03T10:10:14.128Z</time></trkpt><trkpt lat="46.2613732" lon="8.3117131"><ele>665.6666666666667</ele><time>2026-05-03T10:10:16.132Z</time></trkpt><trkpt lat="46.2612935" lon="8.3117665"><ele>664.0</ele><time>2026-05-03T10:10:18.137Z</time></trkpt><trkpt lat="46.2612162" lon="8.3118097"><ele>664.0</ele><time>2026-05-03T10:10:20.133Z</time></trkpt><trkpt lat="46.2611787" lon="8.3119047"><ele>664.0</ele><time>2026-05-03T10:10:22.135Z</time></trkpt><trkpt lat="46.2610851" lon="8.3119823"><ele>664.0</ele><time>2026-05-03T10:10:24.135Z</time></trkpt><trkpt lat="46.2610119" lon="8.3120312"><ele>664.0</ele><time>2026-05-03T10:10:25.138Z</time></trkpt><trkpt lat="46.2609437" lon="8.3120962"><ele>664.0</ele><time>2026-05-03T10:10:26.137Z</time></trkpt><trkpt lat="46.2608433" lon="8.312167"><ele>664.0</ele><time>2026-05-03T10:10:28.142Z</time></trkpt><trkpt lat="46.2607707" lon="8.3122142"><ele>664.0</ele><time>2026-05-03T10:10:29.133Z</time></trkpt><trkpt lat="46.2606995" lon="8.3122593"><ele>664.0</ele><time>2026-05-03T10:10:30.145Z</time></trkpt><trkpt lat="46.2606238" lon="8.3123024"><ele>664.0</ele><time>2026-05-03T10:10:31.136Z</time></trkpt><trkpt lat="46.2605372" lon="8.3123556"><ele>664.0</ele><time>2026-05-03T10:10:32.137Z</time></trkpt><trkpt lat="46.2604556" lon="8.3124012"><ele>664.0</ele><time>2026-05-03T10:10:33.14Z</time></trkpt><trkpt lat="46.2603615" lon="8.3124481"><ele>661.0</ele><time>2026-05-03T10:10:34.136Z</time></trkpt><trkpt lat="46.2602623" lon="8.3125034"><ele>658.0</ele><time>2026-05-03T10:10:35.147Z</time></trkpt><trkpt lat="46.2601724" lon="8.3125496"><ele>655.0</ele><time>2026-05-03T10:10:36.147Z</time></trkpt><trkpt lat="46.2600908" lon="8.312581"><ele>652.0</ele><time>2026-05-03T10:10:37.138Z</time></trkpt><trkpt lat="46.2600133" lon="8.3126013"><ele>649.0</ele><time>2026-05-03T10:10:38.137Z</time></trkpt><trkpt lat="46.259931" lon="8.3126308"><ele>649.0</ele><time>2026-05-03T10:10:39.144Z</time></trkpt><trkpt lat="46.2598556" lon="8.3126583"><ele>649.0</ele><time>2026-05-03T10:10:40.143Z</time></trkpt><trkpt lat="46.2597853" lon="8.3126882"><ele>649.0</ele><time>2026-05-03T10:10:41.164Z</time></trkpt><trkpt lat="46.2597001" lon="8.3127261"><ele>649.0</ele><time>2026-05-03T10:10:43.131Z</time></trkpt><trkpt lat="46.2596224" lon="8.3127916"><ele>649.0</ele><time>2026-05-03T10:10:45.133Z</time></trkpt><trkpt lat="46.2595776" lon="8.3128985"><ele>649.0</ele><time>2026-05-03T10:10:47.134Z</time></trkpt><trkpt lat="46.2595197" lon="8.3130109"><ele>648.3333333333334</ele><time>2026-05-03T10:10:49.133Z</time></trkpt><trkpt lat="46.2594639" lon="8.3131388"><ele>647.6666666666667</ele><time>2026-05-03T10:10:51.137Z</time></trkpt><trkpt lat="46.2594263" lon="8.3132228"><ele>647.0</ele><time>2026-05-03T10:10:52.136Z</time></trkpt><trkpt lat="46.2593604" lon="8.3132954"><ele>646.3333333333334</ele><time>2026-05-03T10:10:53.132Z</time></trkpt><trkpt lat="46.2593042" lon="8.3133925"><ele>645.6666666666666</ele><time>2026-05-03T10:10:54.135Z</time></trkpt><trkpt lat="46.2592662" lon="8.3135088"><ele>645.0</ele><time>2026-05-03T10:10:55.144Z</time></trkpt><trkpt lat="46.2592106" lon="8.3136482"><ele>645.0</ele><time>2026-05-03T10:10:56.132Z</time></trkpt><trkpt lat="46.2591603" lon="8.3138066"><ele>645.0</ele><time>2026-05-03T10:10:57.138Z</time></trkpt><trkpt lat="46.2591022" lon="8.3139447"><ele>645.0</ele><time>2026-05-03T10:10:58.139Z</time></trkpt><trkpt lat="46.2590327" lon="8.3140689"><ele>645.0</ele><time>2026-05-03T10:10:59.129Z</time></trkpt><trkpt lat="46.2589622" lon="8.3141661"><ele>645.0</ele><time>2026-05-03T10:11:00.133Z</time></trkpt><trkpt lat="46.2588962" lon="8.3142548"><ele>643.0</ele><time>2026-05-03T10:11:01.143Z</time></trkpt><trkpt lat="46.2588303" lon="8.3143191"><ele>641.0</ele><time>2026-05-03T10:11:02.138Z</time></trkpt><trkpt lat="46.2587682" lon="8.3143897"><ele>639.0</ele><time>2026-05-03T10:11:03.129Z</time></trkpt><trkpt lat="46.2587187" lon="8.3144497"><ele>637.0</ele><time>2026-05-03T10:11:04.15Z</time></trkpt><trkpt lat="46.2586197" lon="8.3145223"><ele>635.0</ele><time>2026-05-03T10:11:06.136Z</time></trkpt><trkpt lat="46.2585571" lon="8.3145353"><ele>633.0</ele><time>2026-05-03T10:11:09.134Z</time></trkpt><trkpt lat="46.2585969" lon="8.3144646"><ele>633.0</ele><time>2026-05-03T10:11:37.127Z</time></trkpt><trkpt lat="46.2586292" lon="8.3145667"><ele>633.0</ele><time>2026-05-03T10:12:15.138Z</time></trkpt><trkpt lat="46.2586653" lon="8.3144858"><ele>633.0</ele><time>2026-05-03T10:12:54.135Z</time></trkpt><trkpt lat="46.2585913" lon="8.314555"><ele>633.0</ele><time>2026-05-03T10:13:24.133Z</time></trkpt><trkpt lat="46.258546" lon="8.3144897"><ele>633.0</ele><time>2026-05-03T10:13:29.134Z</time></trkpt><trkpt lat="46.2584878" lon="8.3145613"><ele>633.0</ele><time>2026-05-03T10:13:41.143Z</time></trkpt><trkpt lat="46.2584259" lon="8.3145889"><ele>633.0</ele><time>2026-05-03T10:13:44.15Z</time></trkpt><trkpt lat="46.2583571" lon="8.3145195"><ele>633.0</ele><time>2026-05-03T10:13:47.143Z</time></trkpt><trkpt lat="46.2582978" lon="8.3144477"><ele>633.0</ele><time>2026-05-03T10:13:49.147Z</time></trkpt><trkpt lat="46.258218" lon="8.3143775"><ele>633.0</ele><time>2026-05-03T10:13:52.15Z</time></trkpt><trkpt lat="46.2581458" lon="8.3143091"><ele>633.0</ele><time>2026-05-03T10:13:55.145Z</time></trkpt><trkpt lat="46.258086" lon="8.3142419"><ele>633.0</ele><time>2026-05-03T10:13:58.147Z</time></trkpt><trkpt lat="46.2580309" lon="8.3141456"><ele>633.0</ele><time>2026-05-03T10:14:01.159Z</time></trkpt><trkpt lat="46.2579852" lon="8.3140812"><ele>633.5</ele><time>2026-05-03T10:14:03.155Z</time></trkpt><trkpt lat="46.2579192" lon="8.3139757"><ele>634.0</ele><time>2026-05-03T10:14:06.156Z</time></trkpt><trkpt lat="46.2578676" lon="8.3139162"><ele>634.5</ele><time>2026-05-03T10:14:08.153Z</time></trkpt><trkpt lat="46.2578195" lon="8.3138566"><ele>635.0</ele><time>2026-05-03T10:14:10.155Z</time></trkpt><trkpt lat="46.2577539" lon="8.3137767"><ele>635.5</ele><time>2026-05-03T10:14:13.15Z</time></trkpt><trkpt lat="46.2576879" lon="8.3137111"><ele>636.0</ele><time>2026-05-03T10:14:16.162Z</time></trkpt><trkpt lat="46.2576157" lon="8.3136245"><ele>637.6666666666666</ele><time>2026-05-03T10:14:19.175Z</time></trkpt><trkpt lat="46.2575404" lon="8.3135338"><ele>639.3333333333334</ele><time>2026-05-03T10:14:22.17Z</time></trkpt><trkpt lat="46.2574919" lon="8.313456"><ele>641.0</ele><time>2026-05-03T10:14:24.171Z</time></trkpt><trkpt lat="46.2574288" lon="8.3133669"><ele>642.6666666666667</ele><time>2026-05-03T10:14:27.155Z</time></trkpt><trkpt lat="46.2573722" lon="8.3133039"><ele>644.3333333333334</ele><time>2026-05-03T10:14:29.164Z</time></trkpt><trkpt lat="46.2573041" lon="8.3132133"><ele>646.0</ele><time>2026-05-03T10:14:32.162Z</time></trkpt><trkpt lat="46.2572609" lon="8.3131351"><ele>652.0</ele><time>2026-05-03T10:14:34.174Z</time></trkpt><trkpt lat="46.2572101" lon="8.3130641"><ele>658.0</ele><time>2026-05-03T10:14:36.17Z</time></trkpt><trkpt lat="46.2571417" lon="8.3130118"><ele>664.0</ele><time>2026-05-03T10:14:38.175Z</time></trkpt><trkpt lat="46.2570673" lon="8.3129759"><ele>670.0</ele><time>2026-05-03T10:14:40.168Z</time></trkpt><trkpt lat="46.2569846" lon="8.3129631"><ele>676.0</ele><time>2026-05-03T10:14:42.177Z</time></trkpt><trkpt lat="46.2569123" lon="8.3129865"><ele>682.0</ele><time>2026-05-03T10:14:44.176Z</time></trkpt><trkpt lat="46.2568197" lon="8.3130146"><ele>682.0</ele><time>2026-05-03T10:14:47.173Z</time></trkpt><trkpt lat="46.2567278" lon="8.3130284"><ele>682.0</ele><time>2026-05-03T10:14:50.168Z</time></trkpt><trkpt lat="46.2566616" lon="8.3130541"><ele>682.0</ele><time>2026-05-03T10:14:52.164Z</time></trkpt><trkpt lat="46.256579" lon="8.3131018"><ele>682.0</ele><time>2026-05-03T10:14:54.169Z</time></trkpt><trkpt lat="46.2565002" lon="8.3131277"><ele>682.0</ele><time>2026-05-03T10:14:56.164Z</time></trkpt><trkpt lat="46.2564224" lon="8.3131518"><ele>682.0</ele><time>2026-05-03T10:14:59.155Z</time></trkpt><trkpt lat="46.2563328" lon="8.3131446"><ele>680.0</ele><time>2026-05-03T10:15:02.158Z</time></trkpt><trkpt lat="46.2562694" lon="8.3131325"><ele>678.0</ele><time>2026-05-03T10:15:04.164Z</time></trkpt><trkpt lat="46.2561822" lon="8.31315"><ele>676.0</ele><time>2026-05-03T10:15:07.164Z</time></trkpt><trkpt lat="46.2561161" lon="8.3131872"><ele>674.0</ele><time>2026-05-03T10:15:09.159Z</time></trkpt><trkpt lat="46.2560295" lon="8.313232"><ele>672.0</ele><time>2026-05-03T10:15:12.167Z</time></trkpt><trkpt lat="46.2559562" lon="8.3132563"><ele>670.0</ele><time>2026-05-03T10:15:14.162Z</time></trkpt><trkpt lat="46.2558928" lon="8.3133054"><ele>670.0</ele><time>2026-05-03T10:15:16.151Z</time></trkpt><trkpt lat="46.2558448" lon="8.3133801"><ele>670.0</ele><time>2026-05-03T10:15:18.162Z</time></trkpt><trkpt lat="46.2557962" lon="8.3134471"><ele>670.0</ele><time>2026-05-03T10:15:20.153Z</time></trkpt><trkpt lat="46.255749" lon="8.3135145"><ele>670.0</ele><time>2026-05-03T10:15:22.165Z</time></trkpt><trkpt lat="46.2556868" lon="8.3136043"><ele>670.0</ele><time>2026-05-03T10:15:25.159Z</time></trkpt><trkpt lat="46.255628" lon="8.3136693"><ele>670.0</ele><time>2026-05-03T10:15:27.162Z</time></trkpt><trkpt lat="46.2555427" lon="8.3137323"><ele>670.8571428571428</ele><time>2026-05-03T10:15:30.164Z</time></trkpt><trkpt lat="46.2554796" lon="8.3137624"><ele>671.7142857142857</ele><time>2026-05-03T10:15:32.155Z</time></trkpt><trkpt lat="46.255418" lon="8.3138066"><ele>672.5714285714286</ele><time>2026-05-03T10:15:34.151Z</time></trkpt><trkpt lat="46.2553446" lon="8.3138669"><ele>673.4285714285713</ele><time>2026-05-03T10:15:37.163Z</time></trkpt><trkpt lat="46.255291" lon="8.3139329"><ele>674.2857142857142</ele><time>2026-05-03T10:15:39.156Z</time></trkpt><trkpt lat="46.2552217" lon="8.3140059"><ele>675.1428571428571</ele><time>2026-05-03T10:15:42.158Z</time></trkpt><trkpt lat="46.2551861" lon="8.31409"><ele>676.0</ele><time>2026-05-03T10:15:45.151Z</time></trkpt><trkpt lat="46.2551528" lon="8.3142012"><ele>676.0</ele><time>2026-05-03T10:15:48.153Z</time></trkpt><trkpt lat="46.2551591" lon="8.3142938"><ele>676.0</ele><time>2026-05-03T10:15:50.158Z</time></trkpt><trkpt lat="46.2551686" lon="8.3144063"><ele>676.0</ele><time>2026-05-03T10:15:53.155Z</time></trkpt><trkpt lat="46.2551454" lon="8.314495"><ele>676.0</ele><time>2026-05-03T10:15:55.146Z</time></trkpt><trkpt lat="46.2551215" lon="8.3145816"><ele>676.0</ele><time>2026-05-03T10:15:57.155Z</time></trkpt><trkpt lat="46.2550804" lon="8.3147005"><ele>676.0</ele><time>2026-05-03T10:16:00.167Z</time></trkpt><trkpt lat="46.2550498" lon="8.314828"><ele>675.8333333333334</ele><time>2026-05-03T10:16:03.161Z</time></trkpt><trkpt lat="46.2550152" lon="8.3149179"><ele>675.6666666666667</ele><time>2026-05-03T10:16:05.161Z</time></trkpt><trkpt lat="46.254975" lon="8.3150465"><ele>675.5</ele><time>2026-05-03T10:16:08.143Z</time></trkpt><trkpt lat="46.2549449" lon="8.3151351"><ele>675.3333333333334</ele><time>2026-05-03T10:16:10.141Z</time></trkpt><trkpt lat="46.2549066" lon="8.3152325"><ele>675.1666666666666</ele><time>2026-05-03T10:16:12.144Z</time></trkpt><trkpt lat="46.2548876" lon="8.3153515"><ele>675.0</ele><time>2026-05-03T10:16:15.15Z</time></trkpt><trkpt lat="46.2548478" lon="8.3154695"><ele>675.0</ele><time>2026-05-03T10:16:18.138Z</time></trkpt><trkpt lat="46.2548171" lon="8.3155654"><ele>675.0</ele><time>2026-05-03T10:16:20.138Z</time></trkpt><trkpt lat="46.2548009" lon="8.3156813"><ele>675.0</ele><time>2026-05-03T10:16:24.128Z</time></trkpt><trkpt lat="46.2547754" lon="8.3157681"><ele>675.0</ele><time>2026-05-03T10:16:25.135Z</time></trkpt><trkpt lat="46.2547571" lon="8.3158618"><ele>675.0</ele><time>2026-05-03T10:16:26.142Z</time></trkpt><trkpt lat="46.2547172" lon="8.3159713"><ele>675.0</ele><time>2026-05-03T10:16:29.139Z</time></trkpt><trkpt lat="46.2546387" lon="8.3159632"><ele>676.2857142857142</ele><time>2026-05-03T10:16:32.148Z</time></trkpt><trkpt lat="46.2545777" lon="8.3159257"><ele>677.5714285714286</ele><time>2026-05-03T10:16:34.148Z</time></trkpt><trkpt lat="46.254514" lon="8.3158892"><ele>678.8571428571429</ele><time>2026-05-03T10:16:36.15Z</time></trkpt><trkpt lat="46.254434" lon="8.3158294"><ele>680.1428571428571</ele><time>2026-05-03T10:16:39.155Z</time></trkpt><trkpt lat="46.2543721" lon="8.3157907"><ele>681.4285714285714</ele><time>2026-05-03T10:16:41.16Z</time></trkpt><trkpt lat="46.2543128" lon="8.3157569"><ele>682.7142857142857</ele><time>2026-05-03T10:16:43.16Z</time></trkpt><trkpt lat="46.2542467" lon="8.3157486"><ele>684.0</ele><time>2026-05-03T10:16:45.16Z</time></trkpt><trkpt lat="46.254164" lon="8.3157217"><ele>684.0</ele><time>2026-05-03T10:16:48.173Z</time></trkpt><trkpt lat="46.2540782" lon="8.3157133"><ele>684.0</ele><time>2026-05-03T10:16:51.155Z</time></trkpt><trkpt lat="46.2539877" lon="8.3157053"><ele>684.0</ele><time>2026-05-03T10:16:54.148Z</time></trkpt><trkpt lat="46.2539107" lon="8.3156783"><ele>684.0</ele><time>2026-05-03T10:16:57.149Z</time></trkpt><trkpt lat="46.2538481" lon="8.3156632"><ele>684.0</ele><time>2026-05-03T10:16:59.161Z</time></trkpt><trkpt lat="46.2537787" lon="8.3156488"><ele>684.0</ele><time>2026-05-03T10:17:01.152Z</time></trkpt><trkpt lat="46.2537141" lon="8.3156184"><ele>685.3333333333334</ele><time>2026-05-03T10:17:03.151Z</time></trkpt><trkpt lat="46.2536526" lon="8.3155911"><ele>686.6666666666666</ele><time>2026-05-03T10:17:05.16Z</time></trkpt><trkpt lat="46.253565" lon="8.3155798"><ele>688.0</ele><time>2026-05-03T10:17:08.148Z</time></trkpt><trkpt lat="46.2534765" lon="8.3155623"><ele>689.3333333333333</ele><time>2026-05-03T10:17:11.153Z</time></trkpt><trkpt lat="46.2533937" lon="8.315521"><ele>690.6666666666666</ele><time>2026-05-03T10:17:14.155Z</time></trkpt><trkpt lat="46.2533211" lon="8.3155198"><ele>692.0</ele><time>2026-05-03T10:17:17.159Z</time></trkpt><trkpt lat="46.2532357" lon="8.3155224"><ele>692.5</ele><time>2026-05-03T10:17:20.152Z</time></trkpt><trkpt lat="46.2531602" lon="8.3155533"><ele>693.0</ele><time>2026-05-03T10:17:23.147Z</time></trkpt><trkpt lat="46.253064" lon="8.3155406"><ele>693.5</ele><time>2026-05-03T10:17:28.149Z</time></trkpt><trkpt lat="46.2529796" lon="8.3155565"><ele>694.0</ele><time>2026-05-03T10:17:31.154Z</time></trkpt><trkpt lat="46.2528845" lon="8.3155509"><ele>694.5</ele><time>2026-05-03T10:17:34.159Z</time></trkpt><trkpt lat="46.2528155" lon="8.315552"><ele>695.0</ele><time>2026-05-03T10:17:36.152Z</time></trkpt><trkpt lat="46.252757" lon="8.3155958"><ele>695.6666666666666</ele><time>2026-05-03T10:17:38.154Z</time></trkpt><trkpt lat="46.2526713" lon="8.3156207"><ele>696.3333333333333</ele><time>2026-05-03T10:17:41.155Z</time></trkpt><trkpt lat="46.2525845" lon="8.3156581"><ele>697.0</ele><time>2026-05-03T10:17:44.152Z</time></trkpt><trkpt lat="46.2525214" lon="8.3156761"><ele>697.6666666666666</ele><time>2026-05-03T10:17:46.161Z</time></trkpt><trkpt lat="46.2524353" lon="8.3157217"><ele>698.3333333333334</ele><time>2026-05-03T10:17:49.155Z</time></trkpt><trkpt lat="46.2523464" lon="8.315752"><ele>699.0</ele><time>2026-05-03T10:17:52.154Z</time></trkpt><trkpt lat="46.2522872" lon="8.3158084"><ele>701.1666666666666</ele><time>2026-05-03T10:17:54.149Z</time></trkpt><trkpt lat="46.2522454" lon="8.315902"><ele>703.3333333333334</ele><time>2026-05-03T10:17:56.158Z</time></trkpt><trkpt lat="46.252213" lon="8.3160106"><ele>705.5</ele><time>2026-05-03T10:17:58.151Z</time></trkpt><trkpt lat="46.2521983" lon="8.3161136"><ele>707.6666666666667</ele><time>2026-05-03T10:18:00.153Z</time></trkpt><trkpt lat="46.2521934" lon="8.3162167"><ele>709.8333333333334</ele><time>2026-05-03T10:18:02.149Z</time></trkpt><trkpt lat="46.2521761" lon="8.3163378"><ele>712.0</ele><time>2026-05-03T10:18:05.149Z</time></trkpt><trkpt lat="46.2521289" lon="8.3163992"><ele>712.8333333333334</ele><time>2026-05-03T10:18:07.148Z</time></trkpt><trkpt lat="46.2520881" lon="8.316488"><ele>713.6666666666667</ele><time>2026-05-03T10:18:10.151Z</time></trkpt><trkpt lat="46.2520472" lon="8.3165772"><ele>714.5</ele><time>2026-05-03T10:18:13.154Z</time></trkpt><trkpt lat="46.2519804" lon="8.3166615"><ele>715.3333333333334</ele><time>2026-05-03T10:18:16.147Z</time></trkpt><trkpt lat="46.2519396" lon="8.3167458"><ele>716.1666666666666</ele><time>2026-05-03T10:18:19.146Z</time></trkpt><trkpt lat="46.2518824" lon="8.3168174"><ele>717.0</ele><time>2026-05-03T10:18:22.144Z</time></trkpt><trkpt lat="46.251821" lon="8.3168769"><ele>717.0</ele><time>2026-05-03T10:18:25.145Z</time></trkpt><trkpt lat="46.2517639" lon="8.3169337"><ele>717.0</ele><time>2026-05-03T10:18:27.143Z</time></trkpt><trkpt lat="46.2516847" lon="8.3169477"><ele>717.0</ele><time>2026-05-03T10:18:29.156Z</time></trkpt><trkpt lat="46.2516048" lon="8.316954"><ele>717.0</ele><time>2026-05-03T10:18:31.152Z</time></trkpt><trkpt lat="46.2515331" lon="8.3169733"><ele>717.0</ele><time>2026-05-03T10:18:33.162Z</time></trkpt><trkpt lat="46.2514705" lon="8.3169961"><ele>717.0</ele><time>2026-05-03T10:18:35.146Z</time></trkpt><trkpt lat="46.2514134" lon="8.317044"><ele>717.0</ele><time>2026-05-03T10:18:37.156Z</time></trkpt><trkpt lat="46.2513617" lon="8.3171044"><ele>718.1666666666666</ele><time>2026-05-03T10:18:39.153Z</time></trkpt><trkpt lat="46.2513171" lon="8.3171699"><ele>719.3333333333334</ele><time>2026-05-03T10:18:41.156Z</time></trkpt><trkpt lat="46.2512565" lon="8.3172125"><ele>720.5</ele><time>2026-05-03T10:18:43.156Z</time></trkpt><trkpt lat="46.251191" lon="8.3172979"><ele>721.6666666666667</ele><time>2026-05-03T10:18:46.151Z</time></trkpt><trkpt lat="46.2511311" lon="8.3174047"><ele>722.8333333333334</ele><time>2026-05-03T10:18:49.154Z</time></trkpt><trkpt lat="46.251073" lon="8.3175086"><ele>724.0</ele><time>2026-05-03T10:18:52.146Z</time></trkpt><trkpt lat="46.2510213" lon="8.3175898"><ele>724.1666666666667</ele><time>2026-05-03T10:18:55.151Z</time></trkpt><trkpt lat="46.2509677" lon="8.317691"><ele>724.3333333333334</ele><time>2026-05-03T10:18:58.156Z</time></trkpt><trkpt lat="46.2508799" lon="8.3177334"><ele>724.5</ele><time>2026-05-03T10:19:01.152Z</time></trkpt><trkpt lat="46.2508021" lon="8.3177189"><ele>724.6666666666666</ele><time>2026-05-03T10:19:04.154Z</time></trkpt><trkpt lat="46.2507226" lon="8.3177002"><ele>724.8333333333333</ele><time>2026-05-03T10:19:06.144Z</time></trkpt><trkpt lat="46.2506265" lon="8.3177132"><ele>725.0</ele><time>2026-05-03T10:19:09.147Z</time></trkpt><trkpt lat="46.2505592" lon="8.3177194"><ele>726.1666666666666</ele><time>2026-05-03T10:19:11.142Z</time></trkpt><trkpt lat="46.2504698" lon="8.3177539"><ele>727.3333333333333</ele><time>2026-05-03T10:19:14.138Z</time></trkpt><trkpt lat="46.2503829" lon="8.3177962"><ele>728.5</ele><time>2026-05-03T10:19:17.144Z</time></trkpt><trkpt lat="46.2503093" lon="8.3178604"><ele>729.6666666666666</ele><time>2026-05-03T10:19:20.142Z</time></trkpt><trkpt lat="46.2502228" lon="8.3178539"><ele>730.8333333333334</ele><time>2026-05-03T10:19:23.147Z</time></trkpt><trkpt lat="46.2501495" lon="8.317828"><ele>732.0</ele><time>2026-05-03T10:19:25.139Z</time></trkpt><trkpt lat="46.2500611" lon="8.3178109"><ele>732.0</ele><time>2026-05-03T10:19:27.135Z</time></trkpt><trkpt lat="46.2499653" lon="8.317796"><ele>732.0</ele><time>2026-05-03T10:19:30.143Z</time></trkpt><trkpt lat="46.2498955" lon="8.3178123"><ele>732.0</ele><time>2026-05-03T10:19:33.143Z</time></trkpt><trkpt lat="46.2498308" lon="8.3178442"><ele>732.0</ele><time>2026-05-03T10:19:35.147Z</time></trkpt><trkpt lat="46.2497641" lon="8.31783"><ele>732.0</ele><time>2026-05-03T10:19:38.141Z</time></trkpt><trkpt lat="46.2496952" lon="8.3178356"><ele>732.0</ele><time>2026-05-03T10:19:41.13Z</time></trkpt><trkpt lat="46.2496226" lon="8.3178043"><ele>732.0</ele><time>2026-05-03T10:19:43.134Z</time></trkpt><trkpt lat="46.2495466" lon="8.3177906"><ele>732.6666666666666</ele><time>2026-05-03T10:19:45.138Z</time></trkpt><trkpt lat="46.2494626" lon="8.3178018"><ele>733.3333333333334</ele><time>2026-05-03T10:19:47.146Z</time></trkpt><trkpt lat="46.2493884" lon="8.3178222"><ele>734.0</ele><time>2026-05-03T10:19:49.154Z</time></trkpt><trkpt lat="46.2493255" lon="8.3178299"><ele>734.6666666666667</ele><time>2026-05-03T10:19:51.141Z</time></trkpt><trkpt lat="46.2492431" lon="8.3178839"><ele>735.3333333333334</ele><time>2026-05-03T10:19:54.153Z</time></trkpt><trkpt lat="46.249152" lon="8.3179133"><ele>736.0</ele><time>2026-05-03T10:19:57.152Z</time></trkpt><trkpt lat="46.2490878" lon="8.3178834"><ele>736.0</ele><time>2026-05-03T10:19:59.147Z</time></trkpt><trkpt lat="46.2490629" lon="8.3177914"><ele>736.0</ele><time>2026-05-03T10:20:02.144Z</time></trkpt><trkpt lat="46.2490894" lon="8.3177026"><ele>736.0</ele><time>2026-05-03T10:20:04.141Z</time></trkpt><trkpt lat="46.2491131" lon="8.3176091"><ele>736.0</ele><time>2026-05-03T10:20:06.142Z</time></trkpt><trkpt lat="46.2491271" lon="8.3174767"><ele>736.0</ele><time>2026-05-03T10:20:09.141Z</time></trkpt><trkpt lat="46.2491207" lon="8.3173465"><ele>736.0</ele><time>2026-05-03T10:20:12.14Z</time></trkpt><trkpt lat="46.2490655" lon="8.3172353"><ele>736.8333333333334</ele><time>2026-05-03T10:20:15.137Z</time></trkpt><trkpt lat="46.2489969" lon="8.317121"><ele>737.6666666666667</ele><time>2026-05-03T10:20:18.143Z</time></trkpt><trkpt lat="46.248935" lon="8.3170393"><ele>738.5</ele><time>2026-05-03T10:20:20.139Z</time></trkpt><trkpt lat="46.248893" lon="8.3169624"><ele>739.3333333333334</ele><time>2026-05-03T10:20:22.132Z</time></trkpt><trkpt lat="46.2488385" lon="8.3168856"><ele>740.1666666666666</ele><time>2026-05-03T10:20:25.135Z</time></trkpt><trkpt lat="46.248794" lon="8.316818"><ele>741.0</ele><time>2026-05-03T10:20:27.131Z</time></trkpt><trkpt lat="46.2487465" lon="8.3166991"><ele>741.0</ele><time>2026-05-03T10:20:30.139Z</time></trkpt><trkpt lat="46.2487196" lon="8.3166082"><ele>741.0</ele><time>2026-05-03T10:20:32.139Z</time></trkpt><trkpt lat="46.2486837" lon="8.3164782"><ele>741.0</ele><time>2026-05-03T10:20:35.142Z</time></trkpt><trkpt lat="46.2486811" lon="8.3163752"><ele>741.0</ele><time>2026-05-03T10:20:37.141Z</time></trkpt><trkpt lat="46.2486746" lon="8.3162539"><ele>741.0</ele><time>2026-05-03T10:20:40.143Z</time></trkpt><trkpt lat="46.2486886" lon="8.3161524"><ele>741.0</ele><time>2026-05-03T10:20:43.143Z</time></trkpt><trkpt lat="46.2487098" lon="8.3160637"><ele>742.1666666666666</ele><time>2026-05-03T10:20:45.145Z</time></trkpt><trkpt lat="46.2487416" lon="8.3159767"><ele>743.3333333333334</ele><time>2026-05-03T10:20:47.145Z</time></trkpt><trkpt lat="46.2487671" lon="8.3158847"><ele>744.5</ele><time>2026-05-03T10:20:49.148Z</time></trkpt><trkpt lat="46.2487743" lon="8.3157829"><ele>745.6666666666667</ele><time>2026-05-03T10:20:51.148Z</time></trkpt><trkpt lat="46.2488049" lon="8.3156539"><ele>746.8333333333334</ele><time>2026-05-03T10:20:54.149Z</time></trkpt><trkpt lat="46.2488175" lon="8.3155548"><ele>748.0</ele><time>2026-05-03T10:20:56.145Z</time></trkpt><trkpt lat="46.24885" lon="8.315441"><ele>748.3333333333334</ele><time>2026-05-03T10:20:59.142Z</time></trkpt><trkpt lat="46.2488849" lon="8.315358"><ele>748.6666666666667</ele><time>2026-05-03T10:21:02.149Z</time></trkpt><trkpt lat="46.2489344" lon="8.3152516"><ele>749.0</ele><time>2026-05-03T10:21:05.151Z</time></trkpt><trkpt lat="46.2489822" lon="8.3151377"><ele>749.3333333333334</ele><time>2026-05-03T10:21:08.147Z</time></trkpt><trkpt lat="46.2490263" lon="8.3150647"><ele>749.6666666666666</ele><time>2026-05-03T10:21:10.142Z</time></trkpt><trkpt lat="46.2490718" lon="8.3149955"><ele>750.0</ele><time>2026-05-03T10:21:12.147Z</time></trkpt><trkpt lat="46.2491129" lon="8.314895"><ele>750.0</ele><time>2026-05-03T10:21:15.157Z</time></trkpt><trkpt lat="46.2491453" lon="8.3148142"><ele>750.0</ele><time>2026-05-03T10:21:17.152Z</time></trkpt><trkpt lat="46.2491679" lon="8.3147181"><ele>750.0</ele><time>2026-05-03T10:21:19.157Z</time></trkpt><trkpt lat="46.2491657" lon="8.314617"><ele>750.0</ele><time>2026-05-03T10:21:21.156Z</time></trkpt><trkpt lat="46.2491356" lon="8.3145005"><ele>750.0</ele><time>2026-05-03T10:21:23.15Z</time></trkpt><trkpt lat="46.249101" lon="8.3143954"><ele>750.0</ele><time>2026-05-03T10:21:25.147Z</time></trkpt><trkpt lat="46.2490524" lon="8.3143131"><ele>750.0</ele><time>2026-05-03T10:21:27.152Z</time></trkpt><trkpt lat="46.248983" lon="8.3142939"><ele>754.1666666666666</ele><time>2026-05-03T10:21:29.151Z</time></trkpt><trkpt lat="46.2489083" lon="8.3142993"><ele>758.3333333333333</ele><time>2026-05-03T10:21:31.14Z</time></trkpt><trkpt lat="46.248838" lon="8.3142946"><ele>762.5</ele><time>2026-05-03T10:21:33.147Z</time></trkpt><trkpt lat="46.2487621" lon="8.3143036"><ele>766.6666666666666</ele><time>2026-05-03T10:21:35.144Z</time></trkpt><trkpt lat="46.2486867" lon="8.3143289"><ele>770.8333333333333</ele><time>2026-05-03T10:21:37.152Z</time></trkpt><trkpt lat="46.2486031" lon="8.3143459"><ele>775.0</ele><time>2026-05-03T10:21:39.151Z</time></trkpt><trkpt lat="46.2485302" lon="8.3143699"><ele>774.9999999999999</ele><time>2026-05-03T10:21:41.138Z</time></trkpt><trkpt lat="46.2484669" lon="8.3143911"><ele>775.0</ele><time>2026-05-03T10:21:43.139Z</time></trkpt><trkpt lat="46.248382" lon="8.3144321"><ele>775.0</ele><time>2026-05-03T10:21:46.14Z</time></trkpt><trkpt lat="46.2482857" lon="8.3144736"><ele>775.0</ele><time>2026-05-03T10:21:49.147Z</time></trkpt><trkpt lat="46.2482115" lon="8.3145359"><ele>774.9999999999999</ele><time>2026-05-03T10:21:52.134Z</time></trkpt><trkpt lat="46.2481516" lon="8.314609"><ele>775.0</ele><time>2026-05-03T10:21:54.133Z</time></trkpt><trkpt lat="46.2480636" lon="8.3146388"><ele>775.1666666666666</ele><time>2026-05-03T10:21:56.134Z</time></trkpt><trkpt lat="46.2479588" lon="8.3146957"><ele>775.3333333333333</ele><time>2026-05-03T10:21:58.134Z</time></trkpt><trkpt lat="46.2478852" lon="8.314703"><ele>775.5</ele><time>2026-05-03T10:22:00.138Z</time></trkpt><trkpt lat="46.2477996" lon="8.3147439"><ele>775.6666666666667</ele><time>2026-05-03T10:22:03.137Z</time></trkpt><trkpt lat="46.247741" lon="8.3148111"><ele>775.8333333333334</ele><time>2026-05-03T10:22:06.134Z</time></trkpt><trkpt lat="46.247691" lon="8.3148788"><ele>776.0</ele><time>2026-05-03T10:22:11.133Z</time></trkpt><trkpt lat="46.2476439" lon="8.3150237"><ele>776.0</ele><time>2026-05-03T10:22:16.144Z</time></trkpt><trkpt lat="46.2475911" lon="8.3150854"><ele>776.0</ele><time>2026-05-03T10:22:40.145Z</time></trkpt><trkpt lat="46.2475851" lon="8.3149804"><ele>776.0</ele><time>2026-05-03T10:22:43.148Z</time></trkpt><trkpt lat="46.2475657" lon="8.3148885"><ele>776.0</ele><time>2026-05-03T10:22:45.154Z</time></trkpt><trkpt lat="46.2475055" lon="8.3148119"><ele>776.0</ele><time>2026-05-03T10:22:48.151Z</time></trkpt><trkpt lat="46.2474139" lon="8.3147813"><ele>776.0</ele><time>2026-05-03T10:22:51.144Z</time></trkpt><trkpt lat="46.2473484" lon="8.3147738"><ele>776.0</ele><time>2026-05-03T10:22:53.149Z</time></trkpt><trkpt lat="46.2472871" lon="8.3148419"><ele>777.8333333333334</ele><time>2026-05-03T10:22:56.164Z</time></trkpt><trkpt lat="46.2472259" lon="8.3148834"><ele>779.6666666666667</ele><time>2026-05-03T10:22:59.141Z</time></trkpt><trkpt lat="46.2471571" lon="8.3149354"><ele>781.5</ele><time>2026-05-03T10:23:04.145Z</time></trkpt><trkpt lat="46.2470945" lon="8.3148643"><ele>783.3333333333333</ele><time>2026-05-03T10:23:10.134Z</time></trkpt><trkpt lat="46.2470516" lon="8.3147486"><ele>785.1666666666666</ele><time>2026-05-03T10:23:13.134Z</time></trkpt><trkpt lat="46.2470005" lon="8.3146616"><ele>787.0</ele><time>2026-05-03T10:23:16.135Z</time></trkpt><trkpt lat="46.2469484" lon="8.3145976"><ele>788.5714285714286</ele><time>2026-05-03T10:23:18.14Z</time></trkpt><trkpt lat="46.2468748" lon="8.3145611"><ele>790.1428571428571</ele><time>2026-05-03T10:23:21.141Z</time></trkpt><trkpt lat="46.2468246" lon="8.3144927"><ele>791.7142857142858</ele><time>2026-05-03T10:23:25.14Z</time></trkpt><trkpt lat="46.2467565" lon="8.3145014"><ele>793.2857142857142</ele><time>2026-05-03T10:23:29.134Z</time></trkpt><trkpt lat="46.2466976" lon="8.3145409"><ele>794.8571428571429</ele><time>2026-05-03T10:23:32.133Z</time></trkpt><trkpt lat="46.2466375" lon="8.3144988"><ele>796.4285714285714</ele><time>2026-05-03T10:23:39.137Z</time></trkpt><trkpt lat="46.2465615" lon="8.3144155"><ele>798.0</ele><time>2026-05-03T10:23:43.134Z</time></trkpt><trkpt lat="46.2464899" lon="8.3144342"><ele>797.5</ele><time>2026-05-03T10:23:46.133Z</time></trkpt><trkpt lat="46.2464111" lon="8.3144953"><ele>797.0</ele><time>2026-05-03T10:23:49.134Z</time></trkpt><trkpt lat="46.2463287" lon="8.3145319"><ele>796.5</ele><time>2026-05-03T10:23:51.14Z</time></trkpt><trkpt lat="46.2462384" lon="8.3145816"><ele>796.0</ele><time>2026-05-03T10:23:53.146Z</time></trkpt><trkpt lat="46.2461595" lon="8.314555"><ele>795.5</ele><time>2026-05-03T10:23:56.142Z</time></trkpt><trkpt lat="46.2461365" lon="8.3144504"><ele>795.0</ele><time>2026-05-03T10:23:59.142Z</time></trkpt><trkpt lat="46.2461201" lon="8.3143284"><ele>795.0</ele><time>2026-05-03T10:24:02.147Z</time></trkpt><trkpt lat="46.246067" lon="8.3142166"><ele>795.0</ele><time>2026-05-03T10:24:05.135Z</time></trkpt><trkpt lat="46.2460059" lon="8.314169"><ele>795.0</ele><time>2026-05-03T10:24:07.14Z</time></trkpt><trkpt lat="46.2459378" lon="8.3141466"><ele>795.0</ele><time>2026-05-03T10:24:09.139Z</time></trkpt><trkpt lat="46.2458766" lon="8.3141239"><ele>795.0</ele><time>2026-05-03T10:24:11.143Z</time></trkpt><trkpt lat="46.2457982" lon="8.3141309"><ele>795.0</ele><time>2026-05-03T10:24:13.136Z</time></trkpt><trkpt lat="46.2457286" lon="8.3141421"><ele>795.0</ele><time>2026-05-03T10:24:15.137Z</time></trkpt><trkpt lat="46.2456603" lon="8.314157"><ele>795.6666666666666</ele><time>2026-05-03T10:24:17.14Z</time></trkpt><trkpt lat="46.2455635" lon="8.3141558"><ele>796.3333333333333</ele><time>2026-05-03T10:24:20.141Z</time></trkpt><trkpt lat="46.2454922" lon="8.314132"><ele>797.0</ele><time>2026-05-03T10:24:22.14Z</time></trkpt><trkpt lat="46.2454184" lon="8.3141295"><ele>797.6666666666666</ele><time>2026-05-03T10:24:24.147Z</time></trkpt><trkpt lat="46.2453541" lon="8.3141171"><ele>798.3333333333333</ele><time>2026-05-03T10:24:26.15Z</time></trkpt><trkpt lat="46.2452905" lon="8.3140769"><ele>799.0</ele><time>2026-05-03T10:24:28.143Z</time></trkpt><trkpt lat="46.2452165" lon="8.3140199"><ele>799.0</ele><time>2026-05-03T10:24:30.144Z</time></trkpt><trkpt lat="46.2451468" lon="8.314001"><ele>799.0</ele><time>2026-05-03T10:24:32.141Z</time></trkpt><trkpt lat="46.2450781" lon="8.3139647"><ele>799.0</ele><time>2026-05-03T10:24:34.144Z</time></trkpt><trkpt lat="46.2450077" lon="8.3139438"><ele>799.0</ele><time>2026-05-03T10:24:36.137Z</time></trkpt><trkpt lat="46.2449372" lon="8.3139218"><ele>799.0</ele><time>2026-05-03T10:24:38.142Z</time></trkpt><trkpt lat="46.2448662" lon="8.3139367"><ele>799.0</ele><time>2026-05-03T10:24:40.138Z</time></trkpt><trkpt lat="46.2448013" lon="8.3139462"><ele>799.0</ele><time>2026-05-03T10:24:42.141Z</time></trkpt><trkpt lat="46.2447108" lon="8.3139749"><ele>799.1428571428572</ele><time>2026-05-03T10:24:44.138Z</time></trkpt><trkpt lat="46.2446372" lon="8.3140076"><ele>799.2857142857142</ele><time>2026-05-03T10:24:46.136Z</time></trkpt><trkpt lat="46.2445724" lon="8.3140503"><ele>799.4285714285714</ele><time>2026-05-03T10:24:48.141Z</time></trkpt><trkpt lat="46.2445096" lon="8.3140893"><ele>799.5714285714287</ele><time>2026-05-03T10:24:50.142Z</time></trkpt><trkpt lat="46.2444455" lon="8.3141371"><ele>799.7142857142858</ele><time>2026-05-03T10:24:52.142Z</time></trkpt><trkpt lat="46.2443588" lon="8.3141156"><ele>799.8571428571429</ele><time>2026-05-03T10:24:55.139Z</time></trkpt><trkpt lat="46.244296" lon="8.3140652"><ele>800.0</ele><time>2026-05-03T10:24:57.14Z</time></trkpt><trkpt lat="46.2442185" lon="8.3140297"><ele>800.0</ele><time>2026-05-03T10:24:59.136Z</time></trkpt><trkpt lat="46.2441424" lon="8.3139991"><ele>800.0</ele><time>2026-05-03T10:25:01.143Z</time></trkpt><trkpt lat="46.2440547" lon="8.3139841"><ele>800.0</ele><time>2026-05-03T10:25:03.141Z</time></trkpt><trkpt lat="46.2439769" lon="8.3139755"><ele>800.0</ele><time>2026-05-03T10:25:05.136Z</time></trkpt><trkpt lat="46.2438291" lon="8.3139658"><ele>800.0</ele><time>2026-05-03T10:25:08.13Z</time></trkpt><trkpt lat="46.2437486" lon="8.3139705"><ele>801.8333333333334</ele><time>2026-05-03T10:25:10.136Z</time></trkpt><trkpt lat="46.2436553" lon="8.3140061"><ele>803.6666666666667</ele><time>2026-05-03T10:25:13.117Z</time></trkpt><trkpt lat="46.2435916" lon="8.3140676"><ele>805.5</ele><time>2026-05-03T10:25:15.116Z</time></trkpt><trkpt lat="46.2435366" lon="8.3141582"><ele>807.3333333333333</ele><time>2026-05-03T10:25:17.129Z</time></trkpt><trkpt lat="46.2435013" lon="8.3142393"><ele>809.1666666666666</ele><time>2026-05-03T10:25:18.13Z</time></trkpt><trkpt lat="46.2434189" lon="8.3142719"><ele>811.0</ele><time>2026-05-03T10:25:20.135Z</time></trkpt><trkpt lat="46.2433237" lon="8.3142834"><ele>811.0</ele><time>2026-05-03T10:25:22.143Z</time></trkpt><trkpt lat="46.2432455" lon="8.3143051"><ele>811.0</ele><time>2026-05-03T10:25:24.136Z</time></trkpt><trkpt lat="46.2431642" lon="8.3143474"><ele>811.0</ele><time>2026-05-03T10:25:26.141Z</time></trkpt><trkpt lat="46.2430935" lon="8.3143687"><ele>811.0</ele><time>2026-05-03T10:25:28.141Z</time></trkpt><trkpt lat="46.2430185" lon="8.3143908"><ele>811.0</ele><time>2026-05-03T10:25:30.141Z</time></trkpt><trkpt lat="46.2429551" lon="8.3144046"><ele>811.0</ele><time>2026-05-03T10:25:32.144Z</time></trkpt><trkpt lat="46.2428906" lon="8.3144064"><ele>811.0</ele><time>2026-05-03T10:25:34.138Z</time></trkpt><trkpt lat="46.2428236" lon="8.3144194"><ele>811.7142857142857</ele><time>2026-05-03T10:25:36.146Z</time></trkpt><trkpt lat="46.2427568" lon="8.314408"><ele>812.4285714285714</ele><time>2026-05-03T10:25:38.133Z</time></trkpt><trkpt lat="46.2426944" lon="8.3144386"><ele>813.1428571428571</ele><time>2026-05-03T10:25:40.132Z</time></trkpt><trkpt lat="46.2426287" lon="8.3144641"><ele>813.8571428571429</ele><time>2026-05-03T10:25:42.14Z</time></trkpt><trkpt lat="46.242549" lon="8.314415"><ele>814.5714285714287</ele><time>2026-05-03T10:25:44.138Z</time></trkpt><trkpt lat="46.2424777" lon="8.3143771"><ele>815.2857142857143</ele><time>2026-05-03T10:25:46.144Z</time></trkpt><trkpt lat="46.2424117" lon="8.314349"><ele>816.0</ele><time>2026-05-03T10:25:48.143Z</time></trkpt><trkpt lat="46.2423339" lon="8.314313"><ele>815.8333333333334</ele><time>2026-05-03T10:25:50.136Z</time></trkpt><trkpt lat="46.2422599" lon="8.3142625"><ele>815.6666666666667</ele><time>2026-05-03T10:25:52.137Z</time></trkpt><trkpt lat="46.2421912" lon="8.3142184"><ele>815.5</ele><time>2026-05-03T10:25:54.139Z</time></trkpt><trkpt lat="46.2421288" lon="8.314185"><ele>815.3333333333334</ele><time>2026-05-03T10:25:56.136Z</time></trkpt><trkpt lat="46.2420604" lon="8.3141403"><ele>815.1666666666667</ele><time>2026-05-03T10:25:58.142Z</time></trkpt><trkpt lat="46.2419867" lon="8.3140756"><ele>815.0</ele><time>2026-05-03T10:26:00.141Z</time></trkpt><trkpt lat="46.2419159" lon="8.3140116"><ele>815.0000000000001</ele><time>2026-05-03T10:26:02.143Z</time></trkpt><trkpt lat="46.24185" lon="8.3139329"><ele>815.0</ele><time>2026-05-03T10:26:04.152Z</time></trkpt><trkpt lat="46.2417956" lon="8.313841"><ele>815.0</ele><time>2026-05-03T10:26:06.141Z</time></trkpt><trkpt lat="46.2417405" lon="8.3137616"><ele>815.0</ele><time>2026-05-03T10:26:08.141Z</time></trkpt><trkpt lat="46.241688" lon="8.3136774"><ele>815.0000000000001</ele><time>2026-05-03T10:26:10.134Z</time></trkpt><trkpt lat="46.2416378" lon="8.313592"><ele>815.0</ele><time>2026-05-03T10:26:12.142Z</time></trkpt><trkpt lat="46.2415857" lon="8.3135218"><ele>816.3333333333334</ele><time>2026-05-03T10:26:14.147Z</time></trkpt><trkpt lat="46.2415348" lon="8.3134463"><ele>817.6666666666667</ele><time>2026-05-03T10:26:16.147Z</time></trkpt><trkpt lat="46.2414764" lon="8.3134016"><ele>819.0</ele><time>2026-05-03T10:26:18.145Z</time></trkpt><trkpt lat="46.2415452" lon="8.3133845"><ele>820.3333333333333</ele><time>2026-05-03T10:26:24.135Z</time></trkpt><trkpt lat="46.241643" lon="8.3133537"><ele>821.6666666666666</ele><time>2026-05-03T10:26:26.136Z</time></trkpt><trkpt lat="46.2417176" lon="8.313283"><ele>823.0</ele><time>2026-05-03T10:26:28.133Z</time></trkpt><trkpt lat="46.2417655" lon="8.3132042"><ele>823.0</ele><time>2026-05-03T10:26:30.141Z</time></trkpt><trkpt lat="46.2418197" lon="8.3131294"><ele>823.0</ele><time>2026-05-03T10:26:32.138Z</time></trkpt><trkpt lat="46.2418756" lon="8.3130682"><ele>823.0</ele><time>2026-05-03T10:26:34.148Z</time></trkpt><trkpt lat="46.241928" lon="8.3130067"><ele>823.0</ele><time>2026-05-03T10:26:36.134Z</time></trkpt><trkpt lat="46.2419828" lon="8.3129497"><ele>823.0</ele><time>2026-05-03T10:26:38.136Z</time></trkpt><trkpt lat="46.242054" lon="8.3128955"><ele>823.0</ele><time>2026-05-03T10:26:40.134Z</time></trkpt><trkpt lat="46.2421208" lon="8.3128664"><ele>823.0</ele><time>2026-05-03T10:26:42.137Z</time></trkpt><trkpt lat="46.2421933" lon="8.3128522"><ele>837.0</ele><time>2026-05-03T10:26:44.143Z</time></trkpt><trkpt lat="46.2421139" lon="8.3128238"><ele>837.0</ele><time>2026-05-03T10:29:29.136Z</time></trkpt><trkpt lat="46.2420482" lon="8.3127742"><ele>837.0</ele><time>2026-05-03T10:29:34.133Z</time></trkpt><trkpt lat="46.2421193" lon="8.3127587"><ele>837.0</ele><time>2026-05-03T10:30:24.119Z</time></trkpt></trkseg></trk></gpx>